GFSSGP_prec_cthk_000.txt.gz
RH
26 21 28 33 42 43 43 38 53 50 46 41 40 39 37 35 32 34 29 23 20 19 19 20 25 23 24 20 20 16 12 14 16 15 17 19 18 19 19 20 18 20 21 20 16 19 20 20 19
25 19 29 37 38 47 40 40 53 47 44 41 41 40 36 37 33 30 28 22 21 22 22 19 22 23 21 20 15 13 12 15 14 17 19 21 21 21 17 20 19 18 22 20 14 19 21 20 21
23 20 33 35 38 41 46 50 55 44 44 42 41 40 38 38 35 35 33 25 23 23 24 22 19 23 21 17 16 12 13 16 17 23 20 23 21 21 20 20 19 18 18 16 15 20 21 19 21
23 22 28 37 34 35 51 63 54 45 44 42 42 40 41 39 38 36 32 29 25 24 25 25 26 21 18 16 16 13 14 16 18 19 20 21 22 22 21 19 19 18 16 16 14 14 14 21 16
25 24 31 30 34 40 54 67 55 47 44 42 42 41 43 42 38 35 30 32 31 26 24 23 22 25 17 16 16 12 14 17 18 19 18 20 21 22 22 20 20 18 17 16 13 12 12 14 14
26 25 29 33 30 32 42 51 46 45 45 41 42 42 44 43 37 35 33 33 35 31 27 20 19 18 18 15 14 12 14 17 18 17 15 18 21 22 22 21 21 21 18 15 12 10 11 12 13
29 28 28 29 30 33 35 43 44 47 45 41 41 44 43 40 38 34 33 36 35 33 28 20 17 16 15 12 9 12 16 17 17 15 14 15 16 20 22 21 22 20 19 17 13 12 11 11 13
32 29 27 28 28 31 44 46 46 47 45 40 42 43 39 39 37 35 35 38 37 34 30 24 19 16 10 8 6 10 16 18 17 17 13 12 14 19 20 20 21 20 21 18 16 13 12 11 12
38 31 27 32 33 36 45 48 49 47 44 40 40 39 38 36 35 38 36 37 38 36 32 28 24 21 17 14 11 9 11 13 12 11 10 11 11 16 19 19 16 19 19 18 17 13 12 12 13
40 34 26 29 34 40 42 46 45 43 43 40 37 36 37 34 34 39 37 35 36 35 32 31 26 22 20 18 16 13 10 10 10 10 11 12 13 19 20 18 17 18 17 17 18 16 14 14 15
40 36 27 28 34 36 39 40 41 38 39 37 35 34 36 35 35 38 40 36 33 34 32 31 31 26 20 16 15 14 11 12 11 12 15 16 17 20 17 17 16 18 16 18 19 17 16 17 17
41 34 28 27 33 33 34 36 36 36 37 36 37 34 35 37 37 40 39 36 35 33 31 32 33 30 25 20 16 15 15 16 16 17 18 18 18 17 14 15 16 17 17 20 19 20 18 19 19
40 33 29 28 27 32 30 30 33 34 37 36 36 38 36 37 39 43 39 37 35 34 32 32 31 32 29 27 20 18 18 19 20 21 21 20 19 18 17 17 20 20 19 20 23 23 21 22 20
34 36 30 34 30 27 28 29 30 31 37 38 35 38 38 38 42 43 39 38 35 35 34 34 33 29 31 30 27 23 21 21 22 21 21 21 20 19 19 18 20 21 21 21 22 22 22 21 21
31 31 32 30 30 29 34 32 29 28 32 32 33 36 38 38 42 39 38 37 37 36 35 34 31 30 27 28 27 27 25 24 23 22 21 21 21 20 20 20 21 23 22 21 22 23 25 26 25
30 30 33 28 30 28 27 29 31 33 30 31 30 33 36 39 37 36 36 36 36 36 33 31 30 27 24 23 24 25 27 26 23 22 21 21 21 22 21 20 20 21 22 23 24 24 25 26 26
29 28 31 26 31 27 26 22 25 29 29 31 32 34 35 35 34 33 30 29 26 22 21 24 26 25 24 22 22 23 24 24 23 24 23 23 19 19 20 20 21 22 23 24 25 26 28 28 30
30 28 30 30 31 27 26 25 21 24 26 28 30 31 31 29 28 27 22 18 17 17 16 16 18 21 23 24 23 23 24 22 23 23 23 24 24 21 20 19 21 23 23 22 23 26 30 32 32
34 32 28 27 29 25 25 24 24 23 23 27 28 26 25 22 20 17 16 15 15 15 14 16 16 16 19 20 22 22 22 23 24 23 23 24 25 24 20 21 21 23 24 24 24 28 31 33 36
31 31 29 28 26 21 23 29 27 23 24 25 24 23 22 21 20 19 18 17 16 15 13 14 15 18 21 21 20 22 23 23 26 26 25 28 29 26 23 23 24 24 25 26 26 29 32 37 41
29 33 37 33 25 23 25 32 28 27 27 25 24 24 23 22 21 19 18 17 18 18 18 18 18 20 22 26 26 26 26 25 25 25 29 32 32 30 30 29 29 29 28 27 31 36 39 41 43
30 29 33 27 27 34 27 37 30 29 29 29 26 26 23 20 20 20 21 21 21 20 20 20 22 22 24 27 30 31 32 32 31 32 33 33 31 29 27 26 28 33 35 37 38 40 38 41 41
39 30 27 26 27 30 29 33 30 28 28 26 23 23 23 23 24 24 24 24 23 22 23 23 23 24 26 29 30 32 33 33 33 34 36 37 38 36 35 32 34 35 38 40 41 41 42 44 48
31 28 27 26 27 32 26 27 30 27 27 24 24 26 26 26 26 26 25 26 27 28 28 28 28 28 27 27 29 31 32 32 32 32 34 34 36 38 40 41 40 41 43 44 45 44 47 49 51
30 30 39 42 38 36 26 27 26 24 23 24 25 24 25 26 27 28 30 30 30 31 31 32 31 29 30 30 30 31 32 33 35 37 39 40 40 42 45 47 47 45 45 44 46 48 49 51 52
30 31 45 57 51 38 28 28 23 22 22 24 25 27 30 31 35 36 35 33 31 30 29 29 30 33 34 33 32 33 33 33 33 33 33 35 38 41 43 46 48 49 49 48 51 55 57 58 60
32 37 35 40 37 40 33 29 29 27 30 32 33 35 36 35 36 35 34 32 30 29 28 28 27 26 26 29 32 35 36 36 37 38 39 39 39 38 37 39 43 47 54 56 60 61 60 59 60
33 33 37 38 40 39 34 32 35 31 32 32 35 35 37 37 37 37 35 32 31 29 26 27 27 28 29 29 29 30 31 33 36 39 40 42 44 45 46 46 47 48 49 51 56 59 63 69 70
38 36 35 35 36 43 42 38 36 35 33 33 34 34 34 34 35 36 34 32 32 30 30 34 37 39 40 40 40 41 41 42 43 44 45 45 46 48 52 54 55 54 55 57 56 57 60 62 67
41 41 41 45 43 43 42 40 32 33 32 32 31 32 31 29 32 34 36 37 38 40 42 44 45 45 45 45 44 43 42 42 42 43 43 43 43 43 42 42 44 49 55 60 63 63 64 66 67

GFSSGP_prec_cthk_003.txt.gz
RH
23 18 21 28 35 40 40 38 53 55 54 47 44 39 38 37 34 32 29 28 26 20 18 17 19 22 23 21 19 17 16 12 16 17 20 23 19 20 21 20 20 21 21 22 16 21 21 20 22
23 16 21 33 38 42 38 37 52 48 53 46 44 39 38 38 37 35 33 32 27 20 19 17 21 20 21 20 17 13 13 13 14 18 27 27 22 21 20 21 19 19 22 18 15 21 22 21 20
23 16 22 35 41 37 36 49 45 49 48 47 41 39 38 39 39 37 33 30 29 23 20 20 20 21 18 17 15 13 12 16 17 21 19 26 23 22 20 18 17 16 16 14 15 17 22 20 21
24 18 20 36 35 33 36 56 64 58 51 45 40 40 40 40 40 39 34 29 31 30 23 20 21 20 19 17 14 15 14 16 17 19 20 20 25 22 21 17 17 15 13 12 11 11 10 15 17
25 19 25 32 30 31 38 50 59 56 49 44 39 41 44 42 40 37 33 31 32 33 28 22 20 20 17 16 15 14 13 16 16 18 18 19 20 21 22 19 17 15 14 11 10 10 10 10 12
27 22 26 31 30 30 38 50 58 52 48 43 40 40 45 44 39 36 33 32 35 34 31 26 20 18 17 17 14 14 12 17 18 18 15 16 18 16 19 19 17 18 15 14 13 11 11 12 11
31 29 27 27 31 32 37 45 51 49 46 43 42 43 45 44 41 36 35 35 36 36 35 30 21 17 17 17 14 11 11 17 16 17 12 12 12 13 13 18 18 22 18 18 16 15 13 12 11
34 32 26 24 30 30 38 45 51 46 45 43 43 45 46 44 40 36 36 38 37 36 35 32 27 16 17 12 9 6 8 12 12 11 10 10 10 10 12 15 20 21 20 21 20 17 16 14 13
39 35 30 23 30 34 41 43 48 46 48 45 41 42 44 42 38 34 35 40 38 35 33 32 31 25 19 13 10 9 9 9 10 10 10 10 10 10 12 15 15 16 18 19 19 19 17 17 16
47 37 33 21 30 32 36 39 42 45 43 43 40 42 41 38 34 34 33 38 39 34 32 31 30 31 25 19 15 14 11 10 10 10 11 11 11 12 15 14 14 14 14 17 18 19 17 17 17
51 36 34 23 29 31 33 35 41 44 45 41 40 40 39 36 35 36 34 36 38 34 31 31 30 30 29 24 21 17 14 12 11 11 12 13 14 14 14 14 13 13 16 15 16 17 17 16 17
59 39 34 25 27 31 34 35 36 38 40 39 37 36 36 38 36 35 33 35 37 34 31 32 31 31 31 29 23 20 18 16 16 16 17 17 18 17 17 16 15 14 15 16 15 16 16 16 17
59 39 35 28 24 29 30 30 32 33 34 37 35 36 36 37 37 35 33 37 38 34 32 32 31 31 32 31 27 24 22 21 20 20 21 22 22 22 20 20 19 16 14 16 17 16 17 17 16
57 39 33 28 26 28 29 27 29 28 30 36 37 37 37 37 36 35 36 38 37 33 33 33 32 31 31 30 28 26 26 25 26 25 24 23 21 21 21 22 19 16 14 14 17 18 19 19 20
58 39 32 27 24 27 28 27 23 23 25 30 34 34 32 32 34 34 33 34 33 32 33 34 33 31 28 26 26 24 23 24 23 24 25 25 25 23 20 20 20 18 18 16 17 17 19 22 23
57 37 32 21 23 25 26 28 27 29 29 30 30 29 28 29 31 31 32 31 32 32 31 27 24 23 22 20 20 20 22 23 22 23 23 24 25 26 27 24 19 21 21 21 21 21 20 20 22
56 39 29 27 26 28 30 31 26 27 30 31 31 28 27 27 29 32 32 31 28 23 19 18 17 14 16 19 19 18 18 19 20 22 23 24 25 24 26 27 26 23 24 24 24 23 22 20 22
58 38 30 30 28 30 31 29 23 21 21 24 24 26 29 31 32 30 26 21 18 17 17 18 17 16 15 17 20 21 22 20 20 21 23 25 25 27 29 30 31 29 29 29 30 29 29 28 27
46 36 28 29 28 29 27 29 22 21 23 23 23 26 29 28 26 21 18 17 17 17 18 18 18 20 21 21 23 23 23 24 25 26 25 27 30 31 34 36 35 32 31 30 31 32 30 28 30
43 36 30 29 28 28 26 26 23 23 24 24 26 28 27 25 23 20 19 19 18 17 17 18 20 22 24 27 29 30 29 30 31 32 32 33 34 35 37 38 34 33 33 32 30 33 33 31 35
44 32 31 31 30 26 25 26 23 27 26 27 28 27 26 24 23 22 20 18 18 19 19 20 20 21 23 25 28 33 34 33 33 33 33 34 37 38 41 42 41 40 38 37 36 41 46 46 45
40 29 28 29 30 34 30 36 26 30 31 30 28 27 26 25 24 23 21 21 21 20 21 21 22 23 26 28 30 34 37 37 38 39 40 40 41 41 42 44 46 46 46 45 46 47 49 51 52
36 27 27 27 29 33 31 33 29 31 34 32 29 26 25 23 23 23 23 24 24 25 26 27 27 27 28 28 30 32 35 37 38 39 39 40 41 44 44 45 47 49 51 53 54 55 55 55 56
32 29 29 30 33 39 28 31 29 30 30 29 28 26 25 24 24 25 25 26 27 29 29 29 28 28 29 30 29 29 30 31 32 33 35 37 40 42 45 46 49 50 54 56 55 57 59 56 59
28 32 42 41 41 39 26 29 24 23 23 23 25 25 24 25 26 27 28 32 33 32 30 27 26 25 26 27 29 31 31 33 34 34 34 34 34 34 36 42 47 46 47 53 58 57 58 56 61
28 34 46 51 49 40 30 32 25 19 22 24 29 31 32 33 35 36 36 37 37 34 33 31 30 27 26 25 25 25 26 28 31 33 35 37 37 38 38 37 38 40 44 47 50 53 56 59 63
31 33 35 40 42 44 39 33 26 27 31 34 35 36 35 37 36 37 37 37 36 35 33 30 28 28 29 31 33 35 36 37 38 38 39 41 43 44 44 46 47 49 51 51 50 51 54 57 62
29 31 37 41 40 39 36 34 36 32 35 37 39 38 37 36 35 34 33 33 33 33 33 34 35 36 39 40 40 40 41 41 42 42 43 43 43 42 42 42 42 41 42 46 51 54 56 58 58
35 35 33 36 38 43 45 41 36 37 38 38 39 38 36 33 31 32 33 35 38 40 42 44 45 45 43 40 39 40 40 40 41 41 42 43 43 43 43 42 42 42 42 42 43 45 48 51 54
38 40 39 43 42 45 47 45 39 38 36 37 37 35 34 34 35 37 42 46 48 47 46 45 44 42 38 38 39 40 40 40 41 41 41 41 41 41 42 42 43 42 42 43 42 42 42 51 55

GFSSGP_prec_cthk_006.txt.gz
RH
25 18 17 22 31 37 38 40 43 49 48 51 52 48 40 38 36 31 32 32 29 26 20 18 19 25 24 24 24 22 19 14 10 19 24 28 20 20 19 19 20 21 22 22 19 23 22 22 24
24 17 18 27 35 41 37 40 46 46 51 48 49 43 43 40 38 36 35 33 31 28 21 19 19 21 19 22 22 20 14 12 12 16 28 29 26 23 20 20 18 21 22 16 14 21 20 18 20
25 17 18 31 40 38 36 40 45 44 43 51 49 39 43 41 38 37 36 32 30 30 25 20 19 20 18 19 17 15 12 13 16 22 26 29 26 21 19 18 18 16 14 12 13 14 16 15 19
28 18 18 31 35 34 31 40 42 44 47 48 45 41 42 43 40 40 36 33 32 32 28 25 18 17 16 16 16 14 13 13 17 26 28 28 23 20 20 18 16 15 13 12 12 13 12 12 13
33 19 21 27 31 30 29 35 45 51 50 44 41 45 45 44 42 41 37 34 33 33 32 28 23 18 16 15 15 14 13 13 15 19 21 19 19 20 18 18 17 15 16 13 11 11 12 12 12
38 23 22 26 30 29 32 38 49 58 53 47 44 46 47 45 42 40 37 35 35 34 34 32 29 20 17 15 14 13 13 11 13 18 18 17 18 18 16 16 16 17 19 15 13 13 13 14 14
45 32 25 24 30 30 35 40 47 55 53 48 44 45 46 45 42 41 38 37 38 36 35 35 32 28 19 16 14 11 10 9 14 18 12 12 15 14 12 14 18 21 21 18 17 16 16 15 16
49 38 26 25 29 31 37 40 50 50 52 48 44 44 46 43 43 42 38 36 39 39 36 35 33 30 23 19 14 10 6 7 12 11 9 10 10 11 11 14 15 15 20 19 19 19 17 17 17
52 47 30 26 27 30 32 38 47 49 47 42 41 44 44 43 43 39 36 35 38 41 37 35 32 30 28 23 18 12 10 9 10 11 11 11 11 11 11 13 14 14 13 14 16 18 17 17 16
55 54 34 28 24 30 31 35 38 39 43 42 42 45 43 42 40 34 33 35 36 39 38 35 33 32 31 28 23 20 16 14 12 12 11 12 12 12 12 14 15 13 12 11 13 14 16 16 16
54 55 40 28 28 28 30 32 34 34 40 44 43 42 42 41 38 34 34 35 35 38 39 35 34 34 33 31 28 23 21 19 17 15 14 14 14 15 16 17 16 16 14 13 12 13 15 16 16
55 55 49 30 28 28 28 30 32 33 40 40 41 41 40 39 37 34 34 34 33 37 38 35 33 34 33 34 32 29 25 23 20 20 19 18 19 19 20 21 21 19 18 16 15 13 15 17 17
56 55 53 33 28 26 27 27 29 33 35 37 39 38 37 37 36 34 33 33 33 36 38 34 32 33 33 33 33 31 28 26 26 26 26 24 24 23 22 22 22 21 20 18 16 15 15 16 18
54 53 54 36 28 26 26 26 26 24 30 33 33 36 36 36 34 32 32 32 33 34 34 34 33 33 33 31 30 29 27 26 25 25 26 26 26 28 28 28 25 21 22 22 20 18 18 17 17
54 52 54 38 27 26 26 27 23 20 26 27 30 32 35 34 31 29 30 32 35 34 36 35 34 32 28 24 22 23 23 22 23 23 24 25 26 26 27 27 29 29 27 26 27 27 25 24 23
51 51 55 35 20 22 25 29 24 25 25 24 25 30 30 30 28 27 30 32 34 34 33 30 24 21 20 19 20 20 20 19 20 22 24 25 26 28 29 29 29 31 32 31 27 28 29 28 27
55 55 54 33 22 26 26 26 24 25 28 28 30 28 27 27 26 28 30 32 32 28 22 19 19 19 20 19 19 18 20 22 21 21 22 25 28 30 32 31 31 33 34 35 33 31 32 32 31
57 58 49 36 27 30 30 28 27 28 28 25 23 23 25 26 28 28 30 27 22 19 18 20 21 22 23 23 23 24 26 27 28 28 30 30 31 32 33 33 34 37 39 38 36 35 36 36 36
61 51 48 37 25 27 29 30 29 26 23 19 22 22 24 27 30 29 25 22 21 20 19 20 20 21 23 25 27 29 31 31 31 33 34 36 38 39 40 40 40 41 43 43 40 40 39 36 37
64 52 46 37 27 28 30 30 26 21 21 22 23 24 26 29 28 26 24 22 21 21 20 19 19 19 21 23 26 30 33 35 36 38 39 42 42 41 42 42 43 44 44 44 44 44 44 43 43
59 49 45 42 31 28 30 32 23 21 23 27 27 27 30 29 27 25 24 24 24 22 20 19 20 21 23 25 28 31 34 38 42 44 44 45 45 45 45 45 45 45 46 47 49 51 52 53 52
51 46 43 40 34 35 33 37 25 23 26 30 30 29 28 28 28 27 27 25 25 23 22 23 25 26 28 29 31 34 37 39 39 40 41 42 43 42 43 44 45 45 47 48 50 54 55 57 57
50 46 42 38 34 32 33 36 28 27 30 32 32 30 29 28 28 27 25 24 24 24 26 27 29 29 27 27 26 27 29 31 32 31 31 33 35 39 41 42 43 44 46 45 51 53 56 56 54
53 46 43 41 35 38 30 34 29 28 26 31 31 30 27 28 27 25 25 26 26 27 31 33 32 30 29 28 28 28 29 30 30 30 30 31 32 33 33 34 37 41 43 43 44 50 53 56 61
48 45 51 48 45 38 28 31 24 24 24 24 28 27 28 29 28 29 31 33 34 36 37 37 34 32 30 28 28 29 30 31 33 35 36 38 39 40 42 43 44 45 46 47 50 51 53 56 63
43 45 50 48 47 37 29 32 24 22 21 24 26 30 33 34 33 35 37 39 38 37 35 34 34 33 33 34 34 35 36 39 40 40 40 39 38 37 36 36 36 37 38 41 44 47 51 54 56
39 43 37 44 43 43 39 31 23 25 26 29 32 33 37 38 37 39 38 37 35 33 33 35 37 37 38 39 40 40 39 38 36 36 36 36 36 35 34 34 34 34 35 36 37 37 38 41 46
37 33 39 44 44 44 39 34 31 31 33 34 37 39 42 41 41 41 38 36 35 37 39 42 43 45 44 39 36 35 35 35 36 37 37 37 37 36 36 36 36 37 38 38 39 38 38 39 39
36 34 32 38 40 41 42 36 30 33 38 40 43 43 41 41 40 39 38 38 41 46 49 49 47 43 40 36 35 36 37 38 39 39 39 39 39 39 38 38 38 39 40 42 43 44 44 45 47
36 37 35 38 38 42 43 41 37 39 40 41 40 38 39 39 39 39 40 47 52 51 46 43 41 40 36 36 37 38 39 40 41 41 41 41 40 39 38 37 37 40 40 42 46 46 50 53 53

GFSSGP_prec_cthk_009.txt.gz
RH
28 21 17 21 29 36 41 41 45 50 49 45 44 50 46 40 37 36 36 33 30 29 26 20 18 23 29 24 23 20 19 16 14 16 17 21 21 25 20 22 20 21 21 22 22 21 24 20 25
30 21 16 25 33 40 38 39 41 45 48 48 47 50 48 41 40 39 38 35 33 31 29 23 19 21 24 21 22 19 16 13 14 15 18 25 28 22 22 22 20 22 22 22 16 21 20 19 22
31 23 16 29 38 40 37 37 38 37 44 46 50 48 44 40 41 42 40 37 34 32 31 25 21 20 22 18 19 16 15 12 14 17 21 29 30 25 22 20 18 18 18 15 15 18 18 17 19
35 25 17 26 34 35 33 32 35 37 44 44 44 46 44 41 41 44 42 37 35 33 34 30 26 21 20 17 16 15 14 12 14 17 18 30 29 23 22 20 18 17 16 14 13 14 13 14 19
43 30 19 22 27 31 33 30 33 39 43 43 41 44 44 42 42 45 43 39 37 35 35 33 29 25 18 15 15 14 12 12 13 19 19 22 20 22 20 18 19 17 16 16 14 11 13 16 15
48 37 25 21 24 30 33 31 33 41 45 44 45 42 45 43 43 44 44 41 38 38 35 34 33 30 23 17 15 13 12 11 11 15 18 19 19 19 19 17 17 16 16 17 16 13 14 15 16
51 47 33 23 27 31 33 32 35 43 52 51 49 44 44 44 44 44 44 43 38 39 38 34 34 33 31 23 18 15 12 10 9 12 14 15 18 17 16 15 15 15 14 14 16 15 15 16 16
50 53 40 27 26 31 32 35 32 45 50 48 46 42 42 43 43 42 43 42 38 38 39 36 35 35 32 28 24 19 14 10 8 12 10 10 12 14 13 12 13 12 12 13 15 16 16 17 17
49 57 51 31 25 30 32 38 35 37 48 48 41 39 40 42 41 42 40 38 36 36 36 39 36 35 34 31 28 24 20 15 12 11 10 11 12 12 12 12 13 14 14 13 13 14 15 17 18
50 56 56 37 26 30 32 36 38 37 45 42 40 39 41 43 43 42 38 34 35 35 35 40 38 36 36 34 32 28 24 21 18 17 15 14 14 14 14 15 16 16 16 15 15 15 14 14 16
49 50 57 45 32 29 32 34 34 33 40 37 40 41 40 42 41 41 36 34 34 34 35 39 38 36 36 35 34 33 30 26 23 21 20 19 18 17 18 19 20 20 20 20 20 19 18 16 15
49 49 54 53 39 30 27 31 30 30 35 36 38 40 40 39 38 38 36 34 34 33 35 39 40 37 35 36 36 35 34 31 28 26 24 24 24 24 23 22 22 22 23 24 24 22 21 19 18
53 50 53 57 49 30 25 23 28 28 32 33 37 37 36 36 37 36 35 34 34 34 35 36 37 36 36 36 36 34 31 29 28 28 27 28 28 29 30 31 32 31 29 28 28 27 25 24 22
52 51 53 53 54 37 27 24 24 24 26 28 32 34 35 35 36 35 33 33 33 36 37 37 37 37 36 33 30 29 28 28 27 27 27 29 29 29 30 31 31 32 33 33 32 30 30 30 29
54 53 51 50 55 42 29 26 23 21 25 26 27 30 31 32 36 35 34 32 32 34 36 35 36 34 28 25 23 23 25 26 24 22 23 24 26 27 29 29 29 30 32 34 34 33 33 32 32
54 53 52 51 49 35 22 26 23 24 25 25 24 26 27 31 32 32 30 29 31 33 34 33 29 24 24 23 24 24 24 25 24 24 22 21 23 25 27 29 30 31 31 33 34 34 34 33 33
56 56 52 53 44 34 21 24 23 27 27 25 23 25 28 29 29 29 28 28 30 30 26 23 21 24 26 27 27 26 27 27 28 29 30 32 34 34 36 37 36 36 36 37 38 40 41 38 35
56 56 54 53 43 38 26 26 26 25 25 26 27 29 28 25 25 25 23 26 29 26 23 22 22 24 25 26 27 27 28 30 31 32 33 36 38 40 42 42 42 43 43 43 43 46 47 45 42
64 58 53 51 44 40 27 28 28 29 28 28 29 26 23 21 24 26 29 29 27 25 23 23 22 22 22 22 24 26 28 31 34 37 38 39 41 44 46 47 47 48 48 48 49 50 51 52 53
66 58 55 49 44 42 27 29 29 28 27 26 22 20 22 24 26 28 30 28 26 25 25 24 23 22 21 21 24 28 31 34 38 41 43 46 48 49 50 51 51 51 51 51 51 53 54 55 57
68 61 59 53 45 43 32 29 30 29 27 23 23 24 27 28 30 30 29 28 28 28 26 24 23 22 22 24 26 28 31 35 38 40 41 43 43 43 44 44 43 42 44 43 44 47 50 51 52
77 60 62 52 50 49 36 39 31 27 27 26 26 28 31 31 32 31 30 29 28 27 26 25 24 25 26 26 26 27 29 31 32 32 33 34 34 36 37 38 40 42 43 44 46 47 48 54 55
69 65 55 53 48 43 37 37 31 27 28 28 31 30 31 32 32 31 30 28 28 27 26 26 27 28 31 31 30 29 29 31 31 32 33 34 36 37 37 38 39 40 42 44 47 48 49 54 57
73 57 55 54 50 49 35 33 30 29 26 30 30 31 31 30 30 30 29 28 27 27 30 32 34 35 35 34 32 31 32 33 33 34 35 36 37 36 34 33 34 34 35 35 35 36 39 42 47
62 60 65 61 57 52 33 34 22 25 26 29 30 30 30 30 32 32 31 29 30 34 36 36 35 34 34 34 34 34 34 36 37 36 34 32 31 31 32 32 32 32 32 32 32 32 33 35 37
57 56 61 57 56 46 35 33 22 23 24 24 26 28 32 33 33 33 32 33 36 38 38 37 38 38 38 37 36 37 38 35 33 32 32 33 33 33 33 33 33 33 34 34 34 34 35 34 34
54 57 53 53 54 57 43 30 22 26 26 24 26 32 33 34 35 35 35 40 41 40 39 40 42 42 43 43 41 37 35 34 34 34 35 35 36 35 35 35 34 34 35 35 35 36 36 38 40
53 56 54 55 57 55 44 36 32 29 31 31 34 35 36 38 40 43 44 43 40 40 41 44 48 49 46 40 36 34 35 36 37 38 38 38 38 36 35 34 33 31 31 32 33 34 35 37 41
55 50 46 47 50 48 45 35 27 27 32 36 38 40 43 44 45 44 43 39 39 42 48 53 49 43 39 37 36 37 37 39 40 40 40 38 36 33 31 29 26 24 23 23 24 26 29 35 38
54 47 42 43 40 44 43 36 31 35 37 43 45 46 45 44 41 40 40 41 46 51 53 49 44 42 41 39 39 40 42 42 42 40 36 33 30 27 24 22 21 19 19 18 18 18 22 25 24

GFSSGP_prec_cthk_012.txt.gz
RH
27 24 16 18 28 34 38 40 42 47 51 48 47 41 46 44 40 40 39 36 33 31 31 29 25 24 27 27 24 22 17 16 14 12 15 21 21 18 19 22 21 22 22 22 22 20 21 21 22
30 26 17 22 33 39 36 36 38 40 45 45 43 42 49 46 42 41 42 38 36 34 32 30 27 24 28 29 26 21 16 14 12 12 17 27 26 20 21 20 20 22 22 22 16 22 21 21 25
38 28 19 27 36 37 35 36 41 35 38 44 40 41 49 47 44 42 44 42 38 35 34 32 29 29 27 27 21 18 15 13 12 14 17 28 21 20 21 20 19 19 19 15 15 22 21 18 20
47 32 23 22 31 35 34 38 33 33 35 43 39 41 47 44 43 43 45 43 39 36 35 34 31 32 28 22 19 17 15 13 13 16 18 27 28 24 21 22 19 18 17 15 14 17 15 15 17
48 41 28 21 22 29 34 30 31 34 36 40 38 36 45 45 44 45 45 44 41 38 37 35 34 33 28 20 17 15 14 12 12 19 19 22 26 21 21 18 18 16 15 15 15 16 14 14 16
44 47 38 26 20 22 30 32 33 35 40 42 40 38 41 42 45 45 45 45 43 39 38 37 35 36 32 27 19 15 13 12 11 15 19 19 18 20 19 16 14 14 14 14 16 17 16 15 15
42 49 46 34 26 22 28 33 34 33 42 42 40 41 41 40 43 43 45 45 44 40 38 40 37 37 38 34 29 22 17 13 10 10 11 12 14 14 14 16 14 14 15 20 21 20 18 18 17
42 46 49 42 28 24 27 33 35 33 42 42 46 49 45 39 41 40 42 43 42 39 37 39 42 39 39 37 33 29 25 21 17 12 14 12 12 13 12 12 13 14 17 22 20 20 18 16 17
46 45 53 50 32 26 29 36 36 35 36 50 53 49 43 39 39 39 41 40 40 37 37 38 42 43 40 38 36 34 31 27 23 19 18 15 14 14 13 13 14 15 17 18 18 24 19 17 16
49 47 46 53 39 30 32 35 37 36 34 43 47 45 43 43 42 42 43 40 38 36 37 36 40 43 41 38 37 35 34 30 27 24 22 20 19 19 18 19 20 21 21 22 22 22 22 21 20
49 46 44 52 50 37 32 32 36 37 37 42 43 38 42 44 43 43 41 39 35 36 36 35 37 43 41 38 38 38 35 33 31 28 25 24 23 23 23 23 24 24 24 25 25 26 25 24 22
49 45 44 49 52 45 32 31 33 32 32 36 38 35 41 43 42 41 40 38 36 35 35 36 38 39 39 39 37 38 36 33 30 29 28 28 28 28 28 29 30 30 30 30 30 30 30 29 29
52 46 46 48 52 54 41 29 30 28 28 32 36 34 39 39 40 38 38 38 36 34 34 35 37 37 38 39 37 33 32 30 28 28 28 29 30 30 31 31 31 31 32 33 34 33 32 31 31
52 50 47 48 51 53 51 34 32 23 25 28 30 31 34 37 37 37 38 37 36 34 33 34 36 37 38 36 30 28 28 28 26 25 23 24 25 27 28 28 29 30 32 32 32 33 33 32 32
57 53 50 45 47 53 51 39 24 23 22 24 27 29 28 32 35 35 37 36 34 31 31 31 35 35 32 26 25 26 26 27 27 27 27 25 24 24 25 26 28 31 34 35 34 33 34 35 35
58 55 52 44 46 49 47 31 19 20 22 24 27 26 27 30 31 33 34 34 31 30 32 31 31 28 25 26 27 29 29 29 29 30 30 32 34 36 36 35 35 36 38 39 39 40 40 40 41
58 56 51 47 46 45 44 35 19 23 24 26 28 27 26 28 30 30 30 28 28 26 28 25 23 21 24 27 29 30 30 30 31 32 33 35 37 39 40 42 42 43 44 45 47 47 50 49 49
60 52 52 49 50 44 43 35 23 26 26 28 29 28 29 28 29 29 27 24 23 24 25 28 24 24 24 26 28 29 30 31 34 36 38 40 41 43 46 48 49 51 51 51 52 52 54 54 53
59 56 55 51 51 43 43 36 24 27 26 26 28 30 32 30 29 24 19 20 25 29 29 28 25 24 24 25 26 28 30 34 38 40 42 44 47 49 50 51 52 52 50 48 48 49 48 47 49
56 59 57 56 51 43 45 39 25 28 27 27 29 30 30 26 22 21 24 26 30 32 30 27 26 26 25 25 25 26 29 32 34 37 39 41 43 44 43 42 42 41 40 40 41 44 46 47 49
66 61 64 61 55 47 44 41 25 23 25 28 29 28 26 25 25 26 28 31 33 31 29 28 28 27 25 24 25 27 30 34 35 36 36 36 36 36 37 37 37 38 39 39 41 43 45 49 49
76 64 68 63 62 55 45 50 31 23 27 30 29 29 29 28 31 30 33 33 32 32 31 30 28 27 26 26 27 29 33 33 34 35 36 36 36 36 37 38 38 36 33 32 32 33 34 36 38
73 73 71 66 59 52 49 50 33 24 29 29 28 31 32 31 32 33 34 34 34 33 31 30 27 26 27 28 30 33 34 36 37 37 36 35 35 34 31 29 28 29 29 29 29 29 30 31 31
79 76 68 65 59 59 49 44 35 26 26 27 29 33 34 33 33 34 34 34 33 33 31 29 28 29 32 34 35 36 37 36 35 35 35 33 30 30 30 31 32 33 33 32 32 32 32 32 33
80 79 73 71 65 57 45 44 32 22 26 28 32 34 36 35 33 33 34 33 33 33 32 32 35 38 39 39 38 38 38 38 37 34 30 29 30 31 32 33 33 33 33 32 32 31 31 32 32
82 75 68 66 63 52 46 42 28 22 23 23 29 31 34 35 35 36 35 35 35 35 37 40 42 42 42 43 42 41 38 35 32 31 31 33 34 34 34 33 33 32 30 28 26 25 25 25 27
78 75 64 64 58 58 50 38 29 26 27 28 30 31 35 36 36 36 35 37 40 42 43 44 43 43 45 46 43 38 34 34 35 35 36 37 38 36 32 29 26 24 22 21 19 19 19 20 23
70 68 67 66 64 60 50 42 38 30 31 32 32 33 36 38 38 39 41 44 46 46 45 43 43 47 50 46 41 37 37 38 39 40 40 37 33 29 26 23 21 20 19 19 19 19 19 19 22
68 62 60 60 62 58 54 41 32 30 30 37 40 40 40 42 44 46 48 48 45 43 46 47 51 52 47 41 40 40 41 42 39 36 32 28 26 24 22 22 21 21 21 21 19 18 18 18 18
64 60 58 63 59 56 51 41 29 34 36 41 42 43 46 49 50 47 44 44 45 49 54 51 48 45 43 43 42 44 42 39 37 32 28 26 25 24 24 23 22 22 22 21 19 18 18 20 21

GFSSGP_prec_cthk_015.txt.gz
RH
37 29 23 14 23 29 32 32 38 42 46 47 46 39 37 42 40 40 41 39 36 33 32 30 33 35 31 31 29 27 22 17 14 12 15 18 18 18 19 20 21 21 21 21 19 19 21 23 21
43 32 25 18 28 32 30 33 39 39 41 42 42 40 36 45 43 42 42 40 37 35 33 32 32 33 28 30 27 29 21 15 13 11 18 24 24 19 19 19 19 21 22 18 13 19 20 21 21
44 39 26 23 32 31 31 33 34 33 36 42 42 39 38 43 48 46 45 42 40 37 35 33 32 34 32 31 27 23 19 14 11 11 21 29 27 20 20 20 17 17 18 17 16 16 22 22 20
40 46 32 23 26 32 32 32 30 33 33 38 41 41 38 48 49 47 46 44 43 40 37 35 33 35 38 29 23 18 17 14 11 14 21 29 29 22 20 16 16 16 17 16 15 15 15 17 19
37 45 42 29 22 23 32 28 30 32 34 35 41 39 37 48 48 48 46 45 44 42 39 38 35 37 36 31 22 16 15 13 12 17 20 23 28 23 19 16 16 16 16 16 15 14 14 15 17
38 40 49 40 30 20 26 30 31 31 35 38 38 37 36 43 47 46 45 45 45 43 40 38 39 39 35 33 30 22 16 14 12 12 18 19 20 19 19 17 16 15 15 16 17 18 16 16 16
41 40 46 47 38 24 19 29 32 33 36 42 40 38 37 40 45 44 43 44 43 43 41 37 39 42 40 39 35 31 26 22 18 13 13 17 17 15 17 16 16 17 17 21 21 22 22 22 20
44 42 41 50 45 28 21 26 32 34 35 41 39 44 45 46 42 43 43 43 41 42 41 37 38 40 42 40 38 37 33 29 26 22 20 17 16 15 16 16 17 19 17 20 23 23 23 23 23
49 46 42 48 51 36 26 30 32 35 34 41 46 52 51 49 45 44 44 43 41 42 41 37 37 39 41 41 38 38 37 35 32 27 23 23 21 20 19 18 18 18 19 20 23 26 26 26 26
53 48 42 44 52 45 33 32 35 35 34 37 51 53 50 47 47 47 47 45 41 40 39 37 37 36 40 42 39 37 36 35 34 31 27 25 25 24 23 23 24 25 25 25 25 25 26 25 25
53 46 44 41 48 52 40 33 34 35 36 34 40 47 44 43 45 47 46 45 42 41 38 37 37 37 38 39 40 38 37 35 34 32 30 28 27 27 27 28 29 29 30 30 30 30 30 30 30
53 48 45 42 46 51 51 37 31 34 34 34 36 42 43 38 45 45 45 44 44 42 38 36 37 37 37 38 38 39 37 35 32 30 29 29 29 29 30 31 32 33 34 35 34 33 33 32 31
56 51 49 46 46 49 53 45 35 29 32 33 33 38 36 37 42 42 43 42 42 42 39 36 36 37 38 39 39 38 33 30 30 28 27 26 27 27 28 29 30 31 31 31 30 31 32 32 33
56 54 51 48 47 48 49 48 40 25 28 30 29 31 33 36 37 40 40 40 40 39 38 34 33 35 38 37 36 30 29 29 28 28 28 27 27 27 27 28 29 30 32 33 34 35 35 35 35
62 60 54 47 46 46 45 42 48 32 23 21 25 27 30 33 33 32 36 37 38 38 36 32 32 36 36 36 30 27 28 31 32 34 35 35 34 33 32 31 32 36 38 40 40 41 41 40 41
64 63 59 47 45 43 41 43 46 29 18 23 23 27 30 29 29 30 34 35 36 36 33 29 30 32 31 28 28 29 32 33 35 36 37 38 39 39 40 41 42 43 44 46 47 47 47 46 46
67 64 54 51 44 43 41 38 41 27 23 25 26 29 29 28 29 31 32 32 32 30 27 25 26 26 24 28 29 32 33 34 35 37 38 40 42 43 44 46 48 50 51 51 50 49 48 46 44
64 60 54 50 47 44 41 38 41 29 25 26 27 29 30 29 28 28 30 30 29 27 21 21 27 26 30 30 30 33 34 35 36 38 40 42 44 46 47 49 50 50 49 48 47 44 42 41 40
61 62 55 49 51 46 42 37 40 30 24 27 27 29 31 31 32 33 32 29 22 18 21 28 31 31 31 28 30 32 32 33 34 36 38 40 42 43 44 43 42 40 39 38 39 38 39 39 40
65 62 56 55 51 49 44 38 39 31 23 25 28 31 30 29 31 32 27 21 22 25 29 32 33 32 29 29 30 30 31 31 33 35 37 38 37 36 37 38 38 37 36 36 35 33 30 28 29
67 59 59 60 58 54 44 37 40 34 25 24 28 32 31 30 28 25 24 25 29 33 34 34 32 32 31 30 28 28 29 30 31 34 36 37 38 38 37 37 36 34 30 27 26 26 27 27 28
69 65 61 65 66 61 48 45 42 37 25 25 28 32 31 30 27 27 29 31 34 37 37 35 34 32 30 28 26 27 28 32 36 38 38 37 36 35 34 32 29 28 28 29 30 30 30 30 31
71 69 70 68 65 56 50 49 41 37 24 25 31 34 32 31 29 30 32 35 38 38 38 36 34 30 28 26 29 32 35 37 39 39 38 36 35 32 30 31 31 31 31 31 30 30 30 29 29
68 76 70 67 62 57 49 48 43 30 25 25 29 31 33 31 32 33 34 36 38 38 37 36 33 32 30 32 35 38 40 41 40 38 35 32 31 31 31 32 32 30 27 25 24 23 21 21 21
76 79 92 80 70 58 50 49 38 30 27 27 28 31 35 33 32 34 36 38 38 38 38 36 36 35 35 37 40 41 43 41 38 34 33 32 33 33 31 28 25 23 21 20 19 19 18 18 17
88 79 78 72 67 56 52 46 32 29 28 26 25 32 35 35 35 35 37 39 40 39 39 40 40 40 41 42 44 46 45 41 37 35 34 34 31 28 25 22 22 21 20 19 18 17 17 17 17
89 90 74 67 62 60 50 41 35 33 31 32 29 31 34 35 36 37 40 40 42 44 45 46 46 43 44 46 47 47 42 38 37 36 33 32 30 27 24 23 21 20 19 19 18 19 19 19 19
81 81 83 70 68 63 53 46 43 37 36 37 34 33 35 35 37 39 42 45 48 51 51 49 47 47 50 48 44 40 40 39 38 37 35 33 30 28 23 22 22 22 21 20 20 20 19 18 19
75 80 80 70 64 58 54 45 40 37 35 35 36 35 37 39 42 46 49 52 55 52 49 50 53 51 46 44 43 43 41 40 40 36 33 30 28 25 24 24 22 22 21 20 20 20 19 20 20
65 73 70 69 64 62 58 51 40 35 32 34 38 39 42 45 48 52 54 54 52 50 54 54 51 49 48 46 45 43 42 42 39 37 32 29 27 25 24 23 23 22 21 21 20 18 16 15 16

GFSSGP_prec_cthk_018.txt.gz
RH
38 37 29 19 21 22 26 29 35 40 42 40 42 38 35 38 39 40 39 39 36 34 32 32 37 39 36 31 31 28 23 21 16 13 13 18 23 20 19 20 21 21 21 17 19 21 23 24 24
36 40 32 25 20 23 24 29 32 35 37 39 41 40 37 38 41 43 42 40 38 34 33 34 32 37 38 32 30 22 21 19 15 11 14 26 30 25 21 18 18 20 19 16 16 19 21 21 21
35 39 41 28 21 24 30 30 31 31 34 40 41 38 37 38 42 47 43 43 41 38 35 35 33 36 38 33 29 20 18 17 13 11 17 29 31 26 21 20 19 17 17 17 16 17 20 19 22
38 35 42 32 22 24 28 32 28 32 32 36 39 39 38 38 46 48 47 47 44 42 39 35 34 35 38 40 30 21 17 16 12 12 19 28 31 30 22 19 17 17 17 17 15 15 16 21 19
41 34 40 42 30 18 25 26 28 31 32 32 36 38 38 39 45 49 46 47 46 45 42 38 35 38 37 36 32 24 17 14 12 14 19 25 30 31 24 20 19 18 17 16 15 15 15 13 13
45 37 35 46 39 29 20 27 29 31 34 33 33 36 38 38 41 49 48 46 46 45 43 42 38 39 42 37 34 31 25 18 14 13 18 22 26 25 22 20 20 18 18 18 21 21 20 19 18
47 44 36 40 45 36 19 22 29 30 30 33 35 37 37 35 35 45 47 46 45 45 43 43 41 41 41 41 41 37 33 28 25 19 18 20 19 18 17 18 17 18 20 19 20 21 22 22 22
48 45 41 34 42 45 26 18 27 31 31 33 37 40 39 39 38 43 46 45 43 43 43 45 43 44 45 46 45 43 39 37 34 29 24 22 22 22 18 17 17 16 17 17 18 21 24 24 25
51 47 44 38 38 48 36 26 26 30 32 33 40 40 43 47 49 44 44 45 44 42 43 44 41 41 44 47 47 42 40 38 37 35 30 26 29 30 25 23 23 23 23 23 24 24 25 25 26
53 49 44 40 36 44 45 34 30 31 33 34 38 44 50 53 53 50 50 49 46 43 42 43 40 39 42 44 46 48 47 44 43 42 40 37 35 34 28 28 28 28 28 28 29 29 29 30 32
56 48 47 42 40 42 48 41 32 32 34 35 38 50 54 54 50 47 50 49 48 47 45 42 39 40 41 43 44 45 46 45 42 38 37 35 31 31 30 29 30 31 32 33 34 34 34 35 35
57 50 49 45 44 41 46 48 35 31 33 39 36 41 47 47 45 45 47 48 50 48 47 44 40 39 40 43 41 45 44 41 38 32 32 32 30 30 29 29 30 30 31 32 30 32 33 33 33
59 54 51 48 46 43 43 48 47 32 28 37 36 34 41 41 42 41 44 45 48 48 45 44 41 38 38 40 43 43 43 37 33 31 30 28 27 28 30 31 32 33 35 34 34 34 36 36 37
60 58 54 52 48 46 42 45 46 43 29 31 33 32 36 39 36 38 43 43 44 43 42 41 39 37 35 39 42 43 39 34 33 31 31 32 32 32 33 33 33 34 35 36 37 38 39 39 40
67 62 60 53 50 47 43 40 45 49 36 27 24 26 28 33 32 36 38 38 38 39 39 38 37 35 34 39 43 42 34 33 35 36 37 37 37 37 37 37 39 40 43 41 43 45 47 48 49
74 70 65 50 52 46 45 38 43 45 38 26 23 22 25 30 30 32 33 32 33 36 36 35 33 31 29 36 39 36 35 36 37 38 40 40 40 40 41 42 44 46 47 49 50 51 49 48 48
80 67 62 55 51 48 44 39 40 40 36 31 23 24 27 29 30 30 31 31 32 33 33 33 31 27 25 31 34 36 37 38 39 39 42 42 41 41 42 44 46 47 49 49 48 45 43 40 40
75 69 54 56 50 44 42 37 39 40 36 28 24 25 28 30 32 30 30 31 32 32 31 30 27 23 27 34 39 39 39 39 41 42 42 41 42 43 45 45 44 42 40 39 38 39 40 39 38
71 59 59 56 54 47 44 39 38 40 37 30 24 26 27 30 32 31 30 29 29 29 29 25 23 26 32 39 40 37 38 39 40 39 39 40 41 40 38 36 36 36 36 35 34 34 31 30 30
66 64 59 60 50 48 46 38 38 39 35 31 24 26 27 31 32 32 31 30 30 28 23 23 27 32 36 37 36 36 36 36 34 32 32 32 34 35 35 35 35 35 35 33 30 28 28 30 31
74 66 61 60 56 54 49 38 34 34 34 32 23 25 29 31 32 33 32 30 27 23 24 31 35 36 36 36 36 35 31 29 29 32 34 35 36 37 37 38 37 33 29 28 27 28 28 29 28
75 64 64 65 68 64 50 44 35 32 33 33 27 26 30 31 32 33 32 26 26 28 32 35 38 38 37 35 34 31 29 31 33 36 38 40 40 39 36 34 31 29 28 27 25 23 21 24 23
69 67 66 68 71 64 53 50 35 34 33 32 25 28 31 31 33 34 34 30 31 35 36 39 40 38 36 33 31 32 33 36 39 41 41 40 37 35 33 30 27 25 22 20 18 18 17 20 21
80 73 72 71 67 62 49 45 37 31 29 29 26 28 32 32 35 37 34 32 35 37 38 39 39 37 34 33 34 35 38 42 45 45 42 39 35 31 28 26 24 21 20 19 18 17 17 17 17
79 76 90 88 79 57 44 44 37 35 31 29 28 28 30 33 35 35 35 35 37 38 39 38 38 37 37 37 37 42 46 47 46 42 38 34 31 30 29 27 26 22 20 19 18 18 18 18 17
77 70 67 68 60 52 51 44 35 33 34 33 29 30 31 34 37 36 38 38 39 40 39 39 40 41 41 40 44 48 48 45 41 36 33 32 32 30 27 24 22 20 19 19 19 19 18 20 21
86 77 69 60 55 50 44 40 35 33 33 32 31 30 32 36 38 38 39 40 40 41 41 43 46 45 44 47 49 48 44 40 38 37 35 33 33 30 25 23 22 22 21 20 20 19 20 20 22
82 75 79 64 60 56 46 42 40 37 35 35 32 33 35 38 38 38 40 42 44 46 47 50 50 48 51 50 47 45 43 43 40 38 37 35 32 29 26 25 23 22 21 20 20 21 20 19 17
85 92 82 66 60 53 47 41 38 36 34 33 35 36 39 41 41 42 45 49 50 52 53 52 51 54 48 47 47 47 46 44 41 40 39 35 31 27 25 24 23 22 22 22 20 17 17 18 17
80 79 77 75 65 56 50 43 41 39 37 34 36 39 43 43 44 47 51 52 53 52 52 54 56 50 49 49 50 49 47 44 43 42 39 33 28 26 26 24 24 23 21 18 17 17 16 17 17

GFSSGP_prec_cthk_021.txt.gz
RH
35 35 34 27 24 22 25 28 38 41 40 35 38 36 34 36 37 43 43 39 36 38 37 31 34 43 38 35 33 30 23 19 18 15 13 16 21 21 20 20 22 22 22 19 18 20 24 24 27
36 35 37 35 23 28 23 30 33 39 35 37 38 38 35 38 35 41 43 40 39 41 39 37 36 37 42 38 36 27 21 19 15 13 11 17 27 28 23 22 20 20 21 18 18 21 23 22 22
39 37 36 38 27 23 33 35 35 32 32 40 41 39 37 39 36 39 42 40 42 44 42 40 35 39 44 42 38 25 20 19 16 11 14 24 29 30 22 21 19 19 18 17 16 16 20 20 20
41 41 35 36 38 27 26 36 30 28 31 36 41 40 39 39 39 41 45 47 48 47 45 38 36 39 41 44 39 29 22 18 14 11 18 27 29 30 26 22 21 19 18 17 16 14 14 14 14
44 42 38 39 39 32 20 24 25 29 31 31 36 41 41 39 38 40 46 48 51 49 47 40 38 39 39 49 43 36 29 19 13 13 19 25 29 31 30 22 21 19 18 16 15 14 16 16 14
49 44 43 38 37 43 30 21 24 28 33 32 33 35 42 41 40 40 46 51 50 49 49 45 41 41 41 43 41 38 34 29 22 16 17 18 24 27 26 20 19 18 16 16 14 19 20 20 19
50 49 46 40 38 43 42 21 24 28 29 35 32 33 44 40 38 38 44 50 50 49 48 47 43 42 42 41 42 42 39 35 32 27 23 26 22 22 21 17 16 14 14 16 14 16 20 20 20
54 51 47 43 41 38 44 30 19 29 29 31 32 36 47 37 37 35 38 47 49 48 47 47 48 46 45 42 42 45 44 40 38 36 34 29 25 23 22 21 19 18 17 18 18 20 21 22 22
55 54 49 43 43 39 41 42 28 24 29 31 30 36 37 37 39 42 43 46 47 46 47 49 49 48 45 47 46 44 44 44 41 36 35 33 32 36 34 32 26 26 26 27 28 27 28 28 27
58 54 47 43 47 44 42 42 42 25 26 31 33 37 39 39 45 51 50 50 48 47 48 49 49 49 46 46 45 45 46 45 45 45 44 40 38 37 34 30 28 28 29 30 31 31 32 31 32
58 56 50 47 49 47 39 39 45 34 25 30 35 37 39 40 51 53 53 51 51 52 50 49 49 49 47 46 45 47 46 48 45 45 41 37 35 34 33 32 31 28 29 29 30 31 32 33 34
61 54 54 53 52 48 41 38 41 42 28 32 36 38 41 48 51 55 52 49 50 51 51 50 50 50 48 47 45 47 48 48 46 42 37 35 35 35 34 34 34 34 34 35 36 37 37 36 36
67 57 57 55 53 48 44 37 38 42 35 30 34 36 42 46 51 49 47 46 46 50 51 51 51 50 49 47 45 46 50 49 48 39 36 36 35 35 38 37 36 36 36 36 36 36 36 38 40
68 60 58 60 55 50 47 38 37 40 50 30 28 33 33 38 39 43 43 44 45 49 50 49 49 48 47 47 45 48 50 51 47 39 38 38 38 38 38 39 39 39 40 42 45 46 48 49 48
69 68 63 60 60 54 51 41 35 43 50 38 25 23 28 30 36 39 40 41 42 45 44 44 44 45 45 45 50 50 50 49 44 41 42 42 42 43 44 46 48 48 48 48 50 52 53 52 52
66 78 72 63 58 52 52 39 37 40 43 40 31 23 24 25 30 36 35 35 39 39 39 37 37 36 38 40 45 48 48 47 46 44 43 44 47 47 48 48 48 49 50 53 53 50 46 43 40
75 68 67 70 58 52 52 40 36 38 39 40 37 29 26 26 25 29 32 32 36 36 35 32 34 35 35 38 39 42 43 47 49 48 45 46 48 47 47 47 48 50 49 46 42 38 37 37 36
63 67 68 65 57 54 51 44 39 39 36 38 37 34 28 27 28 29 31 34 36 36 34 34 33 34 38 40 38 38 46 51 51 48 47 48 46 44 44 43 41 38 37 36 35 36 36 34 32
69 71 68 58 55 57 52 45 37 37 36 39 38 33 26 28 29 31 33 35 34 34 33 34 34 35 37 36 36 41 46 46 45 45 44 42 37 36 35 34 34 34 36 38 37 35 31 27 27
70 74 62 60 59 58 51 43 38 38 37 38 40 36 27 28 30 32 35 35 34 33 31 31 32 33 32 33 38 42 43 42 38 36 34 31 30 31 35 38 40 40 39 35 29 26 24 24 24
86 75 59 64 64 57 52 45 38 36 36 37 37 36 29 30 32 31 33 34 33 31 30 28 27 25 34 36 39 39 37 37 35 32 30 33 37 41 42 41 37 33 28 26 22 20 19 20 19
82 70 64 68 68 63 59 47 41 35 34 33 34 36 33 30 31 33 33 34 33 30 28 26 28 30 35 39 40 39 36 34 31 33 36 39 42 42 40 36 31 28 25 21 20 19 18 19 20
72 70 69 73 68 69 65 58 37 40 33 32 32 35 36 30 30 35 34 34 34 32 28 30 33 35 38 38 36 34 33 33 35 37 41 45 42 38 33 30 28 24 22 21 19 18 18 18 21
77 74 78 76 72 72 54 54 40 41 35 31 32 36 35 32 32 35 34 35 34 34 32 35 37 39 38 37 36 35 36 38 41 45 44 41 35 30 27 26 24 22 20 20 20 20 19 19 19
85 86 95 91 81 58 51 53 46 36 31 29 30 33 34 32 34 35 35 36 38 35 36 38 39 39 39 38 39 38 39 44 48 45 39 34 30 30 29 27 25 22 22 22 21 21 20 20 21
89 79 69 73 63 52 51 48 41 36 37 33 32 33 34 33 34 34 35 36 37 39 40 40 40 40 41 43 41 41 48 50 45 40 37 35 33 32 31 27 26 24 24 23 22 22 22 22 21
88 75 71 63 53 54 50 45 38 34 36 34 33 35 35 34 36 38 37 37 39 41 41 42 41 43 46 44 47 50 47 44 42 41 40 37 35 34 31 27 26 24 24 23 23 22 20 19 19
77 69 75 61 60 55 50 46 45 35 32 34 34 37 37 34 38 39 39 38 38 41 43 45 46 49 48 50 51 46 44 43 44 43 40 36 34 30 27 26 26 25 25 24 21 20 20 20 17
87 77 70 60 56 54 51 46 42 37 35 34 34 35 37 37 40 43 42 41 43 46 48 50 50 50 52 53 48 46 46 46 45 44 39 35 30 27 27 27 27 26 23 21 22 22 20 18 17
78 72 67 62 61 52 49 49 41 38 36 34 36 38 41 41 43 46 47 46 46 50 51 51 53 56 53 50 47 47 48 48 46 42 39 32 29 28 28 28 25 23 23 24 24 21 18 17 17

GFSSGP_prec_cthk_024.txt.gz
RH
34 33 34 36 28 23 26 23 31 46 54 47 40 39 37 36 38 44 44 42 40 37 34 32 35 40 40 38 35 33 26 21 18 16 13 16 16 17 18 17 19 19 20 18 19 22 23 26 27
36 35 35 37 34 29 28 24 36 34 41 34 37 40 39 41 36 38 44 40 39 39 37 34 38 42 42 40 39 32 24 21 19 14 12 17 21 21 20 18 17 16 16 16 16 20 22 25 25
40 39 38 39 41 30 28 37 41 35 32 34 38 39 42 42 37 39 38 38 42 41 42 41 40 39 44 41 42 37 24 22 18 13 15 21 26 28 21 20 18 17 16 16 15 15 18 20 22
43 41 42 37 38 38 26 29 36 33 32 33 37 42 43 45 41 40 40 40 45 44 45 44 40 41 41 38 38 34 29 23 17 13 18 21 26 29 24 23 21 19 17 15 15 14 13 14 14
47 46 45 43 39 40 32 23 29 28 28 29 33 44 43 42 40 41 40 42 44 48 49 44 39 42 42 38 38 36 34 30 23 16 19 19 24 28 29 22 20 19 18 15 12 12 13 13 12
51 48 49 46 38 37 41 36 20 21 27 30 32 35 44 42 41 40 40 41 45 48 48 44 40 42 44 42 40 40 40 36 31 28 28 25 22 22 25 18 16 13 11 11 11 11 13 13 13
54 52 51 47 42 42 51 39 28 24 28 32 33 33 45 43 39 43 42 40 42 51 48 46 43 43 46 43 40 39 39 39 37 34 32 34 32 29 27 23 17 15 13 13 14 15 15 17 18
52 57 52 49 48 44 43 38 35 23 27 30 31 34 45 38 38 39 41 42 40 49 49 48 45 44 46 42 38 38 36 40 40 38 36 34 33 33 32 29 25 24 24 24 25 25 25 25 25
55 55 55 50 48 45 43 42 38 34 23 28 29 30 38 34 36 37 40 41 42 45 49 47 48 50 49 48 44 43 39 35 36 38 38 37 33 35 36 33 30 28 28 27 27 28 29 29 30
54 54 45 47 48 48 46 45 38 40 33 23 32 33 37 34 37 37 39 44 49 48 49 49 48 50 51 52 47 43 39 41 40 42 42 41 36 34 35 33 29 28 27 28 28 29 29 29 29
54 51 46 42 47 51 50 46 41 39 42 26 28 37 36 36 35 39 41 49 51 51 50 49 49 49 49 52 49 45 43 41 43 44 45 38 35 32 33 34 34 32 30 30 31 31 32 33 33
57 50 48 42 49 55 52 46 43 37 37 39 29 34 35 34 37 39 46 52 54 53 51 52 50 51 50 52 53 50 49 44 45 47 44 36 35 35 34 36 36 35 34 33 34 35 36 38 40
57 56 52 49 47 52 56 50 43 39 34 44 32 29 32 35 36 39 45 52 54 52 50 50 51 50 52 54 55 52 53 48 48 50 47 39 38 37 37 38 38 38 39 41 43 45 46 47 47
59 59 56 55 51 50 53 49 46 38 36 38 42 29 29 34 35 43 48 52 54 50 50 50 51 50 53 56 56 55 54 53 50 51 48 44 42 41 40 41 45 50 49 48 48 48 47 47 49
57 67 64 53 52 52 53 49 46 39 38 34 44 35 24 28 30 39 41 46 43 45 46 45 48 49 48 53 54 53 54 53 52 50 48 47 47 46 45 48 51 50 49 48 48 48 48 45 39
66 65 65 43 52 50 55 51 45 45 42 34 40 39 28 25 28 29 33 37 38 39 40 42 42 42 44 47 51 52 54 50 49 49 49 51 49 46 47 49 50 49 48 48 48 43 38 35 35
63 63 54 55 53 52 51 50 44 45 40 35 38 41 33 30 26 26 26 32 35 35 37 38 37 35 36 42 48 49 50 50 46 44 48 51 50 49 48 47 45 41 40 37 34 33 34 35 34
55 64 53 56 50 56 53 50 48 46 42 35 34 37 37 33 31 27 25 27 33 34 35 36 35 35 37 39 44 46 47 44 41 47 53 52 48 46 43 37 32 30 32 35 37 37 36 33 28
46 58 67 57 55 59 54 49 50 49 43 37 34 36 38 37 33 28 28 28 31 36 37 37 35 35 36 38 39 40 40 40 46 49 47 43 39 34 29 28 31 35 38 38 36 30 26 23 19
52 59 69 70 60 61 56 50 53 48 42 35 32 35 39 36 33 29 31 32 35 37 39 38 38 37 37 37 36 36 39 43 44 40 36 33 32 31 33 34 37 38 37 34 29 24 21 18 18
53 61 61 76 63 65 66 55 52 44 38 35 33 36 41 36 36 31 32 33 35 37 36 36 36 35 36 34 31 32 36 39 38 35 35 34 34 35 36 37 38 36 30 25 21 19 18 17 17
62 43 69 87 77 76 68 62 47 42 37 34 34 35 39 36 38 31 33 33 33 34 33 34 33 33 30 31 33 36 37 37 36 36 35 36 38 38 37 36 31 26 23 21 20 18 18 18 18
49 46 77 85 89 77 76 69 48 44 39 36 34 33 37 36 41 37 33 33 33 34 34 34 34 33 33 36 38 37 37 36 36 37 39 39 41 40 35 28 25 23 22 21 20 20 20 20 20
53 72 88 80 83 90 70 68 52 44 38 38 35 33 35 37 41 38 33 34 35 35 35 35 35 35 35 36 37 38 37 38 40 40 42 43 41 34 29 28 28 25 22 21 22 22 22 22 21
75 93 98 99 97 89 56 65 53 42 40 37 34 34 35 37 42 39 34 35 37 36 35 36 37 37 37 38 39 39 41 41 41 44 46 41 37 34 31 30 25 23 23 24 24 24 23 22 20
79 98 94 88 92 70 56 65 51 45 39 37 34 33 34 37 40 37 34 36 36 36 37 39 39 39 40 40 42 45 43 42 47 45 41 39 38 36 31 26 24 24 25 25 24 24 21 20 21
94 98 89 68 52 56 56 51 45 44 42 38 36 35 36 36 37 38 36 36 36 38 39 40 41 41 41 43 46 44 45 50 44 42 41 41 39 34 28 25 25 26 26 25 23 21 21 22 21
91 85 84 70 67 68 63 55 47 43 38 36 37 38 38 38 38 39 40 39 39 39 40 41 42 44 45 48 46 48 53 46 43 43 43 42 38 31 25 26 27 27 26 24 22 22 23 21 19
98 94 78 61 58 69 66 59 46 40 36 34 35 38 41 41 39 40 42 42 40 40 42 44 47 48 48 47 52 55 48 46 44 45 46 43 34 28 26 27 27 26 24 24 24 24 22 20 17
88 79 72 65 67 66 57 55 45 43 38 37 37 40 41 40 40 42 44 45 45 45 46 48 50 50 50 53 58 51 49 47 49 50 46 39 33 28 28 27 26 25 26 26 25 22 19 16 14

GFSSGP_prec_cthk_027.txt.gz
RH
35 34 32 32 34 28 25 22 35 40 48 44 39 39 42 38 35 43 43 43 39 38 34 33 36 36 41 41 39 31 26 21 19 15 13 17 16 15 16 17 17 18 18 15 16 18 19 23 24
38 37 35 34 37 30 27 27 34 34 41 46 47 41 40 42 41 40 44 39 39 39 35 35 38 40 39 38 39 31 25 21 18 16 13 17 20 19 18 18 15 14 14 14 13 16 17 18 21
41 39 39 40 40 37 30 28 32 33 34 36 44 37 40 42 40 42 42 37 37 39 39 37 41 43 42 37 38 33 30 24 18 14 17 19 24 26 19 20 19 16 15 14 13 14 15 16 18
44 42 42 41 39 36 34 29 31 33 36 34 34 39 43 45 43 41 39 39 40 41 41 40 42 45 43 39 38 37 33 31 25 17 19 20 23 26 22 19 17 16 15 13 12 13 13 13 13
45 47 47 45 41 36 39 34 30 29 33 34 34 42 44 46 43 41 40 40 40 40 43 44 44 44 44 43 40 39 36 36 32 30 29 25 21 22 22 19 16 15 13 11 11 11 11 11 12
47 47 52 48 42 38 41 36 35 27 28 29 32 37 44 48 45 43 43 41 40 41 42 45 44 44 44 45 43 39 38 37 36 35 35 35 35 31 28 25 20 15 13 12 13 13 13 14 14
47 50 51 49 44 43 44 42 40 37 23 29 31 34 41 44 42 42 42 42 41 41 42 45 46 45 45 46 45 40 38 37 37 38 37 35 36 36 37 34 27 23 22 22 22 22 22 22 22
49 52 48 49 47 44 46 42 41 38 31 28 31 36 39 38 40 41 41 44 43 40 38 48 46 46 44 45 44 41 37 35 36 37 37 37 35 33 31 30 30 30 29 28 28 28 29 30 31
51 56 49 43 46 43 49 47 43 37 34 27 30 33 37 34 36 36 37 39 42 40 35 48 49 47 45 46 46 47 43 36 33 33 35 37 34 33 33 30 29 29 29 30 31 31 31 31 31
53 54 47 40 41 44 48 50 45 40 37 36 27 34 38 35 35 33 35 37 39 39 41 45 51 48 46 49 49 49 46 41 37 37 39 40 36 33 34 33 31 31 32 31 31 32 32 32 33
48 51 47 42 42 44 49 54 48 42 39 37 33 33 41 37 37 33 35 34 38 43 46 46 48 47 47 49 51 50 50 45 41 40 42 41 37 35 34 34 34 34 33 33 32 32 33 34 36
53 47 49 45 44 43 46 50 48 44 40 37 41 33 35 34 34 33 36 36 36 48 53 54 52 47 48 48 50 50 51 49 46 44 43 42 39 39 38 37 35 34 34 36 39 41 43 44 44
53 51 50 43 44 42 46 47 46 46 43 41 34 41 31 30 32 33 34 36 37 48 53 55 52 50 48 50 49 52 53 54 53 50 49 46 40 40 41 39 38 39 41 43 45 46 46 44 42
51 51 48 49 47 45 47 46 44 42 44 42 36 32 38 31 25 27 33 35 39 46 53 54 51 48 48 51 53 55 57 56 55 53 52 48 45 44 45 46 44 46 47 48 46 45 45 44 44
49 50 47 44 49 50 53 47 45 37 46 42 37 32 36 39 25 24 30 35 41 48 52 53 49 47 49 53 55 56 58 59 55 53 50 49 48 47 49 50 49 50 48 47 47 45 42 37 30
53 52 54 49 49 50 61 48 44 39 45 43 39 36 34 37 34 24 28 32 41 46 50 48 45 45 48 50 53 54 57 57 53 50 50 48 47 48 51 51 51 51 50 46 38 31 29 31 33
62 63 62 55 54 58 59 51 44 44 46 45 42 38 34 35 38 27 26 27 31 36 40 40 40 41 45 47 48 49 52 51 51 51 50 48 50 54 54 51 49 43 34 29 30 31 33 33 31
60 63 59 58 45 59 58 52 44 42 44 44 43 39 36 35 39 34 29 24 26 28 34 36 36 36 39 40 47 47 47 46 48 48 48 53 55 54 46 37 33 32 31 33 33 34 32 28 24
55 57 62 53 55 58 51 56 44 42 46 46 43 39 37 33 36 38 33 28 27 29 31 36 37 37 39 40 42 44 44 47 47 50 52 50 43 36 34 35 34 34 34 33 32 30 25 21 18
60 60 54 47 55 65 57 55 40 43 44 46 45 40 39 34 36 40 37 31 31 33 34 34 39 40 40 40 41 43 44 42 42 44 41 37 36 37 37 35 35 34 31 28 26 22 20 19 18
65 66 50 47 53 61 66 63 50 43 44 46 46 42 40 35 35 39 40 32 33 37 39 41 43 42 39 39 40 39 36 36 37 36 37 39 39 37 36 35 34 32 29 25 21 20 19 18 18
72 53 52 49 61 73 71 76 53 47 39 45 46 42 39 37 39 42 40 32 32 38 41 44 44 41 40 38 36 33 33 35 36 38 40 40 39 38 39 38 34 28 24 21 20 20 20 20 21
65 63 62 61 61 73 75 84 54 46 43 43 41 41 37 36 38 40 40 34 31 35 38 39 38 39 36 35 36 35 36 37 39 41 41 42 42 42 40 36 29 25 22 21 21 22 22 22 22
67 78 70 64 68 88 69 85 67 47 39 37 39 40 38 38 37 38 42 42 35 33 35 36 37 37 37 39 41 38 39 41 42 42 43 42 40 40 38 33 27 23 22 23 23 23 23 23 22
82 93 88 84 80 69 65 86 78 43 38 37 42 40 39 38 37 39 43 43 36 33 34 37 37 38 39 41 42 41 42 44 45 45 45 43 42 40 37 30 25 24 23 23 23 23 23 22 21
77 87 84 78 58 51 78 98 57 47 43 42 43 41 41 40 39 41 42 42 37 33 34 37 37 39 41 42 43 44 45 47 47 47 46 45 43 40 35 29 25 24 24 23 23 22 22 23 23
75 92 55 76 79 78 77 71 51 46 45 47 43 42 40 38 38 39 43 39 36 34 35 36 38 41 43 44 46 47 49 48 48 51 48 45 43 40 35 28 26 25 23 22 23 24 25 24 23
82 74 80 91 96 98 80 58 46 43 46 46 42 40 40 38 37 38 39 38 37 37 38 40 42 43 44 46 50 52 49 50 57 53 49 46 44 42 34 27 25 23 23 24 25 26 24 22 18
82 88 79 88 84 96 78 58 47 48 45 45 42 40 41 40 39 38 40 41 42 41 41 41 42 45 49 52 54 51 51 60 61 54 49 49 48 38 29 26 24 24 25 27 26 23 20 17 14
88 83 80 87 98 92 66 55 47 48 43 39 38 38 40 41 40 41 43 44 45 44 44 45 48 51 53 54 55 57 58 65 61 54 52 50 41 34 27 25 25 27 29 26 22 19 15 14 14

GFSSGP_prec_cthk_030.txt.gz
RH
34 33 32 31 32 31 26 23 31 35 43 41 41 45 46 47 42 44 42 45 42 40 37 35 38 38 38 37 34 28 23 18 17 15 12 14 14 15 16 17 16 18 14 13 15 19 19 22 22
37 35 35 34 36 35 26 24 32 34 38 43 49 46 45 46 42 38 37 37 39 36 35 36 40 40 41 40 36 32 28 22 18 16 16 20 18 17 17 15 14 14 14 13 13 16 18 21 21
36 37 38 39 40 38 30 26 31 34 33 40 46 49 46 41 41 39 38 36 37 36 35 37 41 43 44 42 38 34 33 28 25 20 18 21 23 21 17 17 16 15 15 13 13 14 16 17 18
37 37 40 41 39 34 32 33 33 32 32 37 40 46 48 44 40 40 37 37 39 39 38 39 44 44 46 45 41 37 36 33 31 29 33 28 24 22 21 17 15 15 15 14 13 13 13 13 14
39 38 42 44 41 34 34 37 33 31 34 36 41 40 44 46 40 38 38 40 39 39 39 40 44 46 49 47 43 40 36 34 33 33 36 38 38 32 26 22 17 14 11 11 12 12 13 13 14
41 39 45 42 41 37 39 39 33 30 33 35 37 38 39 45 45 44 44 43 41 40 40 42 44 47 51 47 43 44 40 36 34 34 38 39 38 38 38 35 29 21 18 17 17 18 19 19 20
41 43 43 40 40 42 41 40 36 35 37 35 33 37 37 42 42 43 45 43 43 41 42 40 40 44 49 48 44 45 43 37 35 34 36 38 39 37 35 34 31 29 28 28 28 27 27 27 28
45 46 43 41 40 42 44 43 39 38 39 36 29 35 34 38 41 44 44 43 44 44 43 40 38 42 48 47 44 44 43 40 35 33 33 34 34 33 32 31 30 30 30 30 31 32 32 32 32
48 53 47 39 38 37 45 47 44 40 39 38 32 32 33 36 38 41 41 42 42 43 43 40 38 46 49 47 44 46 47 45 37 32 31 35 33 32 33 32 31 30 30 31 31 32 32 33 33
51 54 46 34 34 34 45 50 50 44 41 39 36 33 34 37 37 36 34 36 35 38 42 41 41 44 51 49 46 49 49 47 43 38 37 39 38 35 34 34 33 33 33 33 32 32 32 32 33
47 48 43 36 34 36 40 47 52 47 44 42 39 39 36 36 36 35 36 37 35 38 41 43 47 48 50 48 47 49 50 49 48 44 43 41 39 37 36 36 36 35 34 34 35 36 39 42 43
46 42 46 42 38 40 40 44 48 45 44 46 41 41 42 36 35 33 34 34 32 36 42 45 52 54 53 51 50 51 52 53 50 49 48 47 43 40 38 39 40 40 40 40 42 43 44 43 45
48 43 42 43 43 43 43 44 47 42 45 49 46 42 42 40 36 36 34 31 30 32 39 46 58 57 56 52 51 52 53 52 53 54 53 49 46 44 44 44 45 46 47 48 46 46 46 46 46
44 46 45 45 45 45 45 42 47 43 43 47 48 44 41 37 34 35 35 30 30 30 36 46 59 58 56 53 51 53 56 54 57 56 53 50 50 48 48 47 47 49 52 49 47 48 47 46 41
50 49 47 45 46 49 51 45 42 43 43 43 45 44 40 37 32 37 34 23 26 31 36 41 58 60 58 54 54 57 60 59 60 56 52 49 50 51 50 46 48 52 53 51 49 47 43 37 31
57 54 56 44 47 47 55 44 41 41 41 41 42 44 41 38 35 34 37 29 25 29 35 43 54 58 56 53 58 59 59 60 56 55 50 51 52 51 53 55 55 54 51 45 39 34 31 30 30
64 64 58 55 46 52 52 42 43 44 44 41 40 42 44 40 36 32 38 35 26 28 33 43 52 54 52 52 56 58 58 58 57 53 52 50 52 53 57 57 53 43 37 35 34 31 31 30 27
58 60 58 57 53 52 53 47 47 43 43 41 41 41 44 41 38 35 37 37 30 25 28 37 45 48 48 50 52 56 59 58 53 51 51 51 53 56 54 41 36 37 36 33 31 30 26 21 19
57 60 60 55 57 60 58 54 51 48 45 42 39 39 43 44 40 36 36 39 34 27 25 27 30 36 41 45 48 56 54 51 50 52 50 52 50 40 38 38 39 37 32 31 29 24 19 18 18
63 64 57 54 52 58 61 57 52 45 39 41 39 41 45 45 42 38 36 38 38 32 29 28 29 33 39 43 48 52 52 52 53 51 46 39 37 38 39 39 37 35 34 30 22 18 19 20 20
61 65 63 61 50 47 54 50 50 38 40 41 39 40 46 44 42 39 35 38 41 34 31 32 35 38 40 45 49 50 53 53 48 40 35 37 40 41 41 40 40 37 30 22 22 21 21 20 20
72 63 64 62 63 65 64 63 48 43 41 42 36 38 42 45 42 39 36 39 44 39 35 35 38 43 47 47 48 46 46 43 38 35 38 40 42 43 43 41 38 30 24 22 22 22 22 21 21
75 74 72 72 69 66 53 71 46 45 42 39 34 34 42 44 42 39 37 43 46 42 35 38 40 43 44 44 41 41 39 39 40 41 42 43 44 44 42 38 33 27 24 23 23 23 22 21 22
84 88 87 86 82 87 49 58 42 42 38 38 35 35 41 46 43 39 40 46 49 48 43 39 40 42 42 39 37 38 40 42 45 45 45 46 46 44 41 37 33 27 25 24 24 23 22 21 20
87 94 97 98 97 71 50 59 36 37 33 37 37 38 40 45 43 40 41 45 48 52 49 43 39 38 37 37 38 41 44 47 47 47 48 47 47 45 42 38 33 27 25 24 24 23 21 20 22
88 88 95 95 94 63 66 67 39 27 33 44 39 39 45 46 43 42 43 45 48 49 48 40 34 37 39 39 41 44 47 48 49 49 49 50 49 48 43 38 31 27 26 25 23 22 22 24 25
86 96 63 94 86 90 62 49 33 31 37 48 41 43 44 47 43 44 45 46 48 48 47 40 36 39 40 40 43 46 49 51 52 52 51 54 56 50 44 36 32 30 27 25 23 23 25 26 24
73 78 95 97 96 88 65 54 29 25 41 50 44 43 51 49 48 48 48 48 48 49 44 40 39 39 41 43 46 48 51 56 56 53 56 63 60 50 41 36 32 29 28 24 24 27 26 23 19
97 88 86 72 72 81 77 55 29 32 46 44 49 53 51 48 46 46 46 46 45 43 40 39 41 42 44 46 49 54 58 61 58 58 62 69 60 49 42 35 31 30 25 26 28 26 22 18 16
83 86 73 78 69 65 83 64 42 41 43 47 55 55 52 50 46 44 44 44 43 42 43 45 44 45 48 51 56 58 61 63 63 66 67 70 57 44 38 34 31 27 29 28 26 21 18 16 16

GFSSGP_prec_cthk_033.txt.gz
RH
34 33 32 31 32 32 27 23 25 33 36 41 45 42 46 48 46 48 47 47 43 42 39 38 39 39 38 35 31 28 25 20 17 16 14 13 12 11 12 16 16 15 13 13 16 19 23 24 24
33 35 34 34 36 36 31 22 29 34 37 42 46 45 46 51 50 48 45 43 41 39 35 36 40 41 40 38 35 33 30 27 23 18 19 22 21 19 14 13 13 14 15 14 13 17 20 22 23
33 32 33 38 41 39 32 26 29 34 35 41 45 45 45 47 50 49 47 41 36 35 35 36 40 43 43 40 39 37 34 31 29 27 30 27 27 22 18 17 15 16 15 14 13 13 16 18 19
34 34 33 36 39 37 32 30 30 33 32 34 43 46 45 46 47 47 42 38 38 38 36 39 42 44 44 44 43 41 37 33 31 32 36 37 39 35 26 18 15 14 12 12 12 13 13 13 13
36 35 39 38 35 36 33 33 32 32 31 30 34 41 44 48 46 44 39 37 40 40 37 37 42 45 47 46 46 44 41 36 32 31 38 40 40 44 37 31 25 19 15 14 13 13 14 15 15
39 37 42 37 30 34 37 36 36 32 31 33 34 37 42 41 44 43 40 40 42 41 38 37 41 45 48 49 49 45 44 40 34 33 36 39 42 47 39 36 34 30 27 25 24 24 23 23 23
39 40 40 35 31 33 34 39 39 35 33 37 37 36 38 40 41 45 43 45 46 44 42 41 41 42 48 51 50 47 45 44 38 33 33 36 38 41 39 36 32 31 31 31 31 32 31 32 32
40 45 43 38 33 30 34 39 42 38 36 37 38 38 34 37 39 43 45 45 46 45 46 46 44 40 44 49 50 49 46 45 42 36 31 32 35 34 33 30 30 30 30 30 30 32 32 33 34
44 50 45 37 36 29 35 39 43 44 40 39 39 39 35 32 35 38 42 45 45 46 46 46 44 41 40 48 52 51 49 49 46 40 35 34 33 33 36 34 34 32 34 33 33 34 34 35 35
48 49 41 37 36 33 36 41 45 46 46 43 43 42 37 35 33 35 36 38 40 40 41 44 43 42 42 45 54 52 54 52 49 46 43 41 39 38 37 35 36 37 37 36 35 35 36 37 40
45 46 41 40 40 38 37 40 43 45 48 47 46 45 41 39 36 32 33 36 37 36 38 42 46 47 49 49 51 55 54 51 52 51 50 47 45 43 40 37 38 40 39 40 40 41 42 44 43
47 41 44 44 45 45 41 39 42 43 43 48 49 49 46 44 40 37 32 33 36 37 39 41 47 50 56 56 56 58 55 55 54 56 55 53 50 48 45 42 41 43 43 45 46 48 46 46 46
50 46 44 43 45 46 46 42 44 41 44 46 49 50 49 46 43 40 39 34 29 31 35 39 46 50 57 62 60 61 58 58 59 59 59 56 55 52 49 46 45 46 43 47 51 51 49 47 45
47 45 44 46 45 44 45 42 44 38 41 42 43 49 49 47 43 41 40 40 36 27 30 34 41 50 58 65 62 62 61 62 62 58 58 58 56 53 51 50 49 48 46 50 52 50 47 45 42
52 50 45 45 43 45 42 38 35 36 39 42 40 41 48 48 45 41 39 36 38 30 26 32 36 45 57 65 64 64 63 64 61 59 61 59 56 52 52 51 50 47 51 52 50 46 41 39 35
59 57 55 40 40 43 46 34 35 35 33 36 39 39 41 47 44 40 37 34 38 37 24 28 34 44 53 65 67 67 63 65 64 63 59 60 57 53 52 52 52 52 51 46 42 37 36 35 32
62 62 59 52 43 46 49 40 37 36 38 33 33 35 38 42 44 40 38 35 35 39 31 27 34 44 52 61 67 67 63 65 64 64 61 58 57 54 53 52 52 43 38 37 37 36 32 28 24
59 63 64 60 52 53 49 44 45 43 44 41 36 35 36 36 39 43 40 37 35 39 38 29 32 40 51 60 62 65 63 63 64 63 61 59 56 52 53 46 37 37 38 36 34 32 28 22 18
61 64 64 61 57 56 53 53 46 44 44 40 38 37 36 36 38 42 42 39 37 39 40 33 32 37 43 54 56 58 62 64 66 61 59 55 53 49 35 35 38 38 37 36 32 26 20 17 17
69 69 67 61 59 56 50 45 43 41 38 40 37 33 34 36 36 40 44 40 37 41 42 37 31 32 36 41 49 55 60 61 60 57 53 57 45 34 37 40 40 41 39 32 24 19 18 19 20
71 70 70 65 58 53 54 39 32 30 33 33 32 31 30 32 34 39 43 42 38 40 43 39 33 32 33 37 46 53 56 59 61 57 55 46 36 39 42 43 44 40 33 25 19 18 20 22 23
76 70 72 70 75 73 54 54 35 31 29 30 29 29 31 31 33 37 42 43 40 41 45 42 36 36 38 41 44 48 53 56 58 55 45 40 43 45 45 46 43 36 29 23 20 22 24 24 22
77 79 83 84 82 77 57 68 41 33 28 28 34 31 28 29 32 34 42 45 43 44 47 47 43 43 42 47 51 53 55 56 51 42 41 45 48 48 48 46 40 35 28 23 23 25 25 23 21
82 89 92 97 91 92 64 69 42 32 28 27 29 32 30 32 32 35 43 46 45 45 51 51 48 45 47 48 48 48 47 44 40 41 45 49 51 50 48 45 43 36 29 26 26 25 23 24 26
74 97 97 98 98 82 69 73 43 30 29 29 29 32 34 35 33 35 42 48 46 49 57 57 54 49 46 44 43 43 41 40 43 46 49 52 52 51 50 50 44 37 30 28 25 26 28 27 27
67 86 95 96 91 83 70 72 42 32 24 22 27 35 37 37 35 37 46 49 46 50 57 60 60 56 47 41 40 40 41 45 47 50 52 54 52 51 53 53 46 38 31 28 28 29 28 28 26
81 86 70 93 95 97 75 50 37 34 31 27 31 32 35 37 38 41 49 49 48 51 56 60 62 59 48 40 41 42 44 48 50 54 56 55 55 53 53 54 48 38 33 30 30 31 30 26 26
85 76 93 95 93 95 74 68 42 33 26 17 20 36 41 42 43 46 52 51 50 53 58 61 60 53 46 43 43 44 48 51 54 57 59 61 57 57 55 56 47 35 31 32 33 30 26 27 26
96 97 84 80 89 89 79 52 45 42 28 21 26 38 44 48 51 53 52 51 54 55 56 57 55 51 47 45 46 47 51 54 58 61 64 64 62 61 57 55 38 32 37 34 30 28 27 28 23
88 92 92 85 73 68 80 53 45 50 36 34 38 48 50 55 56 54 54 55 57 56 56 56 52 47 47 48 49 52 56 58 63 66 68 66 66 63 56 46 35 39 34 31 29 29 28 23 19

GFSSGP_prec_cthk_036.txt.gz
RH
32 32 33 31 33 32 30 22 24 28 29 37 47 47 50 46 46 49 45 47 45 43 39 40 42 41 37 35 32 27 24 22 18 16 15 15 15 15 12 13 17 14 13 14 19 20 25 26 28
30 30 33 34 38 38 33 24 26 29 29 34 41 49 50 53 52 50 47 46 44 43 39 37 42 41 40 38 36 33 30 27 26 24 20 23 20 16 14 13 14 14 14 13 15 19 22 24 24
31 31 31 33 40 40 34 27 26 30 33 36 38 43 46 47 48 48 50 49 46 42 36 36 40 41 43 42 39 38 35 33 30 30 34 35 31 23 18 16 14 14 13 12 13 14 17 18 18
32 33 33 35 33 34 33 30 29 29 33 35 40 42 43 45 48 51 51 49 48 46 40 37 41 44 44 45 43 42 40 38 32 31 37 40 44 40 33 25 20 16 13 11 11 11 12 13 13
34 34 37 37 32 29 33 34 33 31 32 34 36 39 42 42 44 47 48 48 47 42 39 39 41 44 45 47 46 46 44 42 35 32 36 40 46 46 38 36 33 28 25 22 20 19 18 19 19
37 35 40 37 30 30 34 34 35 34 31 31 36 38 38 40 42 46 49 47 46 41 40 41 41 42 45 48 48 48 47 44 40 33 35 39 42 47 44 39 35 31 30 30 31 31 31 30 30
37 40 41 36 31 30 32 34 34 38 36 32 36 39 38 39 40 44 46 46 46 44 45 45 43 43 44 47 50 51 51 47 42 38 35 36 41 47 40 37 33 31 31 31 31 31 32 33 34
40 44 41 36 32 31 30 33 35 36 37 36 37 39 38 37 38 40 42 45 47 47 48 47 45 45 44 45 48 52 53 51 45 43 38 35 37 40 39 34 32 34 33 32 33 34 34 35 35
42 48 43 37 36 31 30 34 35 38 40 38 39 39 38 38 38 38 40 42 45 47 48 48 47 46 44 44 45 51 53 55 50 46 44 39 35 35 36 36 37 36 37 37 37 36 36 37 36
46 51 42 36 34 32 34 36 40 40 43 44 44 42 40 40 40 34 33 37 43 45 46 47 47 47 44 43 46 47 55 58 55 49 48 47 42 42 42 39 38 38 39 41 41 41 41 43 42
46 47 40 37 39 38 37 36 40 41 42 43 48 48 46 45 42 38 33 35 39 42 42 42 45 46 47 47 48 49 52 59 55 53 54 54 51 48 45 43 42 41 42 44 43 45 47 49 47
45 42 40 40 40 41 42 41 41 40 38 43 45 49 48 46 44 40 38 34 35 39 40 41 43 47 51 52 54 54 56 58 59 57 56 59 57 54 50 48 46 45 46 49 48 46 50 50 49
48 44 42 41 39 37 40 42 42 39 38 41 43 46 49 48 46 44 42 39 34 32 37 42 44 46 51 55 59 62 64 63 62 62 60 61 61 59 56 53 50 48 50 50 50 49 50 49 46
51 48 45 43 42 41 40 38 41 32 36 38 40 43 44 50 48 45 43 40 40 37 31 34 38 42 48 53 62 69 70 69 67 66 62 59 61 59 57 55 53 52 52 51 50 52 50 45 42
54 54 49 44 40 41 40 38 37 32 31 34 37 39 43 42 48 46 45 42 39 37 39 32 32 37 42 50 58 70 74 73 73 68 67 64 63 62 58 54 52 53 52 51 50 44 44 39 36
56 57 57 45 41 39 42 38 34 33 31 29 32 35 38 38 38 46 46 44 41 38 36 40 30 30 38 48 57 66 78 76 76 70 68 66 63 61 59 55 54 53 49 44 41 38 38 36 34
51 57 57 53 49 49 48 44 36 35 33 33 34 33 33 36 36 38 44 44 40 37 33 38 38 28 33 46 58 65 75 77 75 71 68 68 62 59 59 55 53 46 37 36 37 38 37 33 27
56 61 54 53 49 50 50 49 41 39 39 37 35 33 34 35 34 37 39 42 41 37 34 35 39 32 32 46 56 64 72 75 75 72 69 70 67 60 60 54 40 33 35 36 38 37 31 24 18
55 60 63 58 54 57 54 47 40 37 38 36 34 34 33 31 33 35 37 37 43 39 37 36 40 39 32 40 51 63 72 74 70 72 73 64 66 59 56 39 34 37 39 41 37 30 23 18 17
59 62 59 55 54 53 49 42 40 35 33 33 33 31 30 32 31 32 34 36 40 42 39 37 41 43 37 39 47 56 67 71 68 73 72 62 62 58 43 38 38 41 42 38 33 25 20 18 18
63 68 66 63 61 57 56 40 31 27 25 25 26 28 29 28 30 33 36 38 38 43 41 39 42 42 41 41 46 52 58 65 66 65 66 63 59 47 41 43 44 45 42 37 30 23 20 20 20
69 67 71 73 78 74 64 55 36 32 28 26 23 24 26 28 29 31 37 36 39 43 43 42 43 42 41 40 43 47 53 59 61 60 67 61 51 42 44 45 48 47 43 36 30 25 21 21 22
75 73 78 81 86 87 71 80 40 37 33 28 26 27 25 25 26 29 34 35 39 44 44 45 45 44 43 43 46 48 53 58 59 61 61 53 44 45 47 49 50 48 44 40 33 25 23 23 24
72 74 77 83 90 88 63 80 42 38 32 29 25 23 23 26 26 28 31 36 40 46 48 46 48 46 45 46 50 52 57 61 61 60 53 46 46 49 52 52 51 48 46 44 34 27 26 26 27
64 73 77 78 78 63 60 78 44 35 35 34 31 24 22 24 28 28 31 34 38 47 50 49 52 50 49 52 54 59 60 58 55 50 45 47 50 53 54 54 51 48 49 47 36 30 31 29 28
62 67 74 77 74 65 63 68 39 34 35 34 29 26 26 28 32 30 31 34 40 50 52 51 56 58 55 59 58 56 53 50 45 44 47 50 53 55 58 57 54 52 51 46 36 32 30 31 33
68 74 68 91 77 89 66 56 46 35 36 34 37 33 24 30 34 35 36 36 43 54 56 55 63 65 64 65 59 51 46 42 43 47 50 53 56 60 62 62 58 57 52 42 34 31 33 34 30
73 83 97 98 96 93 69 65 55 42 41 38 34 30 30 37 38 38 40 41 48 60 59 59 66 66 66 64 57 50 45 44 46 50 54 57 61 63 65 65 61 59 47 39 33 36 35 32 30
96 97 98 92 93 93 82 49 46 53 58 51 44 32 27 29 42 44 45 45 56 64 62 62 67 67 67 61 55 51 47 48 51 54 58 62 63 66 68 65 63 53 44 38 37 35 32 30 28
86 95 92 98 93 89 87 48 41 58 59 58 50 37 29 37 44 48 49 55 64 67 66 66 68 67 66 57 57 50 48 52 55 59 63 65 68 69 67 67 61 50 45 39 36 32 29 29 29

GFSSGP_prec_cthk_039.txt.gz
RH
29 29 31 30 32 30 29 23 23 26 26 30 35 43 49 47 48 49 45 43 41 41 42 43 43 40 38 36 31 28 25 23 21 18 17 16 19 18 16 13 16 14 13 19 20 23 31 31 31
28 29 30 31 34 35 30 26 25 27 28 32 38 46 49 53 48 51 46 47 45 44 41 43 41 39 38 37 35 32 29 26 25 24 22 18 16 15 14 13 13 13 13 14 18 22 25 26 24
28 29 30 31 33 32 33 27 27 28 29 33 39 44 49 48 53 50 52 50 48 47 45 42 41 39 37 38 38 37 35 32 28 29 33 34 28 21 18 16 16 14 12 13 13 17 22 24 24
30 30 30 32 29 29 29 29 30 29 31 32 38 43 46 49 48 51 50 47 46 53 48 45 46 43 41 41 41 40 39 36 32 32 38 38 38 35 33 27 23 19 16 14 13 12 14 14 13
32 32 34 33 27 27 29 30 30 31 30 32 35 39 43 47 47 47 48 49 51 48 50 48 47 44 43 44 43 43 43 40 37 33 36 40 45 45 38 37 33 30 28 28 28 27 26 25 24
33 33 37 32 28 27 28 30 30 31 32 31 33 37 39 42 46 47 46 47 49 49 47 44 45 45 43 44 43 45 45 43 40 36 36 38 45 48 42 37 34 30 31 31 32 32 32 32 32
33 35 37 32 28 27 25 30 30 31 33 35 32 36 40 41 43 45 46 47 52 54 51 44 44 47 45 44 43 45 47 47 45 40 39 39 43 48 47 38 34 31 30 30 30 32 33 34 35
35 37 39 33 30 27 26 30 31 31 32 34 34 37 39 40 41 42 43 48 50 49 50 46 49 48 47 49 47 45 48 50 48 45 42 41 40 44 45 39 34 34 33 33 34 35 36 36 36
39 45 40 34 33 29 29 30 32 32 33 37 36 39 40 40 41 42 44 45 46 50 52 53 53 50 50 48 49 47 47 50 51 49 45 43 43 41 40 37 37 36 37 38 39 39 40 40 40
43 47 38 33 31 31 31 31 32 34 34 36 37 38 40 41 41 41 40 42 45 46 51 53 54 54 52 49 50 48 48 49 53 51 49 47 44 42 44 43 41 39 40 41 42 43 42 43 44
45 42 37 36 36 37 36 33 34 34 35 34 37 38 40 41 43 41 41 38 38 43 48 50 53 53 51 50 47 50 51 51 53 56 53 54 52 51 50 46 45 44 43 43 45 47 47 46 46
44 39 40 37 37 39 37 36 36 35 30 35 37 39 41 43 44 45 44 41 36 38 43 48 48 49 51 52 51 52 54 56 56 58 59 58 56 55 55 51 50 48 47 49 49 49 49 47 47
46 40 39 38 37 35 35 34 33 33 30 34 39 39 40 42 44 45 44 43 41 34 36 42 46 46 48 52 55 55 56 60 63 63 64 64 61 59 60 58 57 53 54 50 50 50 48 46 46
49 48 45 41 39 39 39 34 37 27 27 28 34 38 38 40 41 45 45 44 43 41 35 35 40 45 48 51 55 56 58 63 71 71 70 67 64 60 58 58 57 56 54 51 51 47 43 43 42
52 52 48 45 42 41 39 37 34 29 31 30 28 31 36 37 40 39 47 46 45 43 42 39 33 37 41 44 51 54 57 64 76 74 73 68 68 65 63 60 57 57 54 51 47 43 39 38 37
50 49 51 44 43 42 40 34 31 30 31 32 30 28 29 30 36 38 39 45 46 45 43 40 40 35 36 37 44 50 57 62 77 79 77 73 69 67 65 62 58 56 52 46 39 34 35 37 37
46 49 53 46 42 43 45 42 36 35 33 32 32 31 29 28 29 34 37 40 43 47 46 42 38 39 39 34 38 48 55 65 76 79 78 74 71 72 64 62 58 54 45 36 33 36 37 35 29
51 56 54 52 42 43 42 40 38 36 34 33 34 33 31 30 30 30 35 38 40 42 45 44 40 36 40 41 36 44 54 65 74 80 80 77 74 74 72 60 58 47 37 36 38 38 34 30 24
51 55 54 48 46 47 42 37 34 33 33 33 32 30 30 30 30 33 32 36 38 39 41 45 42 38 38 40 39 42 51 63 71 76 80 82 80 74 69 61 52 39 41 41 39 37 33 27 22
52 55 53 49 47 49 46 36 34 31 28 28 26 26 27 26 29 31 32 34 37 38 38 42 44 41 41 41 42 41 49 60 74 81 81 84 82 71 65 56 42 43 45 45 44 40 34 26 21
57 59 58 58 54 52 50 36 28 26 26 27 27 28 26 23 24 26 31 32 33 36 36 40 45 44 42 44 45 47 51 62 71 78 82 83 78 64 59 48 45 46 48 48 46 43 36 26 21
62 58 61 65 70 65 58 50 33 30 28 28 27 26 28 25 23 23 26 32 33 33 35 40 44 46 45 47 47 49 48 57 63 65 72 75 70 62 53 47 48 50 50 49 47 44 36 29 25
63 63 67 70 75 76 65 77 34 36 33 31 32 30 26 25 24 23 24 28 32 34 36 40 44 47 46 49 50 52 53 58 64 70 69 68 69 56 50 50 51 52 52 51 47 41 37 33 27
67 70 69 68 69 68 46 61 32 27 23 24 27 31 31 26 25 25 25 28 33 37 38 42 45 47 49 48 50 53 55 60 61 64 68 61 65 54 49 52 54 55 55 54 48 44 39 33 29
64 68 68 68 71 58 44 58 32 22 22 23 26 30 33 31 25 27 32 31 34 39 40 42 46 49 52 50 50 54 59 62 62 67 69 69 56 49 52 55 57 58 60 57 52 47 40 33 29
55 58 62 67 66 57 56 53 36 31 31 26 26 27 36 36 30 30 31 34 36 39 39 42 50 54 56 54 53 57 62 63 68 66 62 57 50 52 56 58 60 63 62 60 53 47 39 32 31
59 66 55 70 65 80 57 47 38 32 34 31 38 31 36 34 33 29 37 36 38 39 41 46 53 57 60 60 57 63 66 69 64 58 51 47 52 56 58 61 64 64 63 60 52 47 37 35 33
63 67 83 92 95 93 70 64 46 40 36 36 39 37 40 34 30 34 34 38 39 42 43 47 54 59 66 67 67 71 72 67 62 53 49 52 56 59 62 65 65 66 64 56 53 42 39 38 36
79 89 97 97 97 92 81 57 46 43 38 47 52 49 47 41 32 32 41 40 41 43 47 54 60 64 69 72 73 71 66 63 58 55 54 57 61 64 66 67 69 67 60 56 49 46 40 37 29
76 83 92 97 95 95 91 60 53 50 51 56 69 59 56 48 36 38 42 46 46 49 54 61 68 71 72 75 72 67 63 59 61 58 58 62 64 67 70 71 69 63 59 54 52 43 38 30 30

GFSSGP_prec_cthk_042.txt.gz
RH
29 29 29 30 32 28 27 22 21 23 23 23 26 35 37 39 45 48 44 45 42 40 45 45 42 39 35 33 29 29 27 24 23 21 22 28 30 23 19 16 14 12 13 19 24 31 41 42 36
28 29 29 30 30 29 27 23 21 25 24 25 28 35 43 45 44 47 46 45 43 48 47 48 44 40 36 34 31 30 28 27 25 25 24 21 22 20 16 15 14 14 13 16 23 29 31 32 29
28 28 30 30 28 25 27 26 24 24 26 27 32 37 44 47 49 48 49 45 47 47 52 50 46 43 38 35 33 34 33 30 28 28 30 28 25 22 18 17 16 14 13 13 19 23 25 27 26
29 29 29 28 24 23 25 26 27 27 28 30 33 38 44 49 51 53 50 48 57 55 56 51 51 47 43 39 37 36 36 34 32 34 36 33 31 32 28 27 23 19 17 15 14 16 18 18 17
29 30 30 27 21 23 24 26 26 28 29 31 32 37 42 48 49 50 49 50 56 54 56 52 52 52 46 40 40 40 39 38 35 36 38 38 37 36 35 35 30 27 27 27 26 26 26 26 26
31 29 29 27 21 22 23 25 27 27 29 29 32 35 37 40 46 48 49 50 52 51 53 55 55 50 45 42 40 39 40 40 38 38 39 39 40 45 38 36 32 28 28 29 30 31 31 31 32
28 30 26 25 21 23 24 26 26 28 28 29 29 32 38 40 44 46 47 48 50 51 51 58 59 55 47 45 43 40 40 41 41 40 44 43 41 44 45 38 34 30 29 29 29 30 31 32 33
31 30 28 26 21 21 25 25 26 28 29 28 31 29 35 39 43 45 48 50 49 49 52 58 59 57 52 50 47 45 43 43 43 41 44 47 45 46 43 39 35 34 33 32 33 34 35 36 36
34 31 28 25 24 24 27 25 26 27 28 30 31 32 33 35 40 43 47 48 51 49 51 54 57 58 58 58 53 52 48 45 45 44 45 47 50 48 46 40 35 35 36 37 38 38 39 40 41
35 35 27 28 29 28 28 27 28 28 28 29 31 32 34 34 39 44 46 47 49 48 50 53 57 60 61 59 58 56 53 48 50 46 45 52 54 51 48 44 42 41 41 40 41 41 42 43 46
38 36 32 34 31 32 34 31 30 27 28 29 32 34 34 36 38 41 45 46 48 48 51 49 55 56 60 61 60 57 56 54 55 52 50 53 50 50 52 51 49 47 46 46 44 46 47 48 47
39 34 37 37 38 36 35 35 33 29 25 32 33 34 34 36 36 39 43 46 45 47 48 46 50 52 57 58 59 58 55 55 56 54 52 55 59 56 58 56 54 53 52 50 50 50 47 50 46
42 37 38 38 37 34 34 33 33 33 29 29 32 35 36 38 38 39 40 45 47 48 47 45 46 49 51 52 54 54 56 56 58 56 58 63 63 65 63 59 59 58 57 54 52 51 50 47 43
45 42 39 36 35 36 35 31 34 27 24 26 27 30 34 37 38 39 38 41 46 49 47 44 40 43 46 48 48 51 57 58 60 61 65 68 67 68 66 62 61 60 58 57 56 52 44 41 39
48 47 42 40 38 38 38 33 30 25 27 26 27 25 28 33 37 37 37 38 44 48 48 45 41 38 41 43 48 52 58 58 59 61 71 75 71 70 67 66 62 59 60 58 52 44 42 37 33
47 45 42 39 38 38 39 30 29 30 29 29 29 29 28 27 33 36 37 37 41 47 49 48 46 43 38 39 44 50 54 55 58 59 66 78 76 74 70 70 66 63 60 54 45 39 36 35 34
41 35 39 38 36 37 38 35 33 35 34 32 29 30 31 29 27 31 35 37 38 41 45 48 48 45 44 42 47 49 51 52 56 60 63 76 79 76 74 74 68 63 60 46 39 38 40 33 29
36 41 39 38 36 36 34 33 31 32 32 33 32 31 30 29 29 29 30 35 35 37 39 44 48 49 46 44 51 50 51 51 51 58 66 74 80 81 77 81 75 64 54 41 41 43 39 34 30
41 43 43 39 36 35 29 27 28 26 27 26 28 30 28 27 28 29 30 30 34 34 35 39 42 49 48 43 49 51 54 53 47 57 65 76 83 85 82 84 74 62 45 44 46 44 42 39 35
47 45 41 39 36 37 34 24 27 26 25 25 25 24 25 24 24 25 27 28 30 33 33 36 38 43 48 47 46 49 49 52 53 57 68 80 84 86 83 82 69 53 46 48 49 47 45 42 38
48 47 44 44 44 43 41 28 24 22 21 22 23 22 23 24 26 25 23 26 29 31 32 34 36 39 43 48 50 48 48 53 55 56 64 77 88 91 86 79 63 49 49 51 52 50 47 43 37
49 47 50 52 54 53 49 39 26 24 22 22 22 23 23 24 25 27 25 24 27 30 32 32 34 37 39 45 48 48 49 53 59 61 62 75 84 90 83 68 56 50 51 54 54 52 50 46 38
53 53 55 57 60 59 52 65 22 20 20 19 20 21 25 26 27 27 28 23 26 30 31 31 32 35 37 43 49 53 56 60 63 67 73 75 77 78 65 66 52 52 54 56 56 55 54 49 40
59 60 61 62 67 62 38 50 21 15 15 17 18 20 22 24 29 29 27 29 24 28 33 34 32 35 37 40 47 55 60 60 64 70 73 77 78 75 68 57 52 54 57 58 58 59 55 47 41
66 71 65 63 65 47 33 38 25 19 22 23 23 24 21 22 27 32 31 29 28 27 31 35 35 36 38 42 46 53 59 67 72 75 74 73 73 62 69 58 55 57 59 60 60 58 52 48 43
64 59 49 50 45 33 45 41 25 28 30 29 33 32 27 24 24 31 34 32 31 30 31 36 39 40 43 45 50 56 58 64 68 73 73 70 69 79 63 57 57 59 61 61 61 57 54 49 43
55 60 50 61 55 61 45 37 34 39 36 36 38 36 33 27 25 27 32 33 33 35 34 38 43 46 49 50 54 60 61 63 69 70 71 71 64 59 54 56 59 62 64 64 60 58 55 48 45
54 54 67 76 78 72 55 51 48 50 50 50 45 43 33 31 31 30 31 36 39 39 40 45 48 52 53 54 56 63 66 67 69 76 78 75 68 59 59 61 65 66 67 63 61 59 54 49 44
65 73 78 83 86 81 77 49 55 56 58 57 55 49 43 39 39 34 37 41 45 43 45 48 52 55 56 60 61 67 68 70 79 81 80 69 64 64 62 66 68 69 66 64 62 59 53 48 43
57 70 81 96 90 93 89 53 63 64 69 62 61 57 56 48 46 46 47 48 49 47 48 50 54 59 63 67 66 71 75 77 80 76 68 66 69 67 66 70 70 69 68 66 63 57 52 49 41

GFSSGP_prec_cthk_045.txt.gz
RH
29 31 31 31 32 30 28 27 21 23 21 23 27 30 35 38 48 53 56 48 43 43 41 41 40 39 36 30 30 30 29 27 26 25 25 29 26 24 19 14 11 10 12 17 27 31 37 44 43
29 30 31 32 32 32 28 28 23 21 25 24 23 26 33 39 40 46 51 48 47 47 49 46 43 41 38 33 29 28 27 26 26 24 25 27 26 22 16 14 13 12 12 17 28 32 42 42 40
28 30 32 35 29 25 27 33 27 24 24 23 26 25 40 46 42 46 48 45 46 47 47 48 44 43 43 36 31 30 30 29 29 29 28 27 26 23 20 18 16 14 13 14 23 27 31 33 31
32 32 31 32 26 24 25 32 27 27 25 26 28 34 35 40 46 46 46 46 51 52 58 50 48 49 50 42 38 34 32 31 32 35 32 30 32 30 30 27 25 21 18 16 21 23 23 21 22
30 31 34 27 22 22 26 27 26 27 28 29 29 35 40 41 43 45 48 50 54 58 60 52 48 51 49 44 41 35 34 32 33 38 39 35 34 32 34 33 30 28 27 25 25 25 25 25 25
32 29 31 26 22 22 25 27 26 27 27 28 27 33 40 38 44 47 48 49 55 56 58 50 50 50 48 46 41 38 36 35 34 39 42 41 37 37 35 35 31 28 28 28 29 29 29 30 30
33 32 27 24 23 23 25 27 24 26 27 27 27 29 40 36 40 45 48 50 55 58 57 55 53 52 54 52 47 39 38 36 35 39 44 45 44 45 40 38 35 31 30 29 29 29 30 31 33
32 29 29 25 20 21 24 30 25 24 26 31 27 27 33 40 39 43 47 51 51 53 56 59 56 56 57 55 52 45 43 40 37 39 44 46 47 49 51 41 35 33 33 33 34 34 35 35 36
35 37 30 27 21 22 27 28 25 25 25 27 26 27 34 33 36 44 48 54 57 58 57 57 58 56 57 56 54 50 48 46 42 38 42 46 51 54 51 45 39 36 35 36 36 37 38 39 41
40 31 27 23 25 29 29 29 26 27 24 26 27 29 31 33 34 41 45 49 53 55 55 56 58 59 57 60 59 56 54 49 47 41 38 44 51 55 59 49 45 44 42 41 41 41 41 43 49
40 33 29 30 33 33 32 31 28 27 27 26 28 33 31 33 36 39 42 48 51 52 53 54 57 59 60 58 60 59 63 57 53 50 49 48 50 48 48 52 51 50 49 50 47 47 51 47 47
38 32 32 37 36 34 32 33 33 28 25 29 32 35 34 31 35 37 40 44 48 50 50 50 56 58 59 60 58 63 63 59 56 54 51 52 53 53 54 58 58 56 56 59 59 55 50 49 49
42 38 35 35 36 37 34 30 34 35 29 26 29 32 33 34 34 36 37 42 44 47 50 51 52 56 53 55 60 63 64 60 58 58 56 54 59 61 60 61 63 64 62 60 56 54 52 50 43
42 40 38 38 35 36 33 29 33 26 23 25 26 27 28 33 34 36 38 37 40 45 48 51 53 54 51 51 50 56 62 60 58 61 59 59 64 70 68 67 67 64 62 60 58 55 52 45 41
48 46 41 34 34 35 33 30 27 22 25 24 23 23 23 26 31 33 36 38 37 40 48 50 52 54 51 48 46 50 58 58 56 61 60 63 64 68 71 67 66 64 63 59 58 53 47 42 37
48 46 42 36 37 36 37 30 25 26 26 25 23 23 23 23 24 29 31 35 39 38 40 44 45 50 52 50 48 46 53 58 58 63 63 62 61 61 78 73 71 68 66 62 55 48 42 40 37
48 42 40 38 37 37 38 34 29 31 30 28 28 26 25 24 23 24 29 32 38 40 39 40 42 46 50 52 51 49 53 54 55 62 62 59 59 59 66 78 77 73 69 66 50 44 43 41 38
42 41 36 33 34 34 32 30 28 29 28 27 29 30 28 28 25 25 25 29 32 37 38 39 39 45 48 52 54 55 56 55 55 61 58 58 55 59 64 75 81 79 75 67 49 46 45 43 42
41 38 38 35 32 30 28 26 24 22 20 20 21 22 22 24 27 26 27 28 29 32 35 36 37 40 45 49 54 55 58 58 66 70 67 63 58 59 67 74 83 85 76 60 51 49 47 47 45
41 38 35 31 30 31 28 22 22 19 17 18 18 19 19 20 22 25 26 27 27 29 34 35 37 37 39 44 49 57 60 55 58 61 65 67 67 72 79 86 87 86 71 57 53 51 50 49 47
40 38 37 38 36 33 32 24 18 17 18 18 18 18 20 21 22 23 24 27 26 27 29 33 37 37 37 41 47 55 52 54 55 58 59 64 67 76 81 90 92 87 71 58 56 54 53 50 50
42 39 39 40 42 44 39 38 22 19 19 20 19 18 20 22 23 23 23 24 25 26 29 29 34 39 40 42 43 44 43 48 50 56 61 67 73 70 77 84 85 79 65 57 57 56 55 54 53
46 44 44 45 50 55 44 53 22 19 16 16 18 18 18 19 21 24 24 25 25 27 29 33 33 36 40 42 42 42 44 47 51 56 60 67 71 79 82 78 77 75 55 53 55 56 56 56 55
48 49 51 55 60 64 41 43 21 17 17 17 16 17 18 18 19 20 21 25 27 27 29 34 37 36 38 40 40 43 46 43 49 58 62 69 74 79 83 75 78 73 56 54 56 58 59 57 54
56 61 64 69 68 50 29 31 26 18 19 23 26 28 25 22 21 20 21 22 26 28 28 36 38 40 40 37 40 45 47 45 50 58 67 72 82 83 78 78 79 61 52 56 60 60 58 56 52
60 61 57 60 47 38 35 34 23 23 26 31 34 35 32 30 30 30 25 20 24 30 31 34 42 42 41 41 42 48 47 48 52 62 72 74 76 76 75 71 66 61 59 61 60 58 57 55 53
62 66 49 59 48 48 32 25 26 32 36 37 37 38 39 40 41 38 30 25 25 30 35 37 41 46 45 46 46 46 50 52 56 63 72 72 73 73 69 71 69 56 56 58 59 59 58 56 54
54 52 63 68 67 56 35 37 44 48 50 50 46 43 44 48 46 40 33 28 27 30 38 45 43 47 50 52 50 50 53 59 63 71 71 75 72 79 74 68 65 63 65 63 61 60 59 56 56
57 58 59 59 67 67 63 44 51 54 54 47 44 46 52 55 54 48 40 34 32 36 42 52 48 49 54 55 52 54 59 64 68 71 76 71 77 81 77 75 67 69 68 64 64 62 61 60 59
51 61 68 84 77 84 81 51 57 58 53 48 47 50 58 65 62 57 48 44 42 47 49 60 53 52 56 59 60 62 66 69 71 75 72 79 79 83 73 67 70 73 68 67 65 65 64 63 57

GFSSGP_prec_cthk_048.txt.gz
RH
29 30 30 30 35 32 30 28 29 24 22 22 25 28 33 37 48 55 58 55 48 41 37 38 36 37 36 33 29 29 30 30 29 28 29 27 26 24 19 14 11 9 10 15 22 21 25 41 40
29 29 31 31 37 36 28 28 31 25 27 23 22 24 29 39 41 46 50 54 50 43 42 41 39 37 35 32 32 29 28 28 27 27 28 30 29 24 17 14 12 11 11 18 25 28 32 40 41
28 30 32 36 32 30 26 34 35 28 23 24 23 22 33 41 40 44 48 46 46 44 43 41 39 38 37 35 34 30 28 25 26 27 31 31 30 23 22 19 15 13 13 18 22 29 30 34 32
29 32 31 32 28 24 23 33 37 34 27 25 26 32 32 43 41 36 42 43 48 46 45 43 44 46 40 37 36 34 30 26 27 29 29 28 26 26 26 26 24 23 21 19 23 22 25 27 23
31 34 33 29 23 23 26 29 36 30 28 28 27 32 43 37 36 41 42 48 50 49 50 49 48 48 43 41 40 37 32 28 30 30 32 33 31 31 31 29 26 26 26 26 29 28 28 28 26
30 28 33 32 24 23 22 26 29 27 26 27 26 27 47 38 38 40 46 49 52 51 53 51 51 50 44 44 43 41 36 30 32 34 37 40 38 35 33 31 28 27 27 27 27 28 28 28 29
30 31 30 27 26 23 24 25 31 27 27 26 26 28 37 38 35 42 48 52 55 52 49 48 45 46 44 44 44 45 41 34 32 36 39 41 43 43 39 36 31 31 31 31 30 29 30 31 32
28 34 34 29 26 24 23 27 35 28 26 28 29 26 40 50 37 38 50 53 55 54 48 48 46 47 46 44 45 46 45 39 33 35 37 41 45 47 47 42 37 33 32 32 34 34 34 35 36
29 36 34 29 27 24 22 26 36 30 28 26 27 26 33 43 41 39 43 49 52 53 51 47 48 48 48 47 46 47 47 44 40 37 37 39 43 47 50 48 44 41 39 37 36 36 37 39 41
35 37 35 26 24 28 28 29 30 29 27 24 26 25 30 32 36 37 38 45 50 53 54 53 47 48 47 48 50 49 50 48 45 42 40 40 44 48 47 49 46 47 46 45 43 43 43 44 47
34 35 29 24 28 31 31 32 28 30 30 25 26 26 29 27 31 36 36 39 44 47 50 53 53 48 49 49 53 51 52 51 49 49 44 44 47 48 48 49 46 48 49 51 50 51 48 49 49
35 36 31 30 34 36 34 34 33 32 28 27 28 29 32 30 30 31 35 39 41 43 46 49 51 52 51 54 53 54 53 54 54 53 53 50 49 48 47 50 53 53 55 58 57 54 54 52 50
38 35 32 32 34 37 37 38 34 32 30 24 24 27 32 33 30 30 32 36 40 48 42 44 49 52 53 52 51 54 54 56 58 57 55 54 51 50 53 56 57 57 60 62 60 57 54 52 48
47 41 37 34 32 32 33 31 32 27 21 26 26 27 27 29 30 30 31 32 37 42 48 42 45 49 51 51 52 55 56 54 58 59 58 56 54 57 58 60 62 64 63 64 64 59 56 49 43
50 45 42 37 33 35 33 33 30 23 24 23 23 23 23 24 26 27 29 31 32 39 46 44 41 46 48 49 51 54 57 56 56 58 57 56 57 61 62 60 63 66 65 64 64 63 56 45 40
51 49 49 31 31 32 37 35 28 27 25 23 22 22 22 21 20 21 24 28 31 32 38 44 42 41 47 49 47 51 55 54 53 56 58 58 60 63 60 59 58 62 75 67 64 60 52 45 43
52 48 45 40 38 37 39 37 31 32 27 26 24 23 22 21 20 21 20 23 28 31 32 36 39 38 42 48 45 48 50 54 55 56 57 57 60 61 59 58 58 59 67 74 70 57 52 51 45
50 51 45 43 44 41 39 36 32 31 29 29 28 26 24 23 22 21 21 22 25 29 33 36 39 37 37 47 46 47 49 53 57 57 58 55 57 58 55 54 53 57 63 71 73 58 55 54 50
52 51 50 43 40 37 34 30 25 23 22 21 21 22 22 23 23 24 24 25 24 28 32 36 35 37 38 40 44 44 50 59 61 62 62 61 64 66 68 66 60 60 64 70 66 60 58 55 54
48 51 49 41 35 33 30 25 21 18 16 15 15 15 16 17 18 20 22 24 25 25 28 31 36 35 35 36 39 45 52 54 58 62 63 63 65 69 71 69 72 77 76 80 70 62 60 58 56
49 48 43 40 35 33 30 24 19 17 16 15 15 16 17 17 17 17 18 20 23 25 26 29 33 37 39 37 43 47 49 51 53 59 62 62 65 65 68 74 78 81 82 78 74 70 66 61 59
46 42 40 38 40 45 37 45 21 16 15 16 16 16 17 18 18 19 19 20 20 22 26 28 33 36 41 42 44 44 45 47 48 52 56 60 64 68 73 76 83 83 75 69 67 58 57 58 57
44 42 41 44 45 47 37 46 25 17 17 16 17 17 16 16 15 16 18 20 23 24 25 26 29 34 37 40 44 45 45 46 47 51 53 56 64 70 75 75 79 81 79 73 67 57 59 58 56
46 46 46 48 50 57 41 42 29 20 18 17 16 16 16 16 17 16 17 17 18 21 25 28 31 33 39 42 43 44 42 44 47 49 53 55 61 71 76 80 82 81 80 74 69 61 58 57 57
50 52 64 69 69 58 32 42 29 19 19 18 19 19 23 24 23 22 21 19 18 18 21 27 31 37 40 48 48 47 43 45 48 47 51 53 60 68 75 81 83 83 77 77 70 56 57 60 60
57 58 67 63 63 51 39 38 24 18 19 23 27 29 31 32 33 31 32 29 27 23 20 22 28 41 46 46 52 52 47 48 47 48 53 55 63 69 78 84 83 76 75 74 60 62 59 58 58
62 66 53 60 49 57 36 23 22 25 28 34 36 38 40 42 40 37 36 37 36 31 27 25 27 41 48 49 55 55 52 47 46 50 57 62 67 73 78 80 76 77 75 74 68 63 66 65 60
59 52 63 66 67 61 41 35 38 42 45 45 47 50 52 50 45 38 34 34 31 33 33 28 31 39 48 52 55 56 55 53 52 56 60 65 72 75 78 81 76 77 77 74 67 69 69 66 60
61 63 57 57 60 71 68 51 48 51 54 55 56 56 54 52 48 41 36 36 35 37 41 36 37 43 53 54 55 59 57 55 59 62 68 72 74 76 81 81 86 78 77 72 69 69 69 64 61
59 55 57 66 70 78 83 62 53 56 56 56 54 55 55 52 49 44 47 50 47 50 48 50 50 50 58 54 59 63 63 63 68 71 72 76 77 78 80 76 81 83 81 71 71 73 69 64 63

GFSSGP_prec_cthk_051.txt.gz
RH
32 32 32 32 34 34 32 27 27 26 24 25 24 28 29 34 40 50 47 52 50 44 44 40 39 35 32 32 31 31 31 29 31 31 29 26 24 23 18 13 11 9 10 16 17 12 26 36 39
33 33 34 34 37 38 32 24 31 29 26 23 21 24 29 41 39 43 45 50 50 46 45 42 41 36 33 33 34 34 31 29 28 31 30 30 27 24 17 14 13 12 14 18 22 18 31 33 33
33 33 34 37 36 34 28 30 30 30 26 25 22 21 25 39 36 42 42 44 46 42 41 40 40 38 34 34 33 33 31 28 26 26 31 31 28 22 21 20 18 15 17 21 21 26 27 28 28
31 34 34 37 32 24 20 31 34 31 29 27 25 25 30 36 36 40 44 41 44 41 40 40 39 39 38 39 34 33 31 29 26 26 30 29 24 24 24 23 23 23 23 28 27 28 28 27 24
33 35 36 35 27 23 21 30 36 34 30 29 26 31 36 38 35 38 37 41 40 39 41 41 39 40 40 41 38 34 34 32 28 27 28 28 28 27 25 24 23 22 22 25 28 28 28 28 26
34 35 40 37 26 22 19 28 33 29 28 27 27 31 38 39 40 36 38 39 41 43 46 44 42 40 40 40 37 35 34 34 30 28 30 31 33 33 31 27 25 25 25 25 24 24 25 26 27
30 33 35 31 27 25 21 22 29 27 27 25 24 27 36 39 38 36 39 41 45 47 49 50 45 41 40 39 39 38 36 37 36 32 33 37 39 37 36 33 30 28 27 28 29 29 30 30 31
30 35 32 29 25 24 22 24 27 27 27 25 26 26 39 39 39 38 40 42 44 48 51 50 47 43 41 40 40 39 38 38 37 37 37 37 37 40 40 38 35 34 33 32 31 32 33 34 34
31 40 38 30 27 23 20 28 30 33 29 28 27 26 35 37 40 40 40 41 44 46 50 49 43 43 43 42 41 41 41 39 39 39 40 41 39 39 40 41 39 40 39 39 39 38 37 37 38
35 39 35 27 26 25 25 29 32 32 29 28 27 28 31 35 37 40 40 41 42 40 41 43 45 43 44 44 43 42 42 42 42 41 41 43 43 42 42 42 40 41 43 44 46 44 44 43 43
35 37 31 28 24 28 30 27 33 32 30 27 27 29 30 30 31 34 39 37 37 41 42 43 45 48 48 44 45 45 45 45 46 43 43 46 48 48 45 44 42 43 46 48 49 49 49 48 48
38 35 34 30 26 34 33 32 32 32 30 28 26 29 29 29 27 31 34 38 37 38 41 37 39 43 45 47 46 47 49 50 49 47 45 49 50 51 48 47 46 47 48 52 52 53 54 53 51
38 34 36 34 30 35 33 33 33 31 32 27 25 27 29 33 31 29 33 36 38 38 39 41 38 39 40 42 44 45 49 50 52 50 49 51 53 53 49 48 50 50 52 54 56 57 57 57 55
41 40 37 35 34 37 34 31 30 29 29 27 27 26 28 31 32 32 28 30 37 38 37 38 40 39 36 38 42 43 43 48 51 52 53 53 54 54 52 51 54 54 55 58 61 61 58 58 53
47 48 39 35 31 34 33 31 29 24 22 23 24 21 25 30 29 29 29 27 28 39 40 36 39 40 38 39 42 43 43 49 52 52 52 55 54 53 55 56 58 58 57 55 58 62 64 55 49
48 48 50 36 34 32 36 34 25 23 26 25 22 20 20 23 26 27 26 28 27 27 39 43 39 38 40 38 40 45 45 47 50 51 53 55 53 54 57 59 59 60 56 53 53 57 68 58 51
52 55 49 43 35 37 38 36 26 28 28 27 24 22 20 19 19 21 22 23 26 28 29 39 45 40 39 41 42 44 44 46 49 52 53 57 54 54 57 56 57 57 56 54 53 51 51 55 56
60 57 48 46 43 41 40 39 30 29 29 27 25 24 22 20 18 17 18 19 20 24 29 31 41 44 39 38 40 45 56 55 51 51 52 57 54 55 57 58 57 58 58 57 56 54 44 44 52
56 54 52 47 44 40 38 36 31 28 26 24 24 23 22 22 21 22 23 23 22 21 26 33 34 38 42 42 41 39 45 50 47 55 56 58 58 60 62 65 65 68 68 67 67 62 52 57 57
62 58 54 50 45 41 37 32 28 22 20 17 17 16 16 17 18 19 21 22 23 23 24 27 34 39 42 42 41 41 42 50 50 56 62 58 56 60 66 68 68 70 69 73 78 75 67 64 67
59 57 55 51 44 39 34 27 22 19 18 17 15 15 15 14 14 15 15 18 21 22 24 26 30 36 42 43 39 43 47 54 53 56 62 58 54 58 62 67 71 72 74 79 82 76 66 66 63
58 52 49 47 45 47 37 47 28 18 16 15 15 15 15 15 15 16 16 17 18 21 23 27 29 33 38 45 43 38 39 43 51 47 56 59 59 60 65 66 70 73 77 82 81 76 71 68 62
56 50 48 45 45 47 40 44 27 21 17 16 15 14 15 15 16 16 16 17 19 21 22 23 27 32 36 43 45 44 43 47 51 54 60 61 62 62 65 66 72 76 79 82 82 79 73 67 68
50 47 45 46 49 57 40 40 30 22 18 16 15 15 14 16 16 16 18 17 17 19 21 24 25 27 30 37 39 43 42 46 52 60 60 60 59 61 64 64 70 76 80 82 83 83 77 72 70
49 50 61 60 63 56 40 46 32 24 20 18 17 17 19 20 20 21 20 21 21 19 19 20 22 25 32 34 33 41 46 46 48 57 63 61 61 61 62 63 67 74 78 84 84 80 73 71 62
53 50 60 66 67 57 41 46 28 20 20 22 24 27 29 29 30 31 29 28 28 28 27 23 21 21 24 34 34 37 42 47 51 58 63 64 66 66 64 66 69 75 79 85 81 76 73 70 66
57 61 56 62 57 62 44 30 20 23 29 32 33 34 36 37 38 39 39 38 40 39 36 33 30 26 23 27 36 40 48 52 57 62 69 72 70 68 65 67 74 76 82 81 79 78 76 75 70
59 54 65 66 60 62 47 37 32 37 41 42 43 43 44 45 45 43 40 43 45 42 39 34 35 33 29 30 39 42 58 70 60 67 71 69 66 66 70 73 73 78 82 78 79 77 78 76 73
63 64 59 58 60 63 65 47 43 45 47 51 48 49 52 55 57 56 51 48 45 38 34 31 36 39 38 38 39 53 60 73 64 72 69 68 69 71 73 76 79 80 77 80 85 82 79 76 72
59 62 58 64 56 66 72 61 50 53 54 48 47 54 58 59 60 60 57 56 50 37 35 41 43 41 40 44 49 54 72 67 65 73 74 73 74 75 79 78 77 83 80 88 86 91 85 73 71

GFSSGP_prec_cthk_054.txt.gz
RH
34 34 32 32 33 34 33 28 22 25 25 24 25 27 31 38 43 43 45 49 48 49 46 45 44 39 36 34 34 34 30 29 27 28 28 26 24 21 17 14 13 14 19 14 12 13 27 37 30
35 35 35 35 38 38 32 24 24 27 23 24 25 25 29 36 38 40 44 49 46 45 45 45 44 39 38 35 36 35 34 31 31 31 29 26 25 23 19 15 13 12 18 20 13 23 30 30 27
35 36 37 39 41 38 29 23 29 27 25 24 24 22 27 30 31 36 40 44 46 45 42 43 43 39 37 37 38 37 34 33 33 33 28 26 26 22 21 20 20 20 24 24 20 30 29 28 27
35 37 39 42 38 27 22 28 29 29 25 24 25 26 28 28 29 34 38 40 43 44 42 41 40 40 36 37 39 40 33 32 32 30 28 28 24 22 22 21 21 23 28 30 33 34 34 31 26
39 40 42 41 32 24 20 29 33 31 26 24 24 28 30 28 30 31 33 38 41 41 41 40 40 39 37 37 38 37 32 33 32 31 31 28 26 26 24 22 21 21 26 27 30 35 35 34 27
42 41 45 38 27 22 20 30 40 31 27 26 26 29 33 33 33 34 33 36 41 41 42 38 39 39 37 37 36 34 32 33 33 32 31 29 28 29 28 26 25 24 24 27 26 24 24 23 25
38 41 42 33 28 26 20 27 36 32 28 26 23 27 34 35 35 36 36 37 40 41 40 42 42 40 39 38 36 35 35 34 33 35 33 32 32 32 31 30 30 31 29 26 26 27 29 30 31
33 39 36 32 30 25 21 25 33 30 25 26 25 26 29 31 38 36 36 37 41 47 48 49 49 43 41 38 37 38 36 36 35 35 36 38 38 36 34 32 33 35 35 35 33 33 32 33 34
32 40 39 30 28 22 20 25 28 29 25 25 26 25 22 25 34 39 37 37 38 43 50 52 51 50 43 41 41 41 38 37 37 37 40 42 43 42 38 34 34 36 37 39 39 39 40 39 38
34 40 35 27 25 24 21 25 30 30 30 26 27 28 28 28 31 34 36 35 36 38 44 51 51 47 43 42 42 42 40 38 38 38 42 43 44 45 44 39 35 37 39 41 43 44 44 46 44
35 37 29 29 26 26 26 27 29 33 31 28 29 31 31 31 29 31 33 33 32 36 41 43 44 43 44 44 42 43 41 39 38 39 41 43 45 47 47 44 40 40 42 43 44 47 48 49 50
37 33 31 28 26 28 28 28 30 32 32 29 30 31 35 36 32 30 29 31 34 34 34 35 40 43 46 47 44 44 41 40 41 41 41 43 43 47 48 48 44 43 45 47 49 50 51 51 51
38 35 33 30 28 31 30 32 29 28 28 29 29 32 30 29 32 32 32 33 32 32 33 33 36 38 40 43 43 43 44 44 45 45 42 45 45 45 49 52 49 47 49 51 51 54 56 56 55
40 35 34 33 32 31 32 32 31 25 29 28 27 27 29 31 29 31 34 35 37 35 33 34 36 37 37 38 40 40 41 41 43 43 43 44 47 48 49 51 51 51 51 53 56 56 57 58 58
41 44 41 36 32 34 32 29 30 28 28 30 27 27 28 27 28 28 30 30 32 36 40 39 40 41 38 36 39 40 39 41 42 45 47 48 47 49 52 51 51 51 52 56 57 56 54 52 51
46 46 48 37 33 31 32 29 26 24 25 25 25 24 24 25 26 27 29 28 29 32 35 42 45 46 47 42 42 43 43 42 43 44 47 47 49 51 52 50 52 53 54 54 55 55 52 50 44
55 54 48 40 36 36 35 33 23 23 26 25 21 20 19 18 19 20 25 28 28 29 31 34 41 44 46 47 53 47 43 46 43 44 46 47 51 54 53 54 55 54 53 53 54 55 57 50 41
63 58 50 46 38 38 36 39 30 29 29 27 24 23 21 19 17 15 19 25 26 30 31 32 35 42 48 51 49 54 52 49 48 52 53 52 49 53 56 58 59 58 59 62 64 66 65 54 50
63 56 55 45 41 38 36 36 29 28 29 26 24 23 23 22 19 18 18 19 21 24 28 30 32 35 39 50 58 58 58 58 55 52 54 51 49 53 59 61 61 64 67 68 69 70 70 64 61
64 66 56 47 44 42 38 36 30 28 27 24 21 21 21 21 21 21 22 21 20 19 20 21 26 33 33 38 42 43 49 53 57 56 60 61 53 55 62 63 62 65 69 71 74 75 77 72 67
61 58 54 53 49 46 42 32 27 21 19 18 17 16 17 15 15 16 19 21 22 24 24 24 23 26 32 34 45 48 54 54 57 58 63 61 58 59 65 66 64 68 72 73 76 79 80 75 70
65 57 56 54 51 52 40 44 28 22 20 18 18 17 17 16 16 15 15 14 16 19 21 22 23 24 28 31 33 43 47 46 47 54 56 56 58 59 65 67 70 76 74 72 76 80 79 79 76
62 55 54 52 53 51 43 46 28 22 19 17 17 17 15 14 15 15 14 15 16 17 18 21 23 24 27 28 31 37 43 49 46 48 53 57 63 70 76 74 74 72 73 73 76 82 81 82 79
58 57 56 55 54 57 42 43 31 25 21 18 17 16 14 13 15 15 15 15 15 16 18 21 22 25 28 30 31 33 38 49 51 52 54 55 60 67 75 76 74 75 74 73 76 79 78 81 77
56 58 64 62 64 50 42 50 35 25 22 21 19 18 18 19 19 19 18 18 18 20 19 19 20 22 25 27 30 32 34 41 48 52 54 59 62 69 77 78 78 75 75 72 75 74 77 82 78
55 54 58 55 65 58 43 47 31 25 21 22 25 26 26 26 27 27 27 27 27 27 26 23 24 20 20 23 26 28 35 38 45 53 55 59 63 65 72 80 81 77 78 75 74 74 77 83 75
55 58 50 59 58 63 47 35 24 26 31 32 33 34 34 34 33 32 32 35 37 37 38 37 35 33 30 24 20 23 29 37 41 47 55 65 64 63 72 82 83 85 82 79 74 77 77 76 77
51 52 62 64 54 58 45 41 32 33 38 39 42 41 41 37 36 37 38 39 40 40 42 43 46 41 36 32 29 25 23 30 39 46 55 65 67 71 78 85 89 88 82 76 78 75 75 77 75
61 63 61 60 61 62 62 39 35 41 43 47 50 50 49 47 46 45 45 45 46 46 48 49 46 43 40 39 38 34 30 33 39 58 62 75 71 75 84 89 90 82 77 80 78 75 89 70 73
61 63 60 64 55 65 64 55 48 50 51 52 49 49 49 52 54 57 58 59 56 59 58 58 54 44 38 40 44 43 44 48 51 62 69 81 78 83 88 88 80 77 80 80 85 74 76 85 88

GFSSGP_prec_cthk_057.txt.gz
RH
40 37 35 34 35 36 35 28 25 26 24 24 27 30 33 37 39 45 45 48 48 46 46 48 45 43 39 34 34 34 33 33 28 27 27 27 26 24 21 18 14 16 17 20 16 25 30 37 29
40 38 36 37 39 39 33 26 23 26 25 24 25 29 31 37 37 41 47 48 48 45 44 46 46 43 42 40 40 38 33 32 30 28 27 25 24 23 20 17 15 17 21 21 17 24 36 37 28
39 38 38 40 43 36 29 24 24 25 26 25 26 26 27 30 34 38 42 43 44 46 42 42 44 44 41 38 39 39 39 34 33 31 28 26 25 23 20 20 19 28 28 26 28 38 32 29 29
38 40 40 44 39 30 25 23 25 26 26 26 27 29 27 26 29 34 37 40 43 43 41 41 42 39 38 36 38 40 41 42 41 36 29 29 26 22 22 21 21 25 30 32 38 38 36 37 31
38 42 46 45 37 29 25 24 28 27 30 27 27 29 29 28 28 31 33 35 42 43 41 41 38 37 36 37 38 37 37 36 38 33 31 30 27 26 25 23 22 24 27 30 32 34 36 36 32
42 45 50 44 35 28 25 24 27 29 30 27 26 30 29 29 28 29 30 33 39 40 41 42 39 37 37 38 37 35 33 32 33 33 33 31 29 28 29 28 26 26 28 29 30 31 29 25 24
46 49 49 40 33 30 24 23 25 31 29 26 25 31 31 30 30 31 32 33 37 41 40 40 38 37 37 37 38 37 34 35 34 33 34 32 33 30 28 30 30 30 31 32 30 27 27 29 31
45 48 46 42 35 28 23 24 26 30 29 26 26 29 30 26 33 34 35 36 36 38 41 40 38 39 39 39 40 37 37 37 37 34 34 35 36 35 31 29 31 32 33 34 35 35 36 36 36
44 50 48 37 34 26 24 25 27 31 28 28 27 23 23 23 26 33 36 36 35 38 41 43 47 48 44 42 42 40 38 37 36 38 36 37 38 38 36 34 33 32 34 35 37 39 40 40 41
41 46 41 32 28 26 25 25 26 28 30 28 29 27 26 26 26 25 28 32 34 35 40 45 50 53 51 45 43 41 39 39 37 37 39 40 42 44 42 40 37 36 37 39 40 41 43 45 45
38 39 32 30 27 27 27 26 26 26 29 28 28 30 32 33 31 28 26 26 28 32 35 40 49 53 50 46 41 40 41 40 39 39 41 43 45 45 46 46 41 40 40 40 42 45 47 48 49
38 34 32 29 27 28 28 26 25 26 27 28 29 34 37 39 39 36 31 28 30 32 33 37 40 43 45 43 42 45 43 42 40 37 40 43 45 47 46 46 46 46 45 44 45 46 48 50 51
39 37 34 30 28 27 27 27 27 24 22 29 28 32 35 36 39 39 37 35 34 31 31 33 37 35 38 41 43 45 43 43 42 39 38 41 44 46 49 47 48 48 49 49 50 52 51 52 52
41 36 35 33 30 28 28 28 26 21 21 27 28 29 31 32 30 36 42 38 35 35 35 34 35 36 38 39 42 42 42 42 41 40 39 39 40 44 50 51 52 51 52 52 53 56 57 57 55
41 45 38 33 32 32 30 27 26 23 22 22 25 27 29 30 29 28 31 38 40 39 38 38 37 39 38 38 41 42 42 44 41 41 42 42 42 46 48 52 55 56 55 53 54 56 57 57 54
49 45 49 37 33 33 32 28 26 25 22 21 22 23 26 27 27 27 29 30 33 38 39 40 39 41 39 41 45 45 45 45 44 45 43 44 44 46 49 52 53 54 57 57 56 55 55 55 54
55 54 47 39 36 36 36 35 25 22 21 22 21 21 23 23 24 24 25 28 30 32 34 33 33 39 43 47 49 54 55 51 47 48 45 44 46 48 50 53 55 56 59 58 57 56 58 62 61
65 58 48 42 34 34 37 41 29 27 25 25 22 19 18 18 17 19 21 25 28 31 34 35 32 31 34 42 49 56 57 59 55 51 48 46 48 51 54 55 56 56 60 60 61 65 66 66 61
70 65 58 48 41 38 35 35 27 25 26 26 23 21 20 19 17 19 20 19 22 23 27 34 35 32 32 33 43 53 56 59 60 60 54 48 53 57 58 57 57 58 61 63 65 67 69 71 69
79 73 66 54 46 42 38 37 28 25 25 25 25 23 22 22 21 22 23 23 21 18 19 27 33 35 34 32 33 39 45 52 60 65 67 65 60 62 64 61 62 62 65 67 66 67 70 73 73
86 74 63 55 48 45 42 35 29 24 23 21 20 20 19 18 17 18 20 22 22 20 19 21 25 31 35 34 34 36 42 49 50 53 60 62 63 66 68 70 70 66 68 70 73 78 76 76 75
72 56 54 54 53 56 47 46 31 23 21 20 21 20 17 16 16 17 16 16 17 21 24 25 25 25 26 29 31 33 34 38 49 66 63 61 58 61 65 69 74 76 77 77 83 87 84 79 77
60 57 58 58 60 55 49 50 29 23 21 20 19 20 17 16 15 17 17 16 16 16 15 20 23 24 26 25 26 26 31 35 38 43 55 59 56 58 63 65 71 74 79 84 87 87 88 84 80
65 63 62 61 56 59 45 43 28 25 23 22 22 20 19 18 17 17 16 16 15 15 16 17 18 20 23 24 25 26 29 34 44 48 60 64 65 60 58 62 69 77 85 87 88 88 90 83 78
66 68 68 60 64 53 48 49 33 27 26 24 22 22 21 20 19 18 17 17 16 17 17 17 16 18 21 23 25 27 29 32 39 43 53 57 62 57 61 61 66 74 83 87 88 89 88 83 81
68 63 61 51 64 58 50 52 34 27 24 23 25 26 26 26 27 28 27 25 25 24 23 22 21 20 19 19 20 24 29 31 34 40 45 51 62 63 60 61 67 72 85 90 91 90 91 86 78
68 66 56 61 58 62 48 39 28 29 28 30 32 33 33 33 34 33 33 31 31 30 30 31 32 32 31 26 25 23 22 23 29 34 41 44 52 67 66 68 72 77 83 89 93 90 88 88 81
57 55 59 60 55 51 41 42 31 32 37 38 39 38 38 40 41 38 35 35 35 36 35 36 36 36 38 41 39 35 30 26 24 25 34 40 48 55 68 71 76 81 83 90 93 90 87 86 77
60 60 56 57 59 58 59 33 36 37 43 44 44 47 49 48 47 43 41 41 43 40 40 42 44 43 43 43 45 44 41 36 33 28 27 39 49 53 64 69 78 84 86 90 91 91 88 83 74
56 57 56 62 59 67 64 47 40 48 50 53 56 54 55 55 52 48 49 52 54 54 55 56 56 53 49 51 52 47 44 44 44 41 37 41 50 63 64 81 84 84 86 88 89 89 81 76 77

GFSSGP_prec_cthk_060.txt.gz
RH
43 40 37 36 37 38 37 29 25 25 26 28 30 32 33 34 39 43 41 44 45 45 47 47 46 46 42 37 37 36 35 34 35 31 30 30 29 27 25 21 18 17 18 20 21 36 29 29 25
45 43 41 40 43 41 35 28 25 27 26 26 28 31 34 35 38 39 43 45 46 44 46 46 45 45 43 40 40 40 41 37 36 32 30 28 27 25 22 19 17 18 22 21 22 32 41 36 26
44 44 44 45 46 40 31 25 26 26 27 28 28 28 29 31 35 38 41 44 46 44 44 46 44 44 44 40 39 39 41 41 38 35 31 28 26 24 20 19 20 28 26 22 29 42 43 34 29
44 44 45 48 42 33 27 25 25 25 27 29 28 30 31 31 31 34 38 42 43 41 43 46 46 43 44 40 39 41 42 41 39 39 32 28 28 24 23 22 22 30 28 32 39 41 36 38 36
41 43 49 49 40 32 28 27 26 27 28 30 28 27 30 30 31 33 34 38 42 43 41 43 44 42 42 42 39 41 41 40 40 37 33 30 27 26 25 26 25 29 29 33 37 35 35 37 34
40 43 50 47 37 29 29 28 27 25 27 31 29 28 30 31 31 32 34 36 39 41 42 42 43 40 39 40 42 42 38 36 40 33 32 32 30 28 26 27 28 30 32 33 35 35 35 33 26
42 45 47 39 33 31 29 29 28 25 26 30 30 31 30 29 30 32 32 34 37 39 40 42 40 38 38 37 39 39 36 33 35 32 33 33 32 31 29 27 28 31 33 34 35 35 32 29 31
47 49 48 43 36 32 29 29 28 26 24 29 31 31 28 27 27 34 35 35 35 36 38 42 41 39 37 37 38 38 37 34 34 33 33 33 34 34 33 32 30 31 32 33 33 34 36 38 38
53 55 51 42 38 33 31 30 29 27 25 29 31 29 29 28 28 30 36 36 35 35 37 40 42 40 38 38 39 40 38 35 36 35 34 35 36 36 34 35 35 34 34 34 36 38 39 40 41
55 55 49 39 37 34 33 30 29 28 27 29 30 31 28 28 28 25 27 31 35 34 37 41 42 45 46 44 43 43 41 37 39 38 36 38 39 41 38 37 37 39 38 37 38 41 43 44 45
49 49 44 42 39 37 35 31 30 29 27 28 31 33 32 32 31 29 29 27 29 34 35 36 42 46 49 52 51 45 42 39 39 41 41 39 42 45 46 43 40 41 42 42 41 42 43 45 46
43 43 41 37 40 39 35 31 28 28 25 27 30 34 36 36 35 35 33 33 32 33 34 35 38 42 49 53 50 45 41 40 43 42 42 40 43 46 49 48 44 42 45 45 46 47 48 50 50
43 39 37 34 34 34 33 31 29 25 22 24 28 32 35 37 40 41 41 37 33 31 33 34 37 38 43 47 46 45 42 44 46 42 42 41 42 45 46 49 49 47 47 48 49 50 52 54 54
42 38 37 34 31 31 31 29 27 21 19 21 24 28 36 37 41 41 39 37 34 33 32 34 34 35 40 42 39 41 43 45 44 42 40 38 38 40 42 47 50 48 47 50 52 52 54 56 57
45 45 39 33 33 33 31 29 26 19 21 20 19 25 30 38 39 35 35 39 37 38 35 33 33 37 39 40 41 44 43 44 42 42 41 38 38 39 40 45 49 49 49 53 53 53 56 57 55
48 46 50 37 33 31 31 30 26 23 23 19 17 17 24 29 32 33 29 28 30 35 36 37 37 37 39 40 42 45 44 45 43 42 46 45 44 43 41 45 50 52 54 55 57 57 58 57 56
55 55 49 43 37 35 34 35 28 25 24 22 20 17 17 20 25 27 27 27 27 28 31 36 39 37 39 42 42 46 49 51 51 51 51 50 49 48 43 47 52 55 54 57 58 57 59 59 61
55 52 48 42 31 35 37 39 31 27 26 25 23 20 17 17 18 21 24 25 25 27 28 30 32 33 32 35 42 48 54 55 56 63 59 58 52 52 50 51 55 56 55 56 58 59 60 62 63
58 57 52 44 38 35 35 35 29 25 25 24 22 19 18 17 16 17 19 22 23 25 26 29 30 31 32 33 31 37 44 49 55 58 60 60 60 58 59 59 62 62 61 59 61 62 64 65 65
65 66 64 57 48 43 38 37 28 23 23 22 23 22 21 21 19 18 19 20 19 20 21 24 28 30 32 32 31 31 34 42 50 57 63 64 67 69 67 67 73 74 70 65 65 66 69 68 68
80 73 72 65 56 50 44 36 28 23 23 21 22 22 22 19 17 17 18 19 20 20 22 23 23 24 27 30 31 32 34 35 40 44 48 49 68 70 78 76 76 77 75 73 73 75 81 83 84
99 86 74 61 57 60 48 51 33 27 24 22 22 21 20 19 17 16 17 18 18 20 23 24 24 22 22 23 27 30 32 33 34 37 41 48 54 55 63 71 77 77 76 76 76 80 85 90 92
85 78 74 64 61 56 51 52 31 26 24 23 23 24 25 22 21 19 19 18 17 17 17 19 24 26 26 24 24 27 30 33 35 37 40 44 51 63 69 64 67 71 74 76 78 83 85 87 92
73 71 68 63 59 61 48 46 30 28 26 26 25 26 24 23 22 21 20 19 18 17 17 18 18 20 23 26 27 27 27 28 29 30 31 36 41 44 52 61 68 69 72 70 75 80 85 89 92
69 68 70 59 65 56 51 51 36 31 29 27 28 27 25 24 22 20 19 18 17 18 19 19 19 19 20 21 23 25 27 28 29 32 36 38 45 52 56 65 73 74 71 70 73 79 87 89 91
74 68 67 52 63 54 53 52 36 30 28 29 28 27 27 27 26 25 23 23 23 21 21 21 21 20 19 19 20 22 23 26 29 33 37 39 42 52 58 70 76 76 72 72 76 83 88 92 95
75 74 62 66 61 64 51 41 32 32 32 31 29 31 32 33 32 31 31 31 30 30 27 26 26 27 27 26 25 24 23 23 22 24 27 32 39 43 47 59 68 84 82 75 82 85 92 96 93
68 67 68 65 61 52 39 39 30 34 34 34 35 35 36 39 39 39 38 36 36 35 33 30 29 29 30 32 32 34 36 35 32 29 28 27 27 36 43 49 60 70 78 85 86 89 93 91 89
72 73 63 59 57 54 53 31 33 35 39 40 42 42 43 46 45 45 45 43 40 38 38 38 36 35 36 37 38 39 40 41 42 44 42 38 33 31 42 47 60 68 76 83 90 91 89 86 87
66 64 57 58 58 64 64 45 37 39 41 43 47 50 53 55 52 50 48 47 47 48 46 47 48 45 43 41 40 42 44 47 50 49 50 50 47 44 46 50 54 61 74 77 86 88 85 86 90

GFSSGP_prec_cthk_066.txt.gz
RH
63 59 52 47 45 43 41 38 34 33 31 28 28 27 24 28 34 39 35 36 42 42 44 43 43 39 38 38 36 35 35 37 35 35 33 33 32 31 28 26 23 21 20 32 38 34 27 21 18
64 62 60 53 46 42 36 36 34 34 32 31 33 32 28 31 36 42 41 40 45 48 48 45 44 41 44 43 39 37 38 36 35 34 34 33 32 30 26 24 21 19 22 34 44 42 34 24 21
70 64 65 59 49 39 33 31 31 31 31 31 34 35 35 34 39 42 41 44 49 49 47 47 44 43 43 42 39 36 34 34 36 35 32 29 29 28 25 22 20 22 24 33 47 48 42 31 25
68 69 62 60 49 38 32 29 28 28 28 29 31 34 33 34 38 42 39 45 50 49 48 46 43 43 42 42 41 38 34 34 34 34 28 26 28 26 22 21 26 26 24 37 47 46 44 36 31
64 66 61 58 50 41 34 32 28 28 29 29 29 30 31 35 33 38 42 45 51 50 49 47 45 43 43 43 41 40 37 35 34 32 29 26 25 22 23 25 31 28 33 37 39 39 37 32 31
60 58 57 51 47 41 36 33 32 29 29 30 29 30 32 33 35 36 40 46 51 53 50 47 45 45 44 44 43 43 41 37 37 35 32 27 26 24 23 26 33 33 36 39 41 40 34 33 31
51 52 48 44 41 42 35 35 32 29 28 29 28 29 32 35 35 36 40 44 49 49 50 49 46 44 45 46 45 45 44 41 38 38 34 31 28 28 26 24 27 32 36 38 39 39 38 37 31
46 48 48 44 42 36 34 34 31 31 28 28 27 27 31 34 35 35 35 41 45 46 52 52 49 45 45 45 44 45 46 45 41 40 39 33 30 29 28 29 30 31 34 36 37 36 35 32 33
57 46 40 40 39 35 33 33 31 29 28 27 25 26 30 31 33 34 36 39 39 39 48 51 51 48 45 45 45 45 45 43 45 43 41 37 33 31 31 31 31 32 35 35 35 33 33 36 37
64 52 37 32 35 35 32 30 31 29 28 28 26 25 28 32 32 35 36 40 40 39 38 44 48 47 45 44 45 46 45 45 46 45 41 45 40 38 36 32 33 34 35 35 35 35 35 36 38
64 56 48 45 39 35 35 33 33 32 33 30 29 28 30 31 33 39 38 37 35 40 38 36 39 46 46 46 44 46 47 46 47 50 49 45 44 37 35 35 36 36 36 36 36 37 39 42 43
59 60 62 53 48 44 41 40 36 35 35 34 31 30 29 36 38 39 41 38 34 33 36 39 39 42 47 51 48 49 46 45 48 52 49 45 44 44 43 41 39 39 38 42 44 45 44 42 43
54 59 60 61 56 52 48 46 42 37 38 35 32 30 30 34 39 39 40 42 37 33 33 38 39 40 46 52 52 52 50 46 45 46 46 42 43 46 46 45 41 40 42 43 45 47 45 47 46
54 56 56 60 58 57 53 50 47 40 38 34 31 29 29 31 36 41 41 41 39 37 35 37 34 35 39 44 45 47 51 51 49 48 46 40 42 45 46 46 44 41 39 42 46 49 46 48 49
60 55 54 52 54 54 54 49 42 41 39 34 29 26 26 29 33 35 37 40 40 39 40 41 41 39 38 39 40 41 45 51 52 54 51 44 42 44 45 45 44 42 42 42 45 47 47 50 51
65 60 56 42 44 50 47 38 39 36 35 33 29 25 24 24 28 32 34 34 33 35 37 39 37 37 39 38 37 37 38 43 46 51 54 50 47 46 43 42 45 45 45 45 45 45 47 51 53
67 51 46 50 40 42 41 37 37 33 31 33 30 25 22 20 20 23 27 30 32 32 32 34 36 32 32 36 38 38 35 37 41 47 50 51 51 50 48 45 45 47 48 49 48 48 49 53 55
51 48 50 49 42 39 38 36 37 31 29 28 28 25 23 19 17 17 21 24 27 30 31 30 30 29 30 34 36 34 33 34 39 43 47 50 52 54 51 51 52 54 54 53 53 52 51 55 58
56 55 53 46 39 41 39 39 34 33 29 25 23 22 21 21 19 17 15 17 20 23 24 26 26 26 29 29 31 35 32 30 32 37 46 46 50 52 57 60 62 63 63 63 60 60 58 59 65
63 59 51 48 44 37 39 37 33 30 27 25 23 22 20 20 19 18 16 15 16 20 23 25 26 25 24 30 26 28 32 33 32 35 41 45 46 54 56 64 65 65 69 71 67 67 67 67 72
73 57 50 47 44 41 38 36 33 29 26 25 23 22 21 20 19 18 16 15 15 15 17 19 20 22 23 24 29 31 32 32 32 32 33 40 43 49 54 60 67 69 72 71 71 74 74 74 77
86 68 58 51 50 49 41 38 33 29 28 26 25 25 24 22 20 19 18 16 15 15 15 15 16 17 18 20 25 29 28 29 29 32 34 36 40 42 45 52 57 62 67 71 75 79 81 82 80
94 78 64 60 57 54 49 44 35 30 30 31 31 30 26 25 23 22 20 19 18 17 17 18 18 19 20 21 23 28 31 31 28 30 33 35 37 40 43 45 55 57 60 60 61 70 80 81 84
95 87 75 65 61 65 49 46 35 31 30 31 32 32 30 28 27 25 22 21 20 19 18 18 18 18 20 22 24 27 34 36 36 34 31 30 32 36 39 44 48 55 58 59 61 64 71 76 82
96 94 93 83 74 56 50 50 35 34 32 33 33 34 32 30 29 28 25 23 22 21 20 19 19 19 19 19 21 24 26 29 34 35 38 37 36 33 33 36 41 46 51 59 65 71 77 81 86
89 82 76 72 65 50 54 45 36 35 33 36 36 34 34 34 32 30 27 25 24 23 22 21 20 20 20 20 20 20 21 22 24 26 31 35 35 32 35 39 43 46 48 51 59 66 72 78 84
82 86 71 67 65 56 45 42 37 36 37 37 36 35 36 36 34 33 31 29 28 27 26 25 24 23 23 22 23 23 23 24 24 25 26 27 28 29 30 33 38 41 45 49 53 61 73 76 82
82 75 72 72 63 52 37 37 36 39 40 41 40 38 39 40 40 40 39 37 35 34 33 33 32 31 30 28 27 27 28 28 29 29 30 31 32 32 32 33 35 37 40 45 51 57 62 73 88
79 78 69 59 53 40 31 27 31 38 41 40 40 40 42 44 45 44 43 42 41 39 38 37 36 35 35 35 35 33 32 32 34 36 38 40 41 42 41 41 41 42 47 50 53 56 59 64 72
75 71 64 64 61 52 48 32 33 38 39 40 40 42 45 47 47 48 48 48 46 44 42 39 38 37 36 36 37 38 39 37 37 38 39 41 43 45 48 48 50 54 55 56 60 62 66 70 71

GFSSGP_prec_cthk_069.txt.gz
RH
66 60 58 52 50 45 44 41 35 30 27 25 23 21 22 26 30 46 45 39 39 37 37 35 40 39 40 38 40 38 38 37 34 34 34 33 32 31 30 29 26 23 24 41 37 29 21 18 17
73 71 64 59 53 49 42 43 40 34 33 28 25 24 22 26 35 46 47 39 40 43 43 40 41 40 42 44 39 35 36 36 35 35 34 33 33 32 30 24 22 20 25 46 45 38 30 22 20
80 78 71 65 59 47 43 43 41 38 35 31 31 30 33 34 36 42 44 43 46 51 46 45 41 41 43 42 42 38 34 33 33 34 33 32 33 30 25 22 19 20 22 41 48 44 35 30 24
85 81 77 70 59 49 42 44 40 37 34 33 33 36 37 38 41 44 42 46 53 54 54 45 41 45 44 43 41 40 33 32 32 32 32 28 28 26 22 21 21 25 23 39 46 42 38 34 28
86 83 75 69 61 53 47 45 37 32 32 33 33 38 40 40 40 42 42 50 54 54 52 47 45 46 46 42 43 41 37 34 33 32 28 23 23 21 21 25 25 26 31 39 39 38 35 29 28
74 73 71 67 58 54 51 46 37 32 31 32 30 32 39 39 40 42 45 52 54 55 53 48 45 45 48 44 45 47 40 37 35 34 28 25 23 22 21 27 27 31 32 37 37 37 35 31 29
49 63 58 57 55 56 52 51 38 32 30 30 29 29 41 42 39 43 48 52 55 57 52 51 47 45 49 49 45 48 44 40 37 36 34 26 25 25 24 26 31 32 31 33 35 36 34 34 30
49 54 62 58 50 51 52 52 41 35 31 32 30 30 36 44 40 42 47 49 51 55 56 54 51 47 47 46 46 45 44 44 41 38 37 30 26 26 26 26 28 33 34 35 36 35 34 33 30
66 53 54 55 50 47 52 53 42 38 35 34 29 31 40 39 37 38 42 45 46 50 54 53 52 50 53 54 46 45 45 45 45 42 39 33 29 29 28 29 30 34 33 35 34 33 32 31 34
71 55 42 46 45 48 50 49 41 37 32 30 27 29 31 34 35 38 38 43 40 41 49 53 54 53 52 53 50 46 46 46 45 45 41 40 39 36 34 32 31 31 34 35 34 33 32 34 35
60 61 47 42 50 48 47 43 37 37 33 29 28 28 30 32 35 38 39 40 42 42 42 45 51 52 51 50 49 46 52 45 45 46 43 44 44 42 37 33 32 32 34 34 33 34 35 39 44
53 56 66 60 54 45 40 41 39 35 35 33 32 33 31 32 32 35 38 39 40 40 42 40 44 47 51 51 44 47 48 47 47 48 47 47 47 45 40 40 35 37 35 39 38 41 43 44 44
60 53 67 72 62 54 47 45 43 39 41 37 34 32 30 31 34 34 37 39 44 39 39 40 42 42 47 49 50 51 49 49 47 47 46 47 48 47 44 41 42 42 40 41 41 43 47 47 46
70 61 65 73 71 67 59 52 52 46 41 38 37 33 31 30 30 38 36 39 39 41 42 39 39 41 43 49 52 52 49 49 50 49 49 47 46 47 48 47 45 45 43 41 40 42 43 46 47
72 69 62 67 72 69 68 61 51 52 48 40 38 34 31 30 30 30 38 41 39 41 42 41 41 39 38 41 45 47 45 45 47 49 51 51 49 51 51 49 46 47 46 44 41 41 42 45 45
70 69 65 59 65 66 68 53 53 51 49 44 38 35 31 27 28 29 32 35 39 45 47 46 43 40 38 40 44 43 42 40 41 42 47 50 52 56 58 54 50 49 48 45 45 43 44 45 45
75 73 55 49 48 60 61 55 51 48 47 44 40 35 32 27 26 25 29 32 34 35 39 43 42 38 33 34 38 42 40 39 38 40 43 45 50 53 54 55 54 53 51 48 46 48 48 49 46
73 63 49 47 50 47 52 55 54 50 47 42 41 38 35 29 25 24 24 27 30 32 32 31 33 38 38 37 33 34 37 40 40 40 39 40 43 49 53 58 58 57 56 52 52 53 54 54 52
65 65 60 53 50 46 47 47 48 45 44 42 36 33 33 29 26 24 22 21 23 24 27 29 29 30 35 39 33 32 33 40 40 41 39 40 41 45 50 55 59 59 59 58 60 64 65 66 63
75 65 56 60 52 46 48 41 44 44 41 38 34 29 27 27 24 24 21 19 17 17 19 23 28 30 31 33 34 30 30 31 34 34 35 36 37 39 41 49 55 58 61 64 65 71 70 72 71
86 70 63 61 50 46 45 48 40 34 34 36 34 26 24 23 23 21 19 18 17 16 16 17 20 24 27 29 32 32 33 34 30 28 29 32 37 40 39 42 49 59 64 67 70 72 74 74 74
84 70 66 62 52 42 40 37 39 32 28 26 28 31 26 24 23 21 19 19 18 16 16 15 16 17 20 23 26 29 31 31 31 31 30 32 35 38 47 52 50 54 63 66 69 73 73 77 75
92 79 72 59 52 52 50 45 48 36 30 28 29 31 32 31 30 27 22 21 20 17 16 16 16 16 17 17 18 21 25 31 33 32 33 34 37 36 40 52 58 58 60 64 69 73 76 74 77
85 82 79 69 66 68 50 42 46 36 31 35 35 32 30 29 28 26 25 24 24 20 19 18 18 18 18 20 21 22 25 30 34 35 35 37 38 38 37 41 46 50 55 61 59 68 78 78 78
92 93 98 95 84 59 48 49 42 36 32 33 35 36 33 33 32 32 29 27 26 24 22 21 20 19 19 19 19 20 23 27 31 34 36 37 37 37 38 38 39 44 50 55 58 65 72 78 81
97 97 98 80 65 53 51 50 40 35 33 37 37 35 35 35 35 33 32 30 28 27 25 23 21 21 19 19 19 19 20 21 24 30 33 36 37 41 37 36 36 38 43 49 52 54 55 57 63
97 94 77 68 61 55 45 39 38 36 34 37 36 36 37 37 36 35 33 32 31 30 29 26 25 24 23 22 22 23 24 23 23 24 26 31 33 36 37 36 36 36 41 46 52 57 61 63 67
89 85 81 81 71 62 45 40 37 35 36 36 38 39 39 40 40 38 37 36 36 35 33 32 31 30 30 29 27 26 26 26 26 28 30 31 32 33 33 34 36 38 40 45 50 53 57 60 64
82 83 78 71 64 59 46 38 39 37 39 41 40 40 41 43 44 43 42 42 42 40 39 38 36 35 34 33 32 32 32 31 30 29 30 31 32 32 33 35 37 39 43 48 55 57 58 63 69
75 74 72 75 70 59 61 44 35 39 41 40 41 41 43 45 46 46 46 44 43 42 41 40 39 37 36 35 35 34 35 35 35 33 29 29 30 31 35 39 41 43 48 53 55 59 60 63 67

GFSSGP_prec_cthk_072.txt.gz
RH
67 61 56 54 56 47 42 35 37 31 29 26 23 22 23 23 33 48 46 44 41 33 29 32 37 39 38 38 36 36 37 37 36 35 34 32 31 30 29 26 25 22 40 37 31 22 18 16 12
74 72 68 63 58 53 42 38 42 33 31 25 23 21 22 30 34 43 46 46 42 34 32 34 39 41 41 41 39 36 37 38 34 34 34 32 30 30 28 23 20 21 38 46 40 32 24 20 14
69 83 83 69 61 53 45 41 44 39 32 28 27 24 24 38 39 41 46 44 43 38 35 38 40 43 41 41 38 36 35 34 33 32 32 31 30 27 24 20 18 18 33 44 43 38 30 25 18
75 84 85 77 62 51 46 47 46 43 36 32 30 30 34 38 36 36 42 44 45 44 44 40 40 42 43 42 40 42 35 31 30 30 30 28 26 24 20 19 19 18 31 41 40 38 31 28 23
89 89 93 80 68 57 50 46 48 45 37 35 32 37 41 39 37 38 40 47 50 46 46 43 40 44 44 43 43 41 38 33 31 30 22 21 22 18 19 22 23 25 31 37 38 36 32 27 23
87 91 94 92 74 60 55 52 50 46 38 38 34 39 48 44 41 44 45 49 52 50 51 45 44 47 46 44 44 43 40 36 33 30 22 20 20 19 22 24 26 27 33 34 35 34 34 30 27
75 80 80 79 75 67 59 58 57 45 39 36 35 38 50 49 45 47 50 54 51 53 53 48 45 47 49 45 46 43 42 39 36 32 26 23 21 21 22 26 29 28 30 33 33 33 32 31 27
74 73 79 77 73 68 62 57 59 49 38 33 34 34 61 50 47 48 50 51 50 55 55 49 46 45 49 49 45 44 44 42 39 36 32 26 24 24 23 24 28 31 30 31 32 33 31 30 27
75 80 71 64 69 57 59 61 60 55 44 37 34 35 53 50 43 46 50 49 50 53 54 53 51 45 47 44 45 45 44 44 43 39 37 30 26 26 25 26 28 33 31 29 32 32 30 28 29
76 72 57 45 51 57 58 63 64 58 48 38 36 37 40 42 40 43 48 47 47 49 53 51 48 44 42 43 44 44 44 44 44 44 40 33 31 30 29 28 27 29 31 32 33 32 30 30 32
71 62 55 45 50 60 66 62 64 56 49 39 34 35 33 38 41 41 46 46 44 44 46 49 49 50 49 47 46 43 40 43 43 44 42 39 39 38 36 34 29 29 29 32 33 32 32 34 36
64 52 59 59 65 60 64 61 58 54 44 40 36 34 32 34 38 40 41 40 39 40 40 44 46 48 49 49 46 42 42 44 45 45 44 41 42 41 38 36 34 31 30 32 32 33 33 35 40
72 53 53 68 73 58 53 55 52 50 46 43 39 36 36 37 35 36 40 39 40 39 38 41 43 44 43 45 43 42 46 45 44 44 44 45 45 42 41 38 39 37 34 34 35 36 38 39 39
77 75 59 68 76 66 55 53 51 42 48 43 41 38 34 34 40 39 37 38 42 40 36 39 41 39 43 44 40 44 48 48 48 46 45 46 45 44 45 44 44 43 43 40 40 38 39 39 39
70 82 72 63 67 72 70 58 50 46 51 49 40 39 36 33 32 35 38 37 38 42 42 37 38 38 39 39 46 49 49 46 47 45 46 45 44 42 43 44 44 48 50 46 45 43 41 41 40
73 82 90 73 61 70 70 66 58 55 53 51 42 38 37 34 32 31 32 36 39 41 42 39 36 38 38 39 42 46 42 42 42 43 42 41 41 42 46 46 46 50 52 52 51 48 46 43 43
77 88 85 75 63 63 63 64 63 60 56 53 50 42 38 34 32 30 29 31 34 43 48 49 42 38 38 41 43 45 47 46 43 40 36 35 35 39 43 45 48 51 53 55 55 54 53 49 46
66 72 64 66 61 57 54 61 65 64 55 52 51 46 41 35 31 29 27 26 30 33 37 45 52 52 44 42 40 40 39 39 42 40 38 38 37 38 38 39 43 48 49 51 55 57 57 57 55
77 76 67 61 56 61 49 50 55 59 60 55 49 48 44 40 35 32 28 27 26 28 31 35 37 42 46 42 37 36 36 40 41 41 41 40 41 38 39 39 41 43 47 50 57 58 58 60 65
80 80 74 67 72 61 54 45 47 50 53 56 50 46 44 42 39 34 30 27 25 24 24 27 32 32 31 36 39 37 37 36 38 42 38 38 39 43 43 42 42 44 51 55 53 57 62 64 69
71 77 75 70 74 67 54 48 42 43 47 51 48 42 41 39 35 32 30 28 25 23 21 20 21 24 27 30 35 35 35 34 33 32 32 36 40 40 42 46 49 51 55 52 54 60 67 72 74
73 73 79 73 75 75 56 50 36 37 45 45 45 37 36 36 33 29 26 25 23 21 19 18 17 16 16 20 23 28 28 30 28 27 29 30 29 31 40 47 48 53 53 56 64 68 66 71 76
74 85 77 84 76 69 60 54 35 37 42 41 34 38 37 38 34 29 25 23 22 20 19 18 18 18 18 18 18 19 22 27 34 33 30 29 27 26 28 36 48 49 55 56 60 68 68 69 76
90 88 92 87 80 91 62 53 42 37 40 44 31 33 33 35 37 33 28 28 26 23 20 19 19 18 17 18 19 20 20 21 26 32 35 33 33 35 37 38 39 43 51 55 60 62 68 68 70
97 98 98 98 96 85 59 65 41 37 35 45 39 34 35 33 32 32 33 31 30 26 23 22 21 20 19 18 18 19 21 23 26 30 33 34 36 38 40 44 42 39 41 45 49 54 60 67 71
92 96 96 89 90 71 61 66 45 36 37 44 44 41 39 39 37 34 31 30 28 27 25 23 23 21 19 19 19 19 20 20 21 24 28 31 33 35 35 36 36 37 39 41 43 46 52 60 67
95 96 92 85 69 77 64 52 44 39 39 40 47 42 40 38 41 38 34 33 31 30 28 27 25 23 22 22 21 21 21 21 21 22 25 28 30 33 35 38 38 39 41 43 46 50 55 61 68
97 90 94 95 88 79 62 52 45 42 39 40 40 42 41 39 39 37 36 35 35 33 32 31 30 29 28 28 27 27 26 25 26 25 26 28 30 31 32 33 32 31 34 36 39 44 48 53 62
97 98 83 80 76 82 69 52 41 39 38 39 39 39 39 41 41 40 41 40 40 39 38 37 36 34 34 34 33 32 32 31 29 28 28 28 28 27 25 25 26 28 32 35 38 41 47 51 55
80 85 80 88 79 78 78 59 47 43 44 43 43 41 43 44 43 44 45 43 42 42 40 39 38 37 37 37 36 35 34 33 33 33 34 30 26 26 28 29 30 32 36 39 43 47 53 56 62

GFSSGP_prec_cthk_075.txt.gz
RH
73 65 56 53 51 47 40 31 34 32 28 25 21 21 22 28 38 44 42 43 42 34 29 31 33 36 36 34 32 30 31 34 34 34 32 30 28 28 27 25 24 35 36 29 21 18 16 12 10
73 70 64 63 64 57 43 33 37 33 32 26 22 21 26 38 35 39 42 42 41 37 31 33 37 38 39 37 32 30 31 33 33 32 31 30 29 28 26 23 21 34 38 35 30 26 20 14 12
72 70 70 73 69 60 45 35 39 34 31 28 26 22 28 38 37 40 37 43 46 39 32 34 39 40 40 39 37 33 29 30 30 30 31 30 29 25 21 18 17 30 36 35 34 28 25 16 15
70 71 73 84 75 54 46 43 44 41 35 32 28 26 31 35 36 39 37 42 47 38 34 37 41 41 41 39 38 36 33 29 29 29 29 29 26 22 18 17 17 27 35 33 34 31 27 21 20
68 71 79 84 74 57 47 53 52 44 39 35 32 35 39 37 34 34 37 42 42 41 36 38 44 43 42 41 40 38 35 33 29 25 20 20 20 17 16 17 17 26 34 35 35 32 26 22 22
75 74 76 72 75 60 54 59 56 48 40 38 35 40 46 43 37 38 42 42 45 44 41 39 42 44 42 42 42 40 36 34 32 21 20 19 18 18 18 19 19 25 29 32 31 30 28 26 25
77 81 73 68 70 69 63 67 61 54 44 40 37 41 51 49 45 48 48 46 46 48 47 41 41 44 44 43 44 41 40 37 33 25 22 21 20 20 22 24 25 27 29 29 29 30 27 26 24
66 79 80 83 80 80 69 72 72 59 47 42 39 48 54 55 53 53 53 51 53 56 54 49 46 46 46 46 44 43 42 39 37 32 28 23 22 21 23 27 27 27 29 30 29 28 27 27 27
71 75 84 82 78 69 74 74 70 66 53 45 43 42 47 56 57 59 55 56 56 57 54 51 46 48 47 47 45 44 43 43 42 39 29 27 25 24 25 25 27 28 28 30 29 28 28 27 28
74 79 63 64 67 70 76 79 76 74 62 50 48 45 46 54 56 60 55 53 54 55 54 48 47 46 45 44 43 43 42 43 43 40 33 31 28 29 28 29 32 28 27 28 29 30 29 29 31
73 57 49 64 62 75 76 79 76 75 63 58 54 44 41 43 49 61 61 52 50 51 52 52 48 45 43 42 40 41 41 41 41 41 39 38 35 35 34 32 31 33 31 29 30 30 29 30 32
75 64 58 63 70 73 71 68 72 77 63 60 56 45 36 37 40 51 56 54 52 49 48 48 49 47 45 42 41 41 39 38 40 40 42 40 39 40 40 36 35 35 35 35 33 31 30 31 33
65 73 68 67 77 63 59 58 68 68 64 62 56 48 41 39 39 42 47 50 55 54 48 45 43 41 43 44 45 44 40 40 40 40 42 42 40 41 40 39 39 39 38 39 38 35 32 33 34
56 69 73 75 70 69 64 56 58 65 63 60 54 54 45 42 39 40 38 40 44 47 49 46 44 42 41 39 38 36 36 39 41 41 43 44 42 42 41 40 39 42 41 41 45 47 43 41 40
61 71 76 76 66 69 67 60 53 59 64 59 55 52 49 43 41 40 39 39 37 40 44 48 48 45 41 40 39 38 37 38 43 44 42 44 43 43 43 41 40 43 44 43 44 47 50 50 47
64 74 89 81 69 66 62 62 53 55 61 56 54 50 45 42 38 36 35 35 39 39 38 42 46 48 45 42 39 36 38 41 43 40 40 41 42 42 40 38 38 43 45 45 45 46 49 52 52
67 79 76 85 80 59 54 55 61 58 56 52 47 49 42 40 38 34 32 34 36 40 40 40 41 40 42 43 42 42 40 42 41 43 40 38 38 37 35 36 37 39 43 44 45 44 46 50 54
56 65 71 68 67 67 53 48 58 67 58 52 50 50 49 41 36 35 33 31 35 35 38 43 44 46 48 51 49 47 44 41 39 36 38 38 40 39 38 39 39 39 40 42 43 45 47 49 54
64 62 66 70 69 75 69 57 48 57 67 60 52 48 50 45 40 37 34 32 30 31 36 36 41 42 47 50 54 53 49 46 41 38 40 43 40 40 40 40 41 43 43 44 46 48 52 54 58
73 67 62 63 72 73 71 59 50 49 56 63 60 56 50 50 43 39 35 32 30 28 28 32 36 38 39 40 44 47 45 45 44 44 42 44 41 41 42 42 40 44 46 50 49 53 57 59 64
76 74 73 71 70 72 69 66 56 43 46 53 56 57 53 48 46 41 37 34 32 30 29 28 29 33 36 35 34 35 38 38 40 40 41 42 47 47 49 47 44 45 48 49 54 58 63 70 74
80 69 78 82 80 86 71 70 52 40 37 46 47 49 54 48 44 42 39 34 33 33 33 30 27 25 25 27 28 27 26 28 28 31 35 37 39 41 43 49 48 47 44 43 49 55 67 65 72
85 85 83 85 87 76 72 70 46 39 36 33 42 46 49 49 41 40 39 38 34 30 30 27 24 22 20 19 21 21 21 21 25 27 27 27 28 30 33 34 34 34 38 43 48 52 53 59 61
75 75 84 93 96 97 71 69 50 42 30 32 36 45 47 47 39 38 38 34 30 25 23 25 23 21 20 20 20 20 22 22 22 24 28 30 32 30 28 28 32 38 41 43 45 47 49 52 57
76 81 97 98 98 89 74 72 44 41 32 33 35 44 45 40 41 38 38 39 36 29 24 22 21 20 19 19 19 19 20 21 22 23 27 33 36 37 34 34 35 37 39 40 41 43 46 50 52
87 91 88 89 90 82 70 73 53 43 38 34 37 46 46 38 34 35 36 39 39 32 29 28 27 24 21 20 19 18 18 18 19 20 22 27 30 30 30 31 32 34 37 41 42 42 41 42 47
78 91 94 94 74 78 69 59 53 50 43 42 41 46 51 45 38 37 35 33 31 31 31 29 26 24 23 22 21 20 20 19 19 19 20 23 26 29 32 34 37 39 39 35 32 34 36 37 41
77 79 98 95 95 85 69 66 61 52 51 44 42 45 55 49 41 39 38 36 37 35 32 30 29 28 28 27 25 24 23 23 22 23 23 25 26 29 31 31 32 32 31 28 27 28 32 35 39
89 91 90 89 97 88 76 63 54 50 50 48 46 47 49 55 49 43 40 39 39 37 36 34 33 32 31 30 30 29 29 29 29 28 27 27 27 27 28 29 25 24 24 25 27 29 32 37 41
88 90 84 90 92 85 83 64 52 51 51 48 48 47 46 49 52 49 45 44 42 40 39 38 37 35 34 33 33 33 33 33 33 32 31 31 31 31 29 24 24 25 25 27 30 35 39 43 45

GFSSGP_prec_cthk_078.txt.gz
RH
68 68 57 53 49 47 41 30 27 27 24 21 21 26 33 32 45 47 46 42 40 37 34 29 30 32 36 35 32 31 32 33 32 30 29 28 27 27 27 29 34 34 27 19 19 16 12 11 11
77 76 70 60 60 59 42 30 33 32 27 24 23 28 32 41 39 43 44 41 39 38 32 29 31 36 39 38 32 29 31 32 30 29 28 27 26 25 24 23 35 35 33 28 23 16 12 12 13
72 80 77 70 70 62 45 35 38 35 31 29 25 24 30 35 36 39 41 39 39 35 32 31 34 38 40 40 36 32 28 28 27 27 26 27 25 22 19 19 29 34 34 30 25 22 15 15 17
73 83 76 78 74 57 44 44 44 38 33 31 29 33 33 33 34 34 39 41 40 39 34 35 37 40 41 41 41 36 32 28 27 27 27 25 23 19 16 16 24 33 32 30 27 23 17 18 20
67 78 82 77 72 57 47 49 50 42 37 34 33 36 36 37 36 33 38 40 42 41 36 39 40 43 44 42 41 39 35 32 27 23 21 17 16 16 15 16 20 29 30 29 28 26 21 21 23
72 71 84 70 62 55 51 58 55 48 40 36 38 40 38 37 34 35 36 42 44 39 36 40 43 46 45 44 42 39 37 34 27 22 19 17 16 16 16 16 20 26 28 28 26 25 24 23 24
67 75 70 64 59 57 59 65 64 56 43 37 38 46 45 42 37 38 40 45 49 43 37 41 45 47 47 45 44 40 38 33 28 25 23 20 18 19 19 18 20 26 27 28 26 26 25 23 25
65 70 74 67 59 56 64 70 69 65 51 44 43 48 50 46 41 43 47 50 53 51 41 40 46 48 47 47 45 42 40 36 30 27 25 23 22 22 22 22 24 28 29 29 27 26 25 24 25
63 74 72 64 59 52 62 70 75 72 62 48 44 42 43 49 48 51 54 58 57 57 51 46 42 49 48 48 45 44 42 39 35 31 28 26 26 26 26 26 31 33 31 32 29 28 27 26 26
72 70 60 51 56 56 75 77 84 76 68 55 52 48 51 56 54 55 60 62 61 58 60 57 52 50 48 48 46 44 43 41 38 35 33 30 30 30 29 28 30 33 34 34 31 29 28 27 28
67 54 47 55 68 76 86 80 86 82 75 63 57 54 57 64 61 61 64 63 61 60 60 54 54 50 47 46 45 43 40 39 39 38 37 35 34 33 31 31 32 32 31 33 34 35 31 28 30
63 53 52 60 74 88 86 82 86 87 76 63 64 51 51 55 61 58 63 61 62 60 58 58 54 51 49 47 44 42 39 39 39 39 38 38 38 38 35 35 34 36 38 38 39 39 39 37 34
64 64 55 68 73 75 77 81 82 81 80 72 63 66 53 50 52 56 62 63 61 56 52 51 50 48 49 48 47 43 40 38 38 39 39 41 40 39 39 39 38 37 37 40 39 39 41 43 46
61 71 73 67 67 69 75 76 79 79 84 75 67 66 63 54 50 48 55 60 63 62 55 51 48 44 43 42 42 42 42 40 41 41 39 39 40 41 41 41 39 39 39 38 40 40 41 42 45
63 69 81 81 70 66 73 74 71 75 81 77 74 67 68 64 56 48 44 46 55 61 61 55 49 44 41 40 39 38 38 34 35 38 41 46 44 42 41 42 41 38 38 39 41 43 42 45 45
57 73 75 73 75 68 73 63 68 72 74 71 70 68 68 60 54 51 48 44 41 46 48 54 52 46 41 39 39 39 38 35 36 38 42 41 39 38 39 38 37 36 37 40 43 45 46 45 45
56 65 65 62 62 64 68 61 65 66 73 69 67 66 61 56 49 43 40 38 37 37 43 46 50 49 47 46 46 43 41 39 38 37 38 38 39 38 34 34 34 34 35 37 38 39 41 41 42
60 58 66 67 66 67 68 62 59 63 63 63 69 64 59 56 51 43 40 36 33 34 36 44 46 47 51 52 49 48 45 43 42 41 43 40 37 37 35 37 38 38 37 38 40 42 45 45 47
64 59 60 68 71 75 71 65 58 58 63 58 54 54 54 53 52 45 39 37 33 33 35 36 40 44 49 48 50 52 51 51 49 46 43 43 40 39 41 40 39 40 40 40 41 45 48 50 52
66 61 60 67 66 73 74 67 62 54 49 56 57 53 52 50 50 45 41 35 33 31 31 32 34 37 41 48 51 54 51 54 58 54 48 44 43 43 43 42 46 51 52 49 46 47 50 51 57
82 68 64 59 62 67 68 68 68 54 47 46 52 57 55 52 49 46 42 39 35 34 32 31 32 32 32 35 42 44 46 46 47 47 44 42 44 45 48 51 52 51 51 50 53 51 48 47 55
92 82 74 69 67 72 62 68 54 52 50 43 42 51 57 54 51 49 46 43 41 38 35 34 33 32 32 32 31 34 37 38 39 41 44 49 46 42 38 41 46 48 51 52 47 48 44 50 52
87 85 86 81 84 74 71 72 53 49 51 40 33 40 55 55 51 51 50 45 43 41 37 34 34 33 30 28 29 28 27 27 27 27 27 28 31 33 34 36 39 42 40 35 34 37 45 56 55
85 84 81 87 92 89 76 77 53 44 37 39 34 31 48 52 50 52 51 49 46 40 36 35 34 30 29 28 28 27 27 24 24 24 23 22 23 26 30 32 34 32 29 33 37 45 52 51 60
90 92 97 97 94 83 72 75 45 39 37 38 34 30 37 46 47 50 53 50 45 42 38 34 30 27 28 28 27 26 23 23 23 23 23 23 24 27 30 38 37 38 42 44 43 39 37 44 45
86 85 86 81 85 75 71 68 48 44 40 38 37 35 34 46 47 49 53 48 43 41 41 39 36 31 26 24 27 25 24 22 21 22 22 23 25 29 33 36 36 34 35 40 40 40 40 40 40
89 90 81 79 71 75 68 55 46 47 47 44 42 42 40 43 52 48 46 45 43 41 41 42 41 33 27 26 25 22 21 20 20 20 20 20 22 25 30 32 32 33 36 36 38 36 34 30 31
85 80 90 89 92 80 65 58 55 55 56 51 47 44 43 46 56 50 42 36 38 39 39 40 42 38 32 30 29 26 24 23 22 22 22 22 23 25 28 31 33 34 36 36 33 30 25 25 27
85 83 83 88 89 87 78 59 48 54 55 55 54 48 48 49 55 55 47 38 37 37 37 36 35 36 34 30 30 29 29 29 28 28 27 26 26 27 28 29 30 30 31 28 25 25 25 26 30
74 69 70 80 84 84 75 62 50 55 58 56 56 54 52 50 50 60 52 44 42 41 40 39 41 38 36 34 34 34 33 33 32 32 32 32 32 32 31 30 29 31 26 25 25 26 28 32 34

GFSSGP_prec_cthk_081.txt.gz
RH
53 56 53 52 52 49 42 31 27 23 18 18 30 35 36 37 40 46 45 38 40 35 34 33 29 30 31 31 32 30 30 32 30 29 28 27 26 28 27 31 30 23 18 17 15 13 11 11 11
57 61 62 54 57 61 44 30 30 28 23 22 28 36 40 42 44 49 45 40 41 35 33 29 28 30 33 32 29 29 31 31 31 29 28 26 24 23 23 33 32 29 24 20 14 12 12 12 13
59 68 68 65 62 59 48 32 33 32 28 25 24 28 37 38 44 50 46 42 41 34 32 32 29 32 36 37 33 30 29 29 28 28 25 25 22 20 19 27 32 30 29 22 18 14 14 16 17
61 68 76 77 64 52 48 37 38 38 32 31 29 31 34 37 39 43 46 43 40 35 31 35 31 34 39 39 37 33 30 28 28 26 24 21 20 18 16 21 28 28 27 25 22 16 16 17 19
65 69 81 87 69 55 52 46 44 43 40 36 32 36 36 36 38 42 45 46 40 37 34 38 35 35 40 40 40 39 34 31 29 27 22 18 18 15 15 18 25 26 25 25 24 20 20 21 23
66 65 72 80 66 55 59 52 53 50 43 40 34 40 38 36 36 37 42 46 46 38 36 40 38 39 41 42 41 41 38 36 32 27 20 18 16 16 15 17 24 25 26 26 25 22 21 23 25
60 66 64 58 65 61 64 59 58 56 50 45 38 47 42 38 37 36 39 44 46 45 39 41 40 43 44 44 43 41 40 36 33 30 25 21 19 19 18 18 24 26 27 27 25 23 22 24 26
60 64 68 60 56 58 66 64 59 59 57 51 43 53 46 37 38 39 42 44 47 43 42 41 42 45 46 46 45 43 41 39 32 28 27 25 23 22 21 22 27 29 28 28 26 25 24 25 27
62 73 65 62 57 57 65 66 65 62 61 54 49 47 48 40 39 42 44 45 48 47 44 43 43 45 47 49 48 45 43 38 33 31 29 27 27 26 25 25 29 32 33 32 28 27 26 25 28
63 60 56 50 55 51 61 62 69 71 67 58 52 53 52 46 42 44 46 43 43 50 48 45 45 46 48 51 51 48 45 41 36 34 32 30 30 29 29 28 30 33 34 35 34 34 32 28 28
59 52 54 56 57 57 62 67 70 75 68 64 62 62 65 53 50 46 49 50 51 55 59 54 46 47 51 52 50 48 46 42 39 38 36 35 33 33 34 32 32 33 33 33 34 35 35 35 35
61 60 58 55 62 61 65 67 65 80 71 69 66 65 73 67 57 49 53 60 61 58 61 62 61 57 54 53 51 48 47 44 40 39 40 39 37 35 35 34 34 35 35 34 35 37 36 35 36
60 63 68 67 62 63 64 70 65 69 80 72 71 69 69 72 67 63 64 67 71 66 61 60 60 61 57 54 51 48 46 45 42 39 40 40 40 38 38 37 37 37 37 36 36 36 38 37 37
61 65 67 70 63 60 65 75 66 72 83 81 72 69 70 70 65 64 68 69 67 67 63 61 57 57 59 58 53 50 49 45 41 39 39 40 40 38 37 38 39 40 37 35 34 33 35 36 36
65 69 72 66 60 59 66 74 62 77 81 87 74 70 74 75 65 59 63 70 72 68 66 61 59 54 51 51 49 47 43 41 38 38 38 38 39 42 42 41 41 41 40 38 37 36 36 39 41
68 68 72 68 63 56 64 60 67 79 84 90 79 74 75 74 69 65 61 64 69 71 67 64 61 58 53 50 48 44 41 40 36 37 38 40 41 45 44 42 42 39 37 37 36 37 39 39 41
68 69 66 72 74 64 63 59 64 75 82 86 81 78 77 79 78 73 67 61 59 59 61 66 64 62 59 54 50 47 43 40 39 39 38 38 39 39 38 39 39 36 36 37 38 38 40 41 42
53 63 65 67 72 74 69 61 61 68 74 79 76 76 73 73 71 72 67 57 47 44 47 53 60 59 58 56 52 49 47 45 42 41 41 40 39 40 39 36 35 36 41 39 39 41 43 41 42
47 48 62 60 63 72 71 68 64 67 73 76 76 77 71 71 68 65 59 53 47 42 40 40 43 49 54 54 51 49 48 49 49 45 44 44 42 42 42 38 38 40 40 39 43 49 50 47 47
64 48 53 54 58 64 70 71 72 76 72 71 71 72 73 73 67 61 56 50 46 42 39 37 39 44 46 50 52 54 52 52 52 51 52 55 55 50 47 49 55 48 44 50 55 53 50 48 54
79 56 52 51 56 64 70 73 71 62 61 67 66 63 60 56 57 55 52 53 44 40 38 36 36 36 43 48 50 50 50 49 50 50 48 54 63 63 60 57 50 53 56 54 51 51 55 56 56
85 63 59 58 61 68 61 72 58 60 59 56 51 53 53 53 51 49 48 46 47 43 40 37 36 36 36 34 33 37 44 46 47 50 51 52 55 55 54 56 53 46 45 48 48 52 52 51 46
87 74 67 64 67 63 61 67 51 49 52 45 42 43 45 50 51 50 48 50 47 46 44 40 38 37 36 35 35 33 31 31 33 37 39 41 41 40 39 38 38 36 37 38 38 39 39 38 42
91 89 82 78 77 74 58 62 50 41 37 41 43 43 38 45 49 51 51 50 50 49 47 45 40 38 35 33 32 33 32 31 29 29 29 30 31 29 29 30 30 31 32 33 34 35 34 38 43
93 93 98 94 91 77 61 68 49 42 39 39 39 39 38 36 43 49 52 53 52 52 52 47 45 41 36 33 31 29 27 29 29 28 27 27 26 26 26 27 29 30 33 39 44 48 52 45 40
89 89 85 84 82 80 65 67 48 42 39 37 35 36 38 34 36 48 55 55 54 54 54 51 45 40 37 34 31 29 27 28 29 29 29 26 25 25 26 27 30 34 36 38 43 39 42 40 41
94 91 82 83 77 81 65 51 41 42 43 42 38 36 37 37 36 41 55 55 52 52 53 50 46 44 40 34 32 32 30 29 28 28 28 26 23 22 23 26 31 35 36 36 37 39 41 40 38
88 85 87 90 90 78 57 53 48 41 44 46 46 44 43 44 40 41 49 53 52 50 51 53 45 43 44 43 41 38 31 27 25 24 24 23 23 23 25 28 30 33 37 41 41 39 38 36 32
92 89 83 80 80 75 70 51 46 44 44 48 50 48 48 49 50 48 50 56 52 48 54 50 47 45 45 44 45 44 36 33 31 29 28 26 26 26 28 29 31 33 35 36 36 36 35 29 25
83 79 77 78 76 71 76 58 47 46 47 54 55 55 54 55 49 51 51 53 57 47 46 44 47 46 45 43 43 46 40 35 33 32 32 32 33 33 33 33 33 33 32 30 30 31 27 25 26

GFSSGP_prec_cthk_084.txt.gz
RH
52 47 45 46 51 52 42 31 27 23 19 28 34 36 40 44 47 51 49 41 38 39 39 38 33 30 31 32 31 31 32 31 28 27 25 24 25 24 28 26 19 17 16 15 14 13 12 12 12
55 51 50 49 49 56 49 34 28 26 24 22 30 34 41 42 41 39 46 41 38 38 39 34 33 30 32 30 29 30 29 29 27 27 26 24 24 24 28 28 25 20 17 14 12 12 12 13 14
60 56 56 54 50 48 47 40 30 31 27 25 27 34 41 43 42 41 43 43 38 38 40 37 31 31 34 32 28 27 27 27 27 26 24 22 22 21 28 29 27 24 19 15 13 13 14 15 17
66 64 61 61 52 42 39 45 38 36 31 30 26 32 40 43 43 46 48 45 40 37 37 37 32 34 35 35 32 29 27 27 26 25 21 19 18 18 22 27 26 25 22 18 16 16 17 19 21
69 65 70 61 56 45 41 48 48 42 37 34 29 31 37 41 42 48 50 45 40 36 39 38 37 36 38 38 36 34 30 29 26 25 21 19 18 16 17 25 25 24 23 20 18 18 20 22 24
72 65 75 61 52 48 50 50 54 48 42 40 35 37 41 41 45 45 47 47 43 36 38 40 41 38 40 40 39 39 36 34 33 30 21 19 18 16 16 23 24 24 24 22 21 20 21 23 25
68 67 61 57 44 54 55 57 54 54 48 46 39 44 45 45 45 46 50 49 46 40 37 41 42 40 42 42 42 41 39 37 36 33 28 24 21 19 19 23 25 25 25 23 22 21 22 23 25
58 62 62 56 48 46 54 65 58 57 56 50 46 49 43 50 51 48 49 50 49 43 38 40 42 41 43 46 45 44 41 39 36 32 29 27 25 23 22 24 28 29 29 26 24 23 22 24 26
63 67 55 52 46 36 49 64 63 58 60 56 50 47 44 47 58 50 46 48 49 45 39 40 40 42 45 47 48 48 45 42 37 31 30 28 27 26 26 27 32 32 32 31 30 30 28 27 27
65 60 54 46 45 43 48 61 66 62 63 63 54 53 54 54 59 57 47 44 45 43 42 40 41 42 46 48 50 50 48 44 38 33 32 31 30 29 29 29 31 33 33 32 32 33 33 32 33
60 58 54 49 47 50 53 58 68 70 68 67 61 58 56 67 71 68 55 49 42 46 45 42 43 44 46 49 53 52 49 46 42 38 35 33 33 33 33 33 32 34 35 35 36 36 35 33 31
61 58 53 53 52 53 55 58 63 68 61 66 62 64 56 58 68 67 64 57 52 44 46 47 46 46 47 51 53 54 52 48 44 42 40 36 36 36 35 36 36 35 36 37 35 35 36 34 33
58 62 57 54 54 55 56 56 60 63 68 70 68 66 61 57 59 69 70 67 65 58 54 57 57 53 47 52 55 54 53 50 47 45 42 42 40 39 37 37 36 35 36 37 35 34 34 33 33
50 66 60 58 56 58 56 55 59 59 63 74 74 69 65 60 65 72 76 72 79 75 62 59 61 61 61 57 58 54 53 50 50 46 42 40 40 40 38 39 39 40 38 36 35 33 33 34 34
57 59 63 63 62 66 59 59 54 54 60 69 74 74 70 69 68 72 78 77 80 77 74 64 61 64 66 62 58 55 56 54 51 44 41 40 39 39 37 38 42 41 40 39 37 36 36 35 38
63 63 66 63 65 65 59 50 53 53 55 61 77 78 72 73 75 71 79 78 82 81 77 71 67 64 64 64 65 62 58 52 47 40 39 38 39 39 41 43 44 43 41 38 36 35 35 36 37
65 73 63 64 67 61 59 53 49 55 56 58 67 77 77 74 76 76 72 76 78 82 80 77 74 71 66 62 60 57 54 50 46 40 38 41 41 41 41 41 40 40 39 36 35 39 39 39 41
69 75 60 61 63 61 59 52 48 52 59 65 71 81 79 75 77 81 78 77 76 77 78 76 76 73 70 66 62 59 54 49 47 45 43 44 42 41 40 39 41 41 38 38 39 40 41 43 50
62 69 67 59 58 66 63 61 54 58 65 72 71 83 85 77 77 79 80 83 75 66 64 64 68 70 72 66 63 60 57 55 51 50 53 52 47 47 43 42 43 43 41 41 45 43 44 52 53
68 67 64 57 56 66 72 71 63 60 60 63 64 75 81 81 75 74 73 74 69 64 59 57 58 59 62 66 66 64 60 56 53 55 57 58 62 60 53 54 55 54 51 59 54 53 56 55 54
76 55 57 51 57 60 66 72 67 62 65 64 63 66 74 75 72 69 69 69 66 63 59 53 51 51 51 52 54 54 57 55 54 53 53 56 61 63 64 68 70 67 61 56 61 65 57 56 56
84 60 50 48 55 66 59 68 62 62 63 60 56 55 60 68 68 68 65 66 66 58 56 55 47 44 44 43 44 45 47 47 48 51 54 56 55 56 59 58 59 58 57 55 54 52 50 49 46
85 77 65 54 60 59 64 70 53 53 57 49 52 57 57 66 69 62 56 60 59 56 51 49 48 48 44 42 41 40 39 39 40 43 47 47 48 53 55 53 53 54 54 45 40 37 38 39 42
88 85 83 70 65 70 58 64 52 49 42 45 49 49 53 61 64 62 58 54 52 52 52 51 47 47 46 45 41 38 35 34 34 34 34 34 35 38 40 39 37 37 34 32 31 33 34 35 37
93 88 95 92 80 65 53 63 49 41 36 37 40 43 48 48 52 56 52 53 54 52 51 53 50 49 46 43 41 38 36 34 32 32 32 32 31 31 30 31 32 32 32 32 31 34 38 39 45
97 85 83 82 79 71 62 64 43 35 38 36 38 38 39 44 45 45 50 50 51 54 54 53 54 51 49 46 42 38 35 33 31 29 28 28 29 30 30 31 30 30 33 34 34 37 39 41 44
97 95 76 78 75 74 63 53 36 37 40 39 36 36 36 38 40 41 41 43 51 53 56 55 53 53 52 49 46 41 38 34 31 30 27 28 28 29 29 29 29 27 28 35 38 41 39 38 39
93 86 90 83 83 78 61 55 46 35 35 37 39 40 39 38 38 42 44 43 47 51 59 58 56 53 50 49 47 43 42 39 35 32 32 31 29 27 25 27 29 30 32 38 41 39 40 41 39
90 90 85 79 80 77 72 54 41 39 39 39 41 40 41 42 42 44 48 46 45 50 59 58 55 52 50 51 51 47 44 41 38 38 37 35 30 28 27 26 27 31 32 33 39 39 40 39 36
85 81 78 79 79 76 74 59 41 45 43 43 46 45 47 49 52 52 54 53 48 48 54 54 52 50 51 54 53 46 43 45 47 46 44 38 34 32 32 31 31 32 34 35 36 36 34 33 33

GFSSGP_prec_cthk_087.txt.gz
RH
55 50 47 49 51 48 41 31 28 23 25 33 39 41 44 47 54 52 51 46 43 41 42 42 38 33 33 33 32 31 30 29 27 25 23 23 22 25 20 17 17 16 15 14 13 13 12 12 11
55 53 51 51 48 49 45 36 30 27 23 29 35 37 45 47 49 49 51 47 43 40 40 39 35 33 32 32 31 30 29 28 26 25 24 24 23 26 24 20 18 16 13 12 12 12 12 13 14
58 54 54 52 48 39 42 42 34 32 27 24 31 35 41 50 49 47 44 45 44 41 40 37 33 33 32 32 29 28 27 27 28 27 25 25 22 26 26 24 21 18 13 12 12 13 14 15 17
62 60 58 55 43 38 35 45 41 37 32 28 25 34 42 47 48 45 42 44 43 41 40 39 35 34 34 34 31 28 27 27 27 24 23 20 19 24 25 24 23 21 16 15 16 17 18 19 21
67 63 64 58 48 40 36 40 46 45 36 32 28 31 42 45 48 48 46 48 47 42 41 39 36 35 37 37 34 31 30 27 25 22 20 18 17 19 24 24 23 22 19 17 18 19 21 23 24
70 67 64 55 45 45 41 37 41 49 44 35 32 32 41 48 50 52 53 52 48 44 42 40 41 39 39 40 38 37 35 32 29 27 21 20 17 17 24 23 23 23 21 19 19 20 21 22 22
64 69 58 44 48 53 44 40 41 41 51 42 36 39 43 49 53 54 62 57 46 46 44 41 41 43 41 42 41 40 38 37 35 32 25 24 20 19 23 25 24 24 23 21 20 21 21 23 24
66 66 60 53 55 46 44 45 45 43 48 51 41 43 43 42 55 58 61 60 53 48 45 42 42 42 42 45 44 44 41 38 36 32 28 26 25 24 23 27 28 30 29 27 25 23 23 24 25
63 72 58 46 52 40 45 45 55 51 51 54 52 46 48 41 48 56 62 65 59 52 47 42 40 42 43 45 47 47 44 40 38 33 30 27 27 26 26 32 32 33 32 30 29 29 28 30 32
64 61 49 48 50 44 45 42 55 62 57 57 57 51 51 49 54 56 58 65 66 59 49 46 42 42 44 45 47 49 48 44 39 35 32 30 30 29 28 31 34 34 34 33 32 32 32 31 31
64 53 49 52 51 50 40 39 51 63 64 57 56 58 54 59 59 62 66 64 65 68 59 51 46 43 44 45 47 49 49 46 42 38 36 34 33 33 32 32 35 34 35 35 35 34 34 33 33
64 55 53 55 54 48 45 39 44 55 61 63 63 59 61 61 61 60 66 65 61 63 63 56 51 46 47 48 47 49 50 48 45 41 40 38 34 35 35 35 35 36 36 35 36 36 35 34 33
60 56 56 57 60 52 45 41 42 47 66 64 68 66 62 64 60 60 64 65 61 58 57 58 54 50 50 52 51 52 53 52 48 45 44 42 38 36 35 35 35 35 35 36 36 36 35 35 33
54 54 56 60 60 62 48 44 44 43 57 68 69 69 65 64 63 63 62 67 67 65 64 56 55 52 51 53 53 55 55 54 52 49 48 45 43 40 39 35 34 36 37 36 37 35 34 34 34
67 59 62 66 60 57 51 49 41 43 54 63 67 71 69 68 66 67 64 68 71 76 80 66 64 67 60 55 55 57 57 56 56 52 49 45 41 39 39 36 36 38 39 38 38 35 35 34 35
73 62 68 64 61 56 49 45 42 43 48 59 64 69 71 69 68 74 69 68 72 83 85 77 72 66 69 69 62 61 57 56 56 56 51 46 41 39 38 38 39 40 42 40 38 36 34 34 37
72 78 61 63 62 58 53 51 46 43 46 52 60 69 71 68 71 75 74 69 72 80 83 80 82 80 68 69 69 66 62 63 65 60 50 44 41 41 42 42 42 41 40 39 38 34 35 38 39
71 77 66 52 55 60 59 51 46 41 45 48 53 61 74 70 75 74 75 75 71 77 81 81 79 80 84 80 76 73 70 67 63 56 49 44 44 44 44 42 41 40 40 39 39 39 38 41 42
67 70 67 57 55 56 54 53 48 45 45 48 50 56 62 70 76 73 74 76 75 75 78 84 83 80 80 80 73 71 67 67 62 57 53 48 47 47 47 48 47 45 42 43 45 43 46 54 51
73 67 68 63 58 60 61 54 49 45 43 44 49 55 60 65 70 69 73 77 77 79 76 78 82 80 74 77 80 77 75 69 64 63 60 55 53 57 61 61 62 61 60 58 62 63 62 58 61
86 70 66 58 63 62 60 57 51 49 44 45 46 54 60 62 68 68 74 77 76 73 73 68 68 70 72 73 75 77 76 73 70 64 61 58 60 65 66 67 67 69 71 72 77 71 64 64 58
91 76 65 62 64 68 58 58 49 49 51 46 46 49 55 56 71 73 75 76 78 75 71 70 67 65 64 65 65 63 62 65 66 67 64 60 60 58 57 57 60 63 66 64 65 66 61 59 50
96 76 67 69 66 64 60 60 42 44 49 55 52 51 53 61 69 78 75 76 71 71 71 70 68 63 61 60 59 57 52 50 48 49 51 51 50 51 53 55 57 61 62 63 62 57 52 42 38
97 85 74 71 69 74 58 60 45 41 40 47 50 52 53 56 60 69 78 73 69 69 70 68 64 64 61 57 56 54 52 47 41 38 38 39 41 41 41 41 42 44 46 45 42 40 35 33 34
99 87 92 89 82 68 54 59 42 37 35 38 43 46 50 54 55 60 71 68 66 63 62 62 61 59 58 57 56 53 48 42 39 36 34 33 34 34 34 34 35 35 34 34 35 36 35 35 36
93 82 77 79 76 69 63 61 38 29 34 36 36 38 39 44 48 49 58 68 66 59 59 58 58 55 53 49 49 50 50 49 44 41 35 33 31 30 29 29 30 31 32 33 35 39 41 40 40
97 91 74 76 73 69 58 50 32 32 29 38 38 36 37 38 41 45 46 56 61 59 53 59 58 56 53 54 53 51 50 47 43 39 36 33 32 31 29 28 29 30 31 32 39 42 45 47 46
99 86 82 80 81 75 63 56 39 33 36 38 40 39 35 35 37 39 41 46 55 55 58 55 56 59 56 55 55 53 51 49 46 44 38 35 33 30 29 29 28 28 31 34 36 43 39 46 47
98 92 81 76 78 70 67 53 44 43 38 36 37 37 39 38 37 37 39 45 50 55 55 55 55 58 58 57 56 53 53 51 48 46 42 42 41 37 35 33 32 36 33 35 36 40 41 40 43
90 86 80 81 84 77 72 59 49 45 44 42 41 41 41 40 40 42 43 44 47 51 56 54 54 53 54 57 57 55 51 50 52 53 47 44 43 41 40 40 40 36 36 37 35 35 39 42 40

GFSSGP_prec_cthk_090.txt.gz
RH
59 52 50 49 48 44 37 32 24 21 33 39 43 44 45 47 55 60 55 51 48 49 48 41 38 34 34 34 34 32 31 29 26 23 21 21 22 17 17 16 15 15 14 14 13 13 12 11 11
63 57 54 55 47 41 38 35 28 23 23 34 40 43 47 50 58 57 59 50 51 50 47 43 37 37 34 34 34 33 31 28 25 23 22 23 25 18 17 16 14 12 12 11 12 12 12 13 15
64 62 58 53 48 39 36 39 33 29 24 25 35 40 47 55 57 58 58 52 52 51 49 42 36 33 34 32 32 33 30 27 26 24 24 23 26 23 21 18 14 12 11 12 12 13 14 16 19
69 66 61 53 41 39 39 39 38 34 29 24 27 40 45 54 57 59 58 54 53 52 51 44 40 34 33 31 31 34 29 28 27 25 23 21 28 25 23 20 16 14 14 15 16 17 19 22 25
70 68 63 50 40 40 42 43 43 41 35 29 25 36 48 49 54 58 58 54 57 56 52 43 39 37 34 33 30 30 29 28 27 24 21 20 26 26 23 21 19 16 16 17 19 20 22 23 24
73 69 62 50 39 44 43 43 44 45 44 34 30 33 45 51 55 57 56 54 55 59 54 47 43 40 39 37 34 30 31 28 27 26 20 18 22 26 24 23 21 19 18 18 19 20 21 22 24
68 65 53 41 44 48 40 42 44 42 47 46 37 39 42 50 54 58 57 57 58 58 59 54 48 46 43 41 38 36 35 33 30 29 22 21 20 25 26 25 23 22 20 19 20 21 22 23 24
74 78 56 50 49 44 44 43 43 42 42 51 49 41 41 41 50 58 62 60 58 60 60 56 53 50 47 43 41 40 40 40 37 32 29 25 23 25 30 30 30 28 27 24 23 25 27 29 30
75 75 69 51 49 42 48 46 49 45 44 45 55 48 46 41 48 54 63 66 61 58 59 58 56 52 51 48 46 45 44 40 39 35 30 27 26 27 33 35 34 33 30 29 29 29 29 31 32
65 67 56 60 52 56 53 49 54 53 48 48 48 53 50 49 52 53 61 71 64 61 58 57 58 56 53 52 48 50 49 45 41 35 33 30 30 29 32 34 35 36 33 33 32 33 33 31 33
64 53 52 67 64 61 54 50 51 56 53 46 49 51 58 53 53 55 58 69 71 66 58 56 56 58 55 51 53 53 52 50 46 39 35 34 32 31 31 33 37 38 36 36 36 35 36 34 33
71 55 60 69 63 58 49 53 47 51 52 51 53 52 51 60 57 56 60 62 68 72 66 55 54 58 57 55 55 52 52 52 48 42 39 36 36 34 34 37 39 40 39 39 39 41 39 36 34
70 69 65 59 61 55 54 48 47 47 54 52 53 52 53 53 61 57 61 61 63 69 71 68 55 56 58 56 56 54 54 52 52 47 43 41 38 37 37 40 40 41 40 41 39 36 38 36 35
69 70 69 61 56 56 47 46 46 42 51 54 55 56 56 55 56 58 57 68 62 65 70 71 66 56 55 57 59 58 57 56 54 52 49 45 42 40 37 36 35 35 33 35 36 37 35 34 34
80 67 72 67 51 54 55 52 38 46 46 53 55 57 57 58 55 60 65 64 66 59 64 70 65 63 53 59 61 62 60 58 58 56 54 51 47 46 43 38 35 35 36 37 37 37 34 33 32
81 69 66 71 61 55 57 43 43 46 43 43 55 57 58 62 59 61 70 71 70 66 63 66 68 68 61 56 58 62 63 59 59 60 59 53 49 46 42 40 37 37 38 38 39 38 37 36 32
85 71 57 66 65 62 50 45 49 44 40 39 42 55 58 60 64 63 68 74 73 69 69 72 71 71 71 64 65 61 63 63 61 62 60 54 55 50 44 41 40 40 39 40 39 37 38 35 35
74 73 66 64 69 67 54 45 47 42 41 39 37 42 56 67 64 66 68 74 74 73 72 75 78 76 76 69 75 78 64 62 64 65 63 61 61 52 47 44 44 42 40 40 40 39 39 40 40
69 74 69 56 66 63 48 46 44 43 42 38 36 38 47 59 66 63 70 75 77 74 73 79 76 82 78 79 77 79 76 68 71 72 72 68 59 54 50 48 47 45 44 46 45 44 45 50 53
84 67 73 65 65 63 54 45 44 44 42 37 35 36 42 56 63 61 68 77 79 79 78 80 80 81 84 81 82 82 84 82 80 77 72 69 63 59 54 53 53 55 59 62 64 63 62 65 69
86 68 68 70 68 64 56 50 41 40 40 39 36 37 41 48 60 67 71 76 78 82 83 80 77 78 75 76 79 83 86 82 86 83 78 69 69 67 64 67 62 67 69 67 67 68 72 76 74
90 74 75 69 65 62 53 44 36 38 38 37 37 35 40 50 59 68 71 76 80 79 82 74 78 74 74 78 82 84 83 82 84 85 84 79 75 73 72 67 66 66 63 61 62 67 72 69 69
98 83 72 64 62 68 67 59 37 35 37 39 37 36 38 47 56 61 64 70 76 75 75 74 68 72 76 72 80 80 78 79 80 82 84 86 78 71 67 64 63 59 58 55 59 62 63 61 59
98 86 79 76 75 74 56 54 36 33 31 32 36 39 38 43 50 59 66 67 69 70 73 74 74 69 66 68 68 73 73 73 69 67 61 56 54 52 51 50 48 46 46 47 49 50 49 48 45
99 92 97 95 89 62 52 58 43 34 28 26 30 39 45 46 49 51 59 68 68 70 70 73 77 78 74 71 70 69 68 67 67 63 56 48 45 41 38 37 38 39 40 39 39 40 40 40 39
98 95 75 66 64 55 62 55 40 26 28 29 29 33 43 47 50 52 54 62 75 81 75 71 71 71 72 72 71 71 72 70 63 57 50 46 43 40 36 34 34 34 33 32 34 35 38 41 41
98 95 75 73 69 62 51 45 34 26 25 28 31 30 35 40 44 51 53 56 66 74 81 77 72 69 66 66 63 60 59 58 57 56 52 48 44 39 37 36 34 33 34 33 31 33 38 43 45
98 94 83 82 74 58 58 47 28 29 30 29 30 32 32 34 37 40 47 51 55 64 75 68 64 63 64 63 62 60 55 53 52 52 52 50 48 46 43 41 39 37 33 31 31 33 37 43 41
95 96 83 74 75 59 60 51 42 36 33 32 31 34 34 33 32 36 41 44 48 48 53 63 65 63 58 58 60 60 57 55 55 52 49 47 45 44 42 40 38 36 33 35 39 40 41 44 45
88 85 79 79 81 70 65 54 48 43 40 39 38 37 37 38 39 38 37 37 38 43 47 51 57 62 61 62 59 61 62 58 56 54 52 49 47 46 46 44 42 43 43 45 44 49 50 45 50

GFSSGP_prec_cthk_093.txt.gz
RH
60 61 60 60 56 47 38 30 26 27 39 42 43 46 52 58 66 66 63 55 54 48 48 41 38 36 34 34 33 32 30 28 25 22 22 17 16 16 15 15 17 16 14 13 12 12 10 11 12
64 69 62 64 56 47 40 33 34 25 31 40 46 48 50 57 66 66 65 57 57 51 50 45 39 38 35 34 34 32 31 28 24 23 24 18 16 15 15 14 13 13 12 11 11 12 13 15 16
66 72 67 64 56 45 37 37 38 32 24 34 43 46 52 60 64 64 64 57 57 53 47 44 38 37 36 34 33 33 31 28 26 24 27 24 20 18 16 13 12 11 11 12 13 14 16 20 22
74 78 72 63 52 35 42 46 40 40 27 22 38 46 57 64 65 65 64 60 59 57 53 46 42 38 35 34 32 33 31 29 27 27 28 28 24 21 18 14 13 13 14 15 16 18 21 24 25
80 77 70 60 46 41 47 49 39 43 36 25 24 46 57 57 63 67 65 63 65 60 53 47 42 39 34 32 31 32 30 27 26 24 24 34 26 22 20 17 15 15 16 18 19 20 22 22 23
84 77 70 55 45 44 51 47 39 43 42 35 25 37 59 56 59 67 69 66 69 65 57 47 47 43 38 35 32 30 27 26 26 23 21 28 28 25 23 20 17 17 18 18 19 20 21 21 22
81 70 61 45 44 51 55 45 42 44 44 42 38 41 48 54 56 61 66 66 70 68 59 50 50 47 43 42 38 32 28 26 26 20 20 23 27 26 25 22 19 18 18 18 20 20 21 22 23
81 81 59 53 54 51 52 45 48 46 50 44 48 53 45 45 53 61 65 61 63 66 65 57 53 50 48 46 43 41 36 32 30 25 22 21 24 30 28 26 24 22 21 22 23 24 26 28 29
89 94 67 54 56 50 55 49 48 54 52 50 49 54 47 43 46 58 63 65 62 67 72 62 55 54 51 49 46 46 42 40 35 32 28 25 26 31 34 32 31 29 27 26 25 26 28 30 30
83 89 61 52 54 53 62 54 51 50 50 52 53 57 52 49 50 50 62 65 66 67 70 65 60 59 53 51 49 52 48 44 42 37 32 32 33 33 38 35 35 35 31 30 30 30 30 30 34
72 69 61 65 65 70 74 67 58 55 51 46 50 57 61 52 58 55 56 68 63 65 68 67 66 64 56 53 50 53 52 51 49 45 40 38 38 35 39 39 39 39 35 33 33 34 34 37 36
68 51 75 75 78 77 78 79 54 57 55 56 49 53 57 60 53 58 56 64 71 66 68 67 70 66 63 55 54 54 55 55 53 48 45 43 43 40 40 40 41 40 40 40 40 41 41 38 36
58 70 69 80 82 79 76 77 64 54 62 59 52 49 53 55 55 57 58 60 71 71 68 71 65 69 67 59 56 54 56 55 55 50 48 46 46 44 43 43 43 42 42 42 42 41 42 42 40
57 76 78 70 74 85 83 68 66 59 63 58 53 51 53 52 51 55 60 58 66 72 74 69 62 64 69 64 58 55 56 57 57 53 51 50 48 46 46 46 45 43 42 42 42 42 40 41 40
81 75 77 74 66 79 76 71 56 53 65 59 56 52 53 54 50 51 54 58 62 65 73 74 74 65 65 67 63 57 58 56 58 55 55 54 54 50 48 47 46 42 41 40 40 41 39 39 38
84 77 74 73 72 61 65 56 40 53 60 55 54 54 52 54 51 49 51 59 66 68 65 69 74 76 72 69 66 62 58 59 58 59 58 58 59 55 53 51 48 43 42 40 41 40 42 39 40
93 88 66 71 74 70 63 50 49 45 52 52 43 53 54 53 54 50 48 54 65 70 68 67 67 72 75 74 71 69 64 63 61 62 63 62 63 62 57 56 52 44 41 40 40 41 41 41 39
89 84 68 67 77 78 69 56 54 54 49 44 40 48 53 54 49 49 52 53 63 70 71 69 68 66 70 73 77 76 72 69 64 61 63 65 64 64 58 59 57 48 43 42 42 42 41 39 41
90 78 67 59 71 72 70 57 50 52 47 39 34 40 48 51 51 52 53 55 60 70 73 75 76 73 70 72 73 80 84 78 75 65 63 68 67 64 63 66 62 53 46 46 47 47 50 52 55
95 83 71 62 75 69 72 67 56 49 45 39 33 37 39 45 48 59 48 57 58 70 74 78 83 82 77 72 73 76 81 87 86 79 71 66 67 67 69 69 62 57 51 50 54 61 65 65 66
96 81 71 64 75 72 77 74 58 45 46 43 36 38 39 36 41 53 50 57 68 68 74 80 86 85 84 75 74 80 81 82 85 83 84 83 77 74 73 69 67 64 61 62 63 68 67 67 65
94 75 78 71 76 71 67 71 52 43 43 38 36 35 35 34 36 51 54 45 61 69 75 79 82 86 84 84 74 70 76 79 80 79 80 84 81 82 79 82 82 76 73 72 70 70 68 68 66
94 84 74 77 73 73 70 66 47 34 34 32 34 34 34 36 37 44 50 46 56 68 75 77 76 82 79 77 83 79 74 74 82 82 84 83 77 82 90 89 88 85 79 75 73 68 64 59 60
93 87 91 82 78 91 69 52 36 38 33 33 34 32 34 33 36 47 47 46 55 63 68 74 73 75 82 80 79 82 84 84 82 83 87 84 81 79 80 78 77 78 73 65 62 61 55 55 58
98 95 97 96 95 67 60 65 44 37 32 31 30 32 33 33 37 43 49 45 53 63 69 74 75 75 75 77 79 76 79 81 85 81 87 86 84 77 66 67 65 54 51 48 45 45 46 48 50
98 98 90 81 79 66 64 60 49 40 31 27 27 30 33 35 36 39 47 51 55 61 68 70 72 70 69 73 75 72 75 77 77 76 79 78 72 66 58 54 49 45 44 43 43 45 51 50 47
98 96 84 78 63 65 58 46 41 39 30 28 26 25 28 34 40 44 45 49 50 58 62 67 71 73 73 72 73 76 79 79 79 76 76 76 67 62 58 53 50 50 48 43 40 43 47 47 47
98 97 87 83 76 70 61 44 46 37 34 29 28 28 27 29 33 40 47 51 52 58 63 69 79 79 73 69 71 70 69 69 71 69 65 64 62 61 59 55 50 46 44 43 42 45 46 46 42
98 95 90 79 77 63 67 53 42 39 33 30 25 23 27 29 31 35 39 44 52 56 57 64 71 80 85 80 75 72 70 67 66 64 62 61 59 58 56 51 48 47 47 45 42 42 41 42 43
89 87 81 79 72 72 74 60 46 43 39 33 31 30 32 32 33 31 33 39 43 49 54 57 57 67 70 75 72 68 68 67 67 67 64 61 57 56 53 51 49 48 48 46 45 46 48 49 51

GFSSGP_prec_cthk_096.txt.gz
RH
69 69 66 66 67 54 42 28 25 33 43 48 48 51 61 74 82 73 62 58 51 46 43 41 38 38 36 33 32 30 27 24 21 21 16 15 14 20 32 34 28 20 13 12 11 9 10 12 15
71 77 79 73 70 56 46 31 26 28 41 43 45 52 58 70 66 74 66 58 54 44 42 43 41 38 37 34 32 31 27 23 21 21 15 15 15 15 15 15 14 13 12 10 11 12 14 16 19
72 80 82 77 68 57 39 39 28 31 31 33 44 51 59 70 74 85 73 60 54 48 43 43 42 40 37 36 33 31 27 23 21 23 18 16 15 14 13 12 11 11 11 12 13 16 19 21 24
77 82 88 74 64 44 41 39 42 37 30 28 42 53 63 65 71 72 70 63 58 51 45 42 43 39 37 36 33 31 27 24 21 25 23 21 18 14 12 12 12 12 13 15 18 20 22 23 25
84 86 87 75 55 44 45 50 50 44 37 28 36 54 62 64 70 71 70 64 59 57 48 46 45 42 36 35 35 33 28 25 24 28 25 23 21 17 14 14 15 16 17 18 20 20 20 21 22
94 89 85 74 52 45 49 54 56 45 43 39 27 51 62 61 65 71 71 71 63 57 52 46 45 43 37 35 35 34 30 26 23 25 29 24 22 20 17 16 17 18 18 18 19 19 20 20 22
90 94 82 63 50 52 53 56 56 46 46 46 33 33 57 63 64 71 78 76 68 62 54 49 48 46 40 37 34 33 28 27 25 22 27 26 23 22 20 17 17 17 18 18 19 20 21 22 24
82 98 80 63 57 53 54 55 54 51 47 46 50 50 55 55 59 68 78 78 73 69 63 54 51 48 46 42 36 33 29 27 25 20 23 27 25 25 22 20 18 19 20 22 24 25 26 27 27
72 89 91 68 61 51 56 60 58 54 47 50 55 58 50 45 55 63 72 76 78 73 67 58 54 50 48 46 40 37 33 30 26 25 23 23 29 29 28 28 26 25 24 24 25 27 28 28 28
78 87 76 60 56 52 61 62 60 57 52 51 57 57 57 48 44 57 67 71 73 72 67 61 58 55 51 47 44 41 38 35 33 31 28 28 28 33 34 32 32 30 29 29 29 29 29 30 31
74 68 72 69 63 75 74 67 64 52 50 49 55 56 54 61 51 52 59 67 68 68 69 63 61 59 56 49 46 44 42 39 39 36 35 36 36 34 40 36 35 33 32 32 32 32 33 33 36
77 51 67 75 83 88 83 76 77 59 53 52 54 56 56 56 64 51 52 63 71 67 72 71 68 61 58 53 51 46 45 44 44 44 42 43 40 39 39 39 37 35 36 36 35 38 39 36 35
69 63 58 78 83 82 88 79 86 71 70 63 55 57 59 58 61 65 56 58 63 68 70 72 71 68 64 57 52 48 48 52 48 45 45 45 45 40 41 43 42 39 40 39 39 41 41 39 38
75 76 69 76 81 79 89 87 86 85 76 69 60 53 57 60 60 63 65 62 60 69 69 72 75 80 68 67 57 54 56 53 50 47 44 46 48 48 47 46 47 46 43 42 42 41 39 40 39
94 71 81 81 79 86 87 86 92 77 79 71 65 56 56 55 54 58 58 64 71 64 73 71 71 74 78 71 66 64 56 56 54 49 47 45 48 50 51 50 49 47 46 41 39 39 38 37 39
97 79 84 78 75 86 92 85 81 81 80 74 63 59 54 52 51 51 52 54 64 72 65 70 78 73 75 70 70 70 67 63 60 52 50 48 49 50 52 53 53 50 49 42 39 37 35 34 37
98 90 69 73 73 79 83 83 74 76 77 76 59 56 54 52 51 48 50 53 57 64 68 68 69 74 71 69 71 72 73 70 61 58 54 53 52 53 54 56 56 53 51 46 38 36 36 37 37
92 93 68 60 66 78 69 69 65 62 61 63 56 54 56 53 51 47 47 52 58 62 65 65 67 71 77 80 78 78 73 73 70 65 59 58 58 55 57 57 58 57 52 50 41 38 40 40 41
91 84 75 57 58 65 70 67 63 65 59 52 53 48 48 53 53 49 46 46 55 58 59 63 64 68 71 71 72 74 75 78 79 77 72 67 65 63 59 58 60 60 60 60 50 44 43 46 51
98 92 75 73 63 64 64 67 63 64 65 57 47 46 41 46 48 49 44 49 52 55 57 58 64 67 67 68 68 68 71 77 78 82 82 80 74 67 64 62 63 64 69 66 59 52 49 52 58
96 91 83 84 71 73 70 74 75 67 60 52 48 43 41 39 43 47 46 46 51 54 57 54 61 67 69 69 75 76 75 77 81 84 85 86 86 84 80 77 72 74 75 71 66 61 59 60 64
93 84 85 82 76 95 82 87 83 70 66 48 43 41 37 39 39 40 41 43 47 50 58 63 59 66 75 75 77 82 85 84 86 92 94 91 90 91 90 88 88 86 85 83 82 80 80 78 76
91 88 85 89 78 80 82 79 73 71 61 45 38 36 34 35 34 35 36 38 42 44 47 58 65 67 72 79 83 84 85 85 84 87 85 88 85 86 88 89 87 85 83 82 82 87 86 84 78
95 90 88 93 92 98 79 66 64 59 50 39 37 35 34 32 34 32 38 39 39 37 42 46 54 68 75 76 79 81 81 79 88 88 88 88 81 82 83 87 88 87 86 86 84 85 86 80 70
97 98 97 98 98 84 67 73 53 45 50 38 32 32 32 32 30 33 37 41 36 37 40 48 56 62 72 79 79 80 80 86 85 86 92 89 90 88 86 88 88 88 78 76 78 73 69 60 56
94 94 97 90 91 77 71 89 58 54 49 44 39 39 35 33 33 37 43 41 39 39 42 47 54 60 68 72 77 76 75 79 86 84 86 82 85 85 84 86 85 80 72 63 57 62 61 58 59
98 97 94 87 66 78 64 55 58 54 51 38 34 30 31 32 33 35 42 42 36 38 42 48 52 60 64 73 74 74 73 72 75 81 79 77 76 76 75 79 76 70 63 62 63 58 52 52 50
91 91 93 93 93 94 66 59 55 49 44 33 30 31 32 34 33 36 37 40 38 38 44 49 53 58 66 71 67 69 74 77 78 73 72 76 73 70 69 68 64 62 58 54 51 49 46 49 52
87 90 95 90 82 84 78 65 53 47 44 35 29 28 27 27 30 35 38 41 39 42 47 49 54 62 67 70 68 71 80 78 74 72 72 72 70 68 64 62 62 60 57 55 52 48 46 50 50
79 77 87 90 78 85 88 68 56 46 40 43 36 28 28 29 31 29 30 35 38 41 48 52 56 61 68 75 76 81 79 76 76 72 70 67 66 63 62 62 60 57 54 52 50 49 53 54 52

GFSSGP_prec_cthk_099.txt.gz
RH
73 79 73 71 68 59 47 32 31 37 47 52 49 57 68 74 71 71 65 54 50 45 42 39 37 35 34 31 31 27 23 19 18 15 15 26 32 34 34 32 27 17 12 10 9 10 13 15 24
79 83 80 76 78 68 45 30 26 34 44 47 49 58 65 75 77 76 68 59 56 47 43 40 38 36 35 33 31 28 23 21 17 15 14 14 24 29 27 19 13 12 10 11 12 14 16 24 27
83 88 86 86 79 64 48 32 25 34 40 41 48 58 69 73 76 73 73 64 58 49 44 42 41 39 36 35 31 28 24 22 16 14 14 13 13 14 13 12 11 11 12 13 15 18 22 25 26
86 91 88 88 74 50 45 36 30 34 36 37 50 59 66 69 76 74 74 67 58 49 46 43 41 40 38 35 33 28 24 24 21 17 15 13 12 12 12 12 12 13 14 18 20 21 23 25 24
87 93 97 90 66 48 48 46 46 42 34 35 40 58 68 77 78 76 73 70 55 51 47 46 43 43 39 36 35 29 25 25 24 20 17 14 13 13 13 14 15 16 20 20 20 20 21 21 22
91 94 92 92 63 53 49 47 61 44 38 36 37 52 66 78 76 79 79 67 58 54 50 49 45 44 41 37 35 32 27 28 29 23 19 17 15 15 15 17 18 18 18 18 18 19 20 22 23
76 93 95 84 65 61 53 58 56 49 47 41 38 49 60 66 72 75 79 73 61 56 53 50 46 42 41 39 35 32 27 24 30 28 22 19 17 16 17 18 17 16 17 17 18 20 23 25 27
74 98 83 75 74 62 53 63 52 52 50 50 43 45 55 61 71 73 76 74 66 60 56 54 51 46 42 40 38 33 27 25 22 27 25 22 20 19 17 17 17 18 20 22 23 24 26 26 27
73 88 92 70 68 61 59 65 52 58 57 54 55 48 41 62 69 72 77 82 73 66 60 58 55 50 46 42 39 34 29 25 22 23 25 24 23 22 21 21 21 23 24 25 26 27 27 27 28
79 83 93 81 69 66 71 63 66 63 63 63 56 57 53 52 63 64 72 80 77 72 63 59 57 55 51 44 40 36 31 24 23 22 22 26 28 28 28 28 28 27 27 27 28 29 29 30 30
71 75 87 87 83 75 74 69 69 69 62 54 56 58 65 57 57 64 67 75 77 73 66 63 60 58 56 51 43 39 36 31 30 28 27 28 30 33 32 30 31 31 31 31 31 31 31 32 32
71 68 77 84 92 85 82 77 76 68 68 56 52 56 57 66 59 59 62 67 71 73 66 63 60 60 57 55 50 44 40 36 36 35 37 36 35 35 37 35 33 34 34 34 34 34 35 34 34
74 71 73 86 93 94 89 82 86 82 75 65 54 55 59 61 68 59 62 63 67 71 71 64 62 63 60 56 56 48 43 41 41 40 41 42 43 41 40 39 39 39 38 36 37 36 37 38 36
78 76 75 80 93 94 92 86 82 80 77 65 59 50 52 60 63 67 64 56 59 64 69 69 69 69 64 58 60 52 47 44 44 43 40 42 43 44 43 44 44 44 43 43 40 37 37 36 36
81 81 81 82 82 95 91 94 80 83 80 72 71 62 55 54 57 66 70 63 59 61 65 70 78 76 70 65 66 58 53 52 50 47 42 41 43 45 47 49 50 49 47 47 45 41 35 34 32
86 88 87 81 74 83 88 88 84 91 91 81 77 72 62 54 54 57 67 77 77 68 68 68 72 80 78 80 69 64 61 58 58 53 49 43 42 45 47 48 51 52 52 50 47 42 37 35 34
88 93 86 80 72 80 87 88 90 90 91 91 87 75 66 56 54 54 61 70 75 78 77 78 71 66 67 70 72 70 70 66 64 61 58 54 48 45 47 47 49 51 53 53 50 47 41 35 37
85 90 89 78 81 78 77 81 81 85 92 90 83 79 71 57 52 52 54 57 64 66 71 77 77 78 73 71 75 74 67 68 72 68 64 63 58 56 53 52 51 51 53 54 52 52 50 42 41
85 93 95 73 79 79 72 84 80 83 89 90 86 73 69 62 54 55 50 51 54 61 66 69 72 74 75 72 68 64 64 67 70 72 72 72 69 68 65 60 58 55 55 54 54 59 60 55 46
98 96 88 78 76 77 78 83 82 74 77 74 72 71 66 66 58 55 51 49 50 54 58 62 68 70 70 70 70 70 75 78 78 75 75 75 77 79 78 74 71 69 62 60 59 63 66 64 58
97 96 86 79 70 70 74 81 81 74 69 73 68 66 61 56 54 51 51 48 48 51 52 56 63 69 73 70 73 78 81 82 82 78 73 80 84 90 91 90 84 82 78 73 74 72 69 72 72
98 96 85 82 85 85 77 84 72 65 66 65 68 62 56 51 47 45 46 45 43 45 50 51 55 61 68 75 72 77 77 77 83 87 82 89 89 90 94 94 91 92 92 86 90 89 88 87 85
98 94 86 85 92 88 96 93 67 67 67 62 58 59 52 48 45 41 39 42 42 44 46 47 48 47 52 62 67 74 73 76 76 77 81 86 93 95 93 90 90 93 92 88 88 92 92 91 88
90 96 95 96 96 94 90 96 66 65 51 56 55 52 47 48 45 40 38 36 33 37 44 47 48 50 52 58 70 73 72 72 78 80 81 81 87 89 91 86 91 90 92 88 88 89 90 91 88
96 99 98 99 97 92 82 88 64 56 56 50 52 51 41 43 46 36 33 34 34 37 36 40 41 41 47 49 64 74 74 74 75 81 84 86 86 88 92 90 96 93 92 90 88 88 88 86 83
98 96 93 93 94 77 80 77 58 53 47 44 46 45 40 35 37 36 33 34 34 37 39 41 42 42 45 50 54 56 60 70 75 78 82 79 78 81 83 84 91 91 86 89 91 89 84 78 68
98 98 90 84 76 81 76 58 48 49 51 48 46 43 40 35 34 32 32 33 34 36 38 36 39 44 47 49 51 56 63 68 72 74 73 71 72 77 81 76 79 76 74 72 70 72 73 66 65
95 93 95 90 88 83 66 59 55 55 53 52 51 45 35 38 33 34 33 37 43 39 35 37 36 40 45 49 53 59 66 70 70 69 70 69 73 76 77 78 79 78 75 66 63 60 60 55 51
90 90 96 91 85 83 78 63 56 55 54 51 47 48 44 41 40 39 39 39 39 38 40 38 39 41 44 48 52 54 58 63 70 70 72 75 78 77 75 74 72 69 65 61 60 59 56 54 51
77 80 89 87 84 89 81 69 60 59 54 47 43 36 43 42 40 39 37 37 40 40 39 40 41 44 49 53 59 64 67 71 74 79 78 73 71 72 71 69 66 65 64 63 60 60 57 55 52

GFSSGP_prec_cthk_102.txt.gz
RH
75 82 77 74 68 64 58 43 36 42 51 53 52 59 60 63 65 67 69 52 47 46 44 44 41 39 33 30 28 24 21 19 20 31 32 37 40 41 44 38 24 13 10 9 10 13 17 22 22
83 85 87 85 81 71 50 35 31 37 48 55 60 63 63 66 67 69 68 59 50 46 46 43 40 37 33 30 26 23 22 19 17 25 30 32 32 30 28 22 12 11 10 12 13 17 23 26 26
77 90 93 91 87 64 43 34 26 35 46 51 61 69 65 66 72 71 63 59 51 47 48 45 41 37 35 32 27 23 22 19 17 15 25 28 28 26 16 12 11 12 13 14 17 23 24 24 23
62 93 94 94 85 54 42 34 27 35 46 51 62 73 67 65 70 73 69 66 55 50 48 48 42 39 37 34 28 24 21 17 16 15 14 15 14 12 12 12 12 13 16 17 21 23 23 23 21
56 87 96 95 77 54 45 43 34 35 46 50 52 65 68 69 73 73 75 68 57 51 51 50 43 40 38 34 28 25 24 20 17 15 12 12 11 11 12 13 15 18 19 19 20 21 20 21 21
58 81 99 96 71 55 49 50 46 38 44 49 53 59 68 68 71 78 81 69 62 54 52 49 47 44 43 38 30 27 26 23 20 16 12 12 12 13 14 16 18 19 18 17 18 19 20 23 25
64 75 91 94 70 61 57 56 62 45 44 47 52 57 63 65 71 77 88 73 62 57 53 51 50 46 42 40 35 29 31 27 22 18 14 14 15 16 17 17 17 17 16 17 20 23 24 25 26
76 68 83 95 78 66 59 63 51 47 52 52 52 53 57 59 73 79 89 78 63 59 56 53 49 45 42 39 36 30 31 32 25 21 17 16 17 18 18 17 18 19 20 21 23 24 24 26 26
83 79 84 92 90 70 64 68 54 59 57 57 51 46 45 52 70 80 91 79 66 61 60 55 51 50 46 41 38 33 28 27 26 24 20 18 18 18 18 20 21 23 24 24 25 26 27 27 28
97 80 76 88 86 87 80 70 58 68 69 64 55 53 50 50 58 74 79 76 71 65 63 59 57 53 50 45 39 33 28 25 25 24 23 21 19 20 22 24 26 27 27 28 28 28 29 29 29
96 77 70 87 91 91 90 74 73 71 71 59 60 62 50 51 56 69 77 73 79 70 68 64 59 57 54 48 40 34 28 26 24 25 26 26 26 27 27 27 28 28 29 29 29 29 29 30 30
93 76 69 93 96 96 93 88 83 80 71 62 57 60 62 59 50 68 66 80 86 77 71 68 64 61 58 52 46 40 31 31 29 29 30 32 33 33 33 32 32 32 31 31 31 31 31 32 32
79 75 68 89 96 97 92 92 78 76 69 67 67 67 66 69 56 52 71 75 83 82 68 67 66 62 58 56 52 47 39 36 33 34 35 37 38 39 39 39 38 37 36 36 35 35 35 34 34
72 73 76 86 96 96 98 90 90 81 79 68 68 71 66 65 71 67 63 82 76 77 72 67 65 65 60 57 53 49 44 41 38 37 38 39 40 42 42 43 44 43 42 41 41 40 38 36 34
70 75 76 84 91 95 96 92 90 85 76 76 71 71 72 67 70 74 61 67 70 72 69 67 67 68 66 62 54 51 51 47 44 43 40 39 40 41 41 44 46 48 50 50 47 44 43 37 35
72 79 85 79 90 91 92 96 85 91 80 77 76 73 68 67 70 77 70 65 71 74 72 70 65 69 67 63 58 53 55 54 52 51 50 46 45 44 44 45 46 49 50 51 52 51 48 45 36
87 84 90 77 83 87 91 95 92 84 80 81 79 75 71 64 70 79 80 75 71 71 76 76 76 73 72 70 70 58 65 61 61 58 58 58 53 50 49 50 49 50 50 52 53 54 53 51 47
88 92 88 81 81 91 91 90 94 92 88 91 86 77 72 71 63 65 74 80 78 73 69 72 72 73 76 77 71 68 73 62 63 65 64 63 62 59 57 55 55 55 54 54 53 52 53 53 56
96 88 82 76 75 85 87 80 91 93 92 93 85 82 77 69 69 63 66 73 79 78 75 72 73 78 77 76 78 71 73 76 77 72 73 74 70 69 67 65 61 59 59 58 57 56 55 55 59
95 82 90 84 75 83 87 85 88 92 94 90 90 91 86 78 72 64 60 60 68 71 75 80 76 75 73 74 84 73 73 75 76 73 68 71 72 72 74 73 72 71 70 71 74 73 70 62 64
96 82 81 92 84 91 90 91 90 80 92 95 92 93 85 83 77 70 62 57 58 59 67 74 72 72 72 74 76 83 83 81 80 79 79 79 79 79 76 77 78 80 80 80 85 87 86 83 83
95 85 85 93 97 97 94 96 93 83 87 84 85 90 79 81 76 69 60 58 56 55 59 67 67 68 67 68 68 79 74 78 85 82 82 84 83 86 87 87 91 91 91 88 88 88 87 89 91
99 94 88 88 89 88 93 78 73 79 80 70 67 78 68 70 70 64 60 55 55 55 54 60 61 62 61 64 68 71 73 75 81 78 80 80 82 81 89 90 94 98 95 96 97 96 95 94 92
97 94 90 87 88 90 80 74 68 70 58 53 59 68 67 62 57 57 55 58 54 52 53 53 56 60 58 58 66 68 68 69 71 73 78 83 88 89 88 88 90 89 96 97 92 96 94 96 94
98 96 98 99 98 90 85 90 71 62 59 51 53 57 58 62 60 50 48 47 48 48 49 48 52 56 60 58 59 60 60 57 63 71 75 78 80 84 86 86 84 83 86 88 94 95 93 92 90
97 97 97 96 93 93 83 84 66 56 54 54 54 56 61 60 54 49 46 43 40 43 45 44 50 51 55 56 58 56 57 55 57 59 66 74 79 79 79 80 79 79 79 84 87 93 88 92 92
93 95 96 89 77 88 88 71 56 52 49 47 49 53 52 50 44 49 43 41 38 39 42 45 43 44 50 52 51 51 48 49 50 53 56 59 62 67 72 71 70 72 72 76 74 77 75 71 72
95 92 96 91 88 89 78 64 56 50 53 48 46 44 42 42 41 39 38 40 40 37 39 41 42 40 44 48 47 46 48 49 51 53 55 60 63 66 70 69 70 74 73 73 76 79 75 66 62
88 88 88 81 80 80 76 61 55 56 50 52 51 47 41 39 39 36 34 39 44 42 44 47 43 40 39 42 46 55 58 51 51 51 55 58 63 71 73 72 74 76 75 70 67 65 64 63 62
84 80 84 80 77 76 69 63 54 53 51 49 48 47 46 41 39 39 35 35 40 44 46 46 44 39 40 43 46 48 50 50 52 58 59 63 67 68 66 67 66 66 65 65 64 66 66 65 64

GFSSGP_prec_cthk_105.txt.gz
RH
65 75 77 76 80 79 61 54 40 39 51 68 61 58 63 62 63 59 57 52 43 42 43 43 42 37 33 29 25 22 22 28 32 39 39 43 46 50 56 54 29 11 9 10 14 16 20 21 22
47 81 84 87 93 85 58 40 42 36 45 52 66 65 65 68 62 65 63 51 45 44 45 44 45 40 32 30 25 22 23 29 32 38 41 42 43 44 39 22 11 10 11 13 14 19 21 22 21
36 76 90 97 96 83 46 36 32 33 43 56 69 72 67 68 63 68 61 56 50 46 45 46 44 38 34 29 24 22 22 27 31 33 36 37 33 28 21 12 11 12 12 15 20 22 21 21 18
54 58 97 99 91 67 44 33 30 35 41 52 63 78 73 66 67 68 62 62 56 52 46 46 43 37 35 29 26 23 20 22 25 28 30 30 28 20 12 12 12 13 16 20 21 20 18 19 18
61 55 88 97 90 59 49 40 35 37 42 48 57 72 71 76 69 69 64 60 56 55 50 48 44 39 36 30 27 23 20 18 18 22 24 23 16 12 12 13 15 17 19 20 19 18 18 19 19
72 62 73 97 95 62 55 51 45 40 42 50 59 73 74 74 74 75 72 59 59 56 53 50 46 41 37 29 28 23 20 18 16 15 14 12 12 12 14 16 18 19 18 18 17 18 21 24 24
65 77 59 69 95 80 67 60 55 46 44 51 55 69 76 79 82 82 80 71 65 60 56 52 49 45 39 32 30 26 23 20 15 14 12 12 13 15 17 18 17 17 17 20 22 23 23 24 24
61 74 64 61 86 91 73 68 63 53 43 49 53 64 67 77 78 92 87 81 66 65 60 56 52 48 42 37 34 31 25 22 17 14 14 14 16 17 17 16 17 19 21 22 23 24 24 25 26
56 78 72 56 67 89 87 81 69 56 48 50 58 56 56 68 82 87 89 85 75 72 65 59 54 47 42 38 35 34 28 23 19 16 16 17 18 17 17 19 21 22 24 25 25 26 26 27 28
64 77 61 50 51 83 93 89 71 65 63 58 60 64 64 66 75 72 70 78 85 72 66 64 57 50 46 42 35 34 31 27 21 18 17 18 18 19 21 24 25 26 27 27 28 27 28 29 29
70 69 65 56 55 75 93 94 84 74 69 59 56 60 59 66 77 72 71 67 88 78 71 67 63 56 51 44 39 32 31 30 26 21 19 18 19 22 25 27 28 29 30 30 30 29 29 28 30
92 70 70 63 70 72 93 96 92 80 74 53 55 54 59 64 72 73 77 73 76 81 77 71 67 62 55 50 44 38 31 30 29 25 23 24 25 27 28 29 30 30 30 30 30 30 30 30 31
97 79 67 72 72 86 95 96 96 80 67 57 57 64 57 60 68 71 69 75 74 76 74 68 69 65 60 55 50 42 36 31 30 32 33 34 34 35 36 36 37 37 36 36 36 35 34 32 31
97 82 77 84 81 86 96 96 99 77 71 64 62 70 67 64 68 71 69 69 73 75 71 68 69 66 64 60 51 45 41 38 35 33 34 37 38 39 40 42 43 44 44 44 43 43 43 42 36
90 97 84 76 85 88 95 97 98 82 73 74 70 75 79 76 71 67 68 66 65 70 74 79 74 64 68 63 56 49 42 41 38 37 36 38 39 40 41 43 44 46 47 48 49 50 49 47 45
97 90 90 77 80 90 96 98 96 93 80 78 75 76 81 84 81 76 76 69 79 85 84 72 71 70 64 63 58 54 48 46 45 43 43 44 46 46 45 45 46 48 49 50 51 52 52 52 51
99 91 96 81 72 91 92 97 96 99 87 85 82 77 78 81 83 84 83 77 84 87 83 83 74 63 73 69 60 56 52 52 50 51 51 51 51 52 52 52 53 54 55 53 53 53 53 52 54
98 92 85 87 82 93 88 91 96 98 97 87 84 80 79 78 79 82 86 81 84 91 89 83 74 70 67 71 62 58 55 53 55 58 58 58 59 60 59 59 58 58 57 57 57 57 56 56 56
98 93 87 85 79 87 89 82 92 95 96 96 92 81 79 77 79 82 88 86 90 93 96 83 89 76 76 75 73 67 63 64 64 72 62 64 63 63 65 65 65 65 66 65 64 64 64 64 65
98 96 93 82 82 89 91 85 87 95 92 97 94 81 81 76 70 74 83 88 84 87 92 90 86 85 92 93 88 81 81 76 77 76 81 76 76 71 69 69 69 69 72 73 72 71 73 76 80
98 90 95 86 91 93 86 90 92 96 95 90 95 84 79 75 69 65 70 79 91 87 87 87 83 83 85 80 88 86 86 85 81 78 76 77 81 75 71 72 75 79 79 75 73 80 88 87 89
96 88 88 87 87 95 96 96 94 92 87 83 90 88 77 71 68 63 64 66 78 86 90 92 88 86 84 89 84 85 88 87 76 80 84 83 83 81 80 82 83 85 88 85 84 91 95 91 90
95 86 84 89 95 95 97 89 86 92 91 88 86 85 79 72 69 65 64 63 67 68 76 84 83 82 80 83 79 86 83 84 87 90 84 82 79 81 84 83 85 89 91 92 95 93 98 98 97
96 90 83 90 94 94 90 85 81 84 72 80 73 81 86 82 74 70 68 68 69 65 63 65 71 78 82 78 73 78 72 79 80 80 78 77 82 91 92 96 89 87 89 88 87 89 85 89 91
99 89 93 98 97 92 84 83 64 66 62 65 61 69 80 83 81 73 68 68 68 67 65 63 65 65 67 71 70 71 71 71 72 70 73 71 72 75 74 75 75 75 77 78 80 81 84 88 90
99 97 89 90 85 86 85 78 65 60 59 59 54 59 64 69 71 69 67 66 64 65 62 62 62 64 64 68 68 67 64 65 62 63 65 67 63 64 66 67 66 66 68 72 73 75 79 83 82
98 94 90 78 77 81 82 69 60 59 60 59 55 54 57 59 63 61 57 59 59 60 64 64 60 59 61 65 68 68 63 60 59 59 57 54 55 53 53 54 57 60 59 61 63 67 72 72 76
97 97 94 84 82 86 81 67 60 61 59 57 58 58 55 56 60 59 57 52 53 50 52 56 53 53 57 59 58 60 62 60 58 53 51 51 50 51 51 54 56 59 62 64 66 68 72 73 73
86 93 95 87 81 80 81 68 61 61 57 57 57 55 56 58 62 59 57 54 56 48 48 48 50 51 51 52 52 57 58 62 56 51 49 49 48 48 51 54 54 57 62 65 67 72 70 68 67
78 80 87 84 84 80 74 73 60 55 55 57 57 55 53 49 47 50 51 55 52 48 50 49 49 46 47 51 54 52 59 56 52 52 52 51 52 53 58 57 53 54 54 57 63 64 66 69 72

GFSSGP_prec_cthk_108.txt.gz
RH
23 40 62 78 84 82 73 56 43 40 44 58 63 64 66 68 65 62 54 55 50 45 44 45 42 38 32 26 24 21 25 24 20 24 27 31 39 47 59 57 35 12 17 21 21 19 20 22 18
24 31 63 86 95 90 72 47 46 36 35 49 63 65 66 64 66 68 64 58 52 45 44 45 41 37 31 27 24 27 33 35 36 37 39 44 46 52 52 29 11 10 14 16 21 21 20 19 17
35 31 50 88 95 82 65 45 35 36 39 42 57 68 71 68 67 69 69 61 54 45 46 45 41 36 31 27 24 28 35 39 42 45 43 40 41 41 24 11 11 12 14 18 22 21 18 16 15
42 43 43 77 92 81 63 43 40 37 44 46 47 67 72 71 76 72 73 62 57 49 49 47 43 37 31 28 24 27 34 36 43 41 39 35 31 22 12 11 12 14 18 23 20 17 15 16 16
44 53 56 52 80 92 68 52 48 42 44 47 53 50 66 72 76 76 77 67 57 53 52 49 43 36 32 28 25 24 29 35 36 35 32 27 23 14 12 12 14 18 20 18 17 16 16 18 20
56 55 64 53 47 91 78 65 65 50 41 50 56 60 60 75 81 82 82 73 65 59 57 51 45 38 34 28 25 23 26 29 30 30 26 23 14 12 13 15 17 19 18 16 16 19 21 22 23
52 68 66 53 41 63 83 76 77 61 47 47 51 65 64 68 83 90 86 76 69 63 58 55 48 41 36 29 24 21 21 22 24 24 19 14 12 13 15 17 17 17 17 19 21 22 22 23 25
59 65 68 60 48 47 69 87 79 74 58 48 54 66 78 70 75 91 90 77 69 65 57 56 51 43 37 31 25 22 20 18 16 15 14 13 14 17 17 17 17 20 22 22 23 24 25 25 26
61 70 64 56 51 39 57 82 81 72 69 58 59 59 73 80 75 98 93 86 70 66 62 56 52 48 39 34 31 27 23 17 16 15 15 15 16 17 17 18 21 23 25 26 26 26 27 27 27
64 70 56 43 45 46 52 77 94 87 79 63 60 60 74 78 81 83 87 85 73 67 65 60 56 50 42 36 35 31 25 19 17 17 17 17 17 17 19 21 24 25 26 27 27 26 27 29 29
66 64 49 47 50 50 56 74 83 96 88 72 64 63 74 76 82 77 96 90 83 75 63 64 56 52 47 40 39 35 29 22 19 18 18 18 17 20 22 24 26 27 28 28 28 28 28 28 30
69 57 54 46 57 58 65 60 85 95 89 70 61 62 77 76 73 71 89 85 91 72 69 67 60 56 50 42 40 37 34 27 23 20 19 18 20 23 26 27 29 30 31 31 31 31 30 29 30
67 63 62 56 55 62 73 78 80 93 90 81 68 65 74 79 74 75 82 82 86 72 70 71 65 59 53 47 42 42 38 31 26 24 23 23 26 28 31 33 34 36 36 36 36 35 36 36 35
75 78 70 62 56 61 73 78 87 76 92 80 74 66 66 76 72 80 84 78 76 69 72 73 68 61 57 53 51 45 42 39 35 31 31 33 34 35 37 37 38 39 40 42 42 42 42 43 42
88 89 86 77 61 66 81 83 82 72 96 89 74 69 69 69 75 74 71 68 69 67 75 71 75 65 59 57 56 50 45 43 42 40 39 37 38 38 39 39 40 41 42 44 45 47 48 50 49
98 95 89 73 66 74 82 69 76 79 95 98 79 69 70 73 85 79 73 75 71 69 71 70 70 62 61 59 59 52 45 42 41 41 40 41 41 41 42 44 45 46 46 46 47 49 49 49 49
93 95 89 83 65 77 78 67 77 82 97 94 89 76 72 73 82 88 86 81 73 66 71 69 68 68 64 66 58 58 49 47 45 45 43 45 47 49 50 49 49 51 51 51 52 53 52 52 53
89 98 96 85 74 68 73 75 84 90 97 98 98 84 75 74 84 83 90 92 89 76 72 70 71 73 74 68 64 63 58 51 48 48 50 51 52 53 53 54 55 56 56 57 58 59 59 58 58
90 96 98 82 77 75 77 81 83 93 97 97 97 87 82 76 80 83 85 95 97 95 91 78 76 72 76 68 68 72 66 57 54 56 59 63 63 60 60 59 60 61 63 62 62 65 66 67 68
96 97 92 74 90 88 87 86 93 95 94 97 97 89 88 85 83 86 87 92 92 94 98 95 95 80 76 74 84 77 67 62 66 67 66 66 69 64 65 71 69 69 67 67 70 75 76 74 72
92 98 93 84 93 95 92 97 95 96 96 94 87 90 87 85 89 88 88 92 89 87 91 91 95 94 84 90 87 76 76 74 75 74 73 77 80 81 77 76 79 74 73 77 82 84 84 84 87
95 94 96 91 89 98 96 98 98 95 93 89 94 94 89 86 83 87 86 87 86 85 88 89 85 94 90 91 92 93 95 88 88 88 84 83 85 84 84 82 82 83 81 83 88 93 94 93 90
98 91 96 95 93 97 97 88 93 88 88 89 92 93 87 83 83 83 81 82 84 84 85 90 87 90 99 98 93 84 83 86 92 89 85 83 85 79 80 83 85 89 93 95 95 93 90 86 86
91 90 90 92 92 96 96 79 83 94 88 85 82 92 90 85 81 77 73 70 73 79 81 84 92 91 90 93 97 98 95 92 96 90 86 80 75 80 88 92 89 87 88 84 79 81 81 81 80
86 85 92 90 93 94 86 78 72 79 72 75 72 87 84 85 80 75 71 67 65 69 72 85 93 93 94 93 95 97 95 95 92 92 88 84 84 82 78 78 76 71 66 62 61 62 63 65 67
89 76 88 89 90 86 81 82 75 70 70 65 69 73 91 86 83 73 68 70 69 67 63 69 76 81 84 86 88 82 86 86 82 81 76 71 69 68 64 64 60 56 53 53 53 51 55 58 64
93 80 88 86 80 81 84 71 65 65 66 61 63 66 81 84 83 75 70 71 67 64 68 67 68 70 71 74 72 73 71 71 71 68 65 64 65 62 60 55 48 50 49 46 48 51 54 55 59
95 93 89 80 77 82 79 68 68 65 63 61 62 65 70 80 81 73 72 73 69 69 72 69 66 66 67 69 69 66 66 66 66 65 66 63 60 58 54 48 47 47 46 47 51 53 56 61 64
93 88 84 78 77 79 81 78 68 66 60 59 61 67 66 69 73 76 76 75 70 67 71 71 68 67 66 67 65 62 61 62 62 64 65 61 60 56 50 44 42 47 50 49 49 52 52 52 55
88 88 89 81 82 80 78 81 69 66 61 58 62 67 66 63 61 68 72 69 63 58 59 63 60 61 61 61 62 58 55 59 58 63 67 63 58 53 47 48 48 49 49 48 48 47 47 49 50

GFSSGP_prec_cthk_111.txt.gz
RH
18 16 24 41 52 56 50 50 46 40 39 46 56 62 61 63 63 57 52 56 54 51 46 50 40 36 34 27 24 21 18 18 18 21 25 34 32 46 57 55 31 22 21 22 25 22 18 18 22
22 20 24 41 58 58 50 52 46 42 40 44 59 64 68 65 64 63 63 58 61 54 49 49 42 38 34 26 23 21 21 21 21 28 31 34 39 51 55 32 18 20 23 20 19 20 17 16 16
28 26 26 41 50 56 53 51 49 41 45 47 54 65 68 66 66 61 67 62 63 59 49 47 43 39 31 27 24 28 29 25 34 42 48 41 47 52 35 13 16 19 20 19 18 16 14 14 14
33 35 32 43 42 43 56 52 50 47 44 50 52 61 60 71 66 67 69 68 64 60 52 48 44 38 31 26 28 34 36 38 44 52 51 45 44 31 12 11 13 20 20 19 16 14 14 14 16
37 43 45 45 38 39 51 57 53 52 50 49 54 54 57 66 71 68 74 74 70 58 53 51 45 38 32 28 31 36 37 41 43 45 43 40 30 16 12 13 15 20 19 16 15 15 16 18 20
43 45 54 51 40 30 43 49 54 60 60 51 59 62 58 66 71 74 80 80 76 61 56 53 47 40 32 28 31 36 37 40 40 38 36 29 21 13 12 14 19 19 17 16 17 18 20 21 21
40 52 54 49 47 36 37 49 62 66 66 57 54 62 64 62 59 74 81 84 80 65 62 57 49 39 33 29 29 33 37 35 33 34 27 23 15 13 14 17 18 18 18 19 21 21 22 22 23
47 55 57 63 61 41 35 34 75 79 69 63 57 57 62 61 61 68 84 89 81 72 66 62 50 41 35 31 28 30 32 33 30 29 24 16 14 15 17 17 17 20 21 21 22 22 23 23 24
50 60 61 53 57 48 39 41 47 78 78 74 66 62 61 65 73 68 89 95 86 77 72 66 52 44 36 30 26 25 28 29 25 24 18 15 16 17 16 17 19 22 23 24 25 24 24 24 26
60 65 55 42 47 53 54 52 53 67 84 83 73 57 63 73 74 69 77 96 90 80 74 66 56 47 38 31 27 23 22 22 20 17 16 17 18 17 17 20 22 24 26 27 27 27 26 27 27
72 62 49 47 50 57 61 55 57 74 81 87 80 69 75 68 80 76 76 98 94 83 76 69 58 50 40 34 30 25 21 19 18 18 19 19 18 19 20 22 24 24 27 28 28 28 28 28 28
69 59 56 51 55 63 61 61 66 68 69 80 82 72 72 90 83 81 78 97 98 91 79 71 61 54 43 40 32 27 22 21 20 19 20 20 20 21 24 25 27 27 28 29 30 30 30 30 30
65 59 57 57 60 54 61 72 70 71 65 76 84 72 71 79 85 92 81 84 98 89 81 70 64 57 45 42 37 31 25 22 22 21 21 20 22 25 27 29 31 31 32 34 34 35 35 36 36
67 67 63 62 60 63 56 63 76 64 70 76 84 76 70 77 73 91 85 85 91 93 84 75 67 58 51 43 42 36 29 25 24 24 23 24 28 30 33 35 36 36 37 38 38 39 40 42 43
68 77 83 63 66 63 57 61 59 56 75 72 88 80 74 77 81 98 80 87 85 81 81 81 67 60 57 48 43 42 37 31 27 25 26 31 34 37 39 39 39 38 38 39 40 41 43 46 48
71 77 78 66 72 68 66 52 52 57 72 75 79 79 76 76 84 98 95 83 87 88 78 83 69 59 60 55 47 45 43 38 36 34 35 37 37 38 39 40 41 42 43 44 44 46 48 50 50
76 75 69 66 74 73 71 55 69 63 75 78 81 87 87 77 84 92 94 98 90 86 86 81 67 62 67 61 56 49 45 43 42 43 43 42 43 43 44 46 48 48 48 50 51 52 54 55 56
80 82 76 81 85 84 78 58 81 70 81 81 88 93 87 83 86 87 93 95 86 91 80 74 72 62 62 65 61 54 47 43 44 45 45 47 47 48 51 52 54 53 54 56 58 60 61 61 63
82 85 91 74 75 86 81 64 74 73 85 86 94 88 84 84 83 84 90 94 94 88 82 74 71 74 71 66 61 58 52 45 46 46 45 47 49 51 53 55 56 59 62 63 66 67 66 67 70
88 95 88 72 78 91 78 82 73 81 80 89 93 88 83 80 79 80 87 89 94 84 82 77 71 73 75 71 70 65 57 51 52 49 51 54 54 54 56 58 61 63 64 69 71 70 73 76 81
94 97 95 93 93 90 81 96 94 82 86 93 93 87 84 81 75 79 84 81 88 91 82 79 77 81 82 81 76 67 67 66 60 58 59 60 62 64 66 71 73 78 81 85 81 81 87 91 87
98 94 91 87 98 98 93 88 97 91 88 88 84 87 91 85 72 78 83 87 90 91 95 98 97 89 83 87 81 72 70 71 67 64 61 65 69 75 76 83 85 86 88 89 93 96 95 90 84
98 98 91 90 98 98 93 87 96 92 86 91 87 90 95 87 72 79 82 84 85 90 91 98 98 91 97 90 92 84 85 85 76 79 80 82 84 85 88 88 91 91 95 92 95 90 82 84 79
91 98 92 87 94 97 98 81 90 91 91 92 89 96 97 83 76 80 80 79 81 85 91 93 95 93 89 91 95 93 94 92 85 87 85 83 85 87 89 88 94 94 89 82 76 83 82 72 67
91 85 91 91 94 96 95 77 78 81 86 81 90 96 94 81 82 76 79 79 81 87 93 94 95 96 97 94 90 94 94 97 94 91 86 86 87 91 89 90 91 87 87 76 64 61 58 55 56
86 87 91 86 91 95 84 91 79 72 69 78 85 91 87 91 82 77 79 81 86 88 92 93 92 93 90 91 90 99 98 95 97 97 91 96 94 93 93 88 86 77 68 60 56 53 49 51 52
84 93 96 88 83 80 88 77 70 74 75 75 79 88 94 88 77 75 76 75 79 79 80 82 84 86 85 87 91 96 92 92 96 93 94 89 87 83 75 72 69 63 57 50 48 46 49 49 49
85 94 94 86 82 87 82 80 83 75 74 70 69 77 95 87 79 77 75 74 69 70 74 73 75 75 76 78 83 87 89 89 87 87 88 84 78 71 66 64 59 56 52 46 41 42 44 45 49
96 96 90 85 80 80 80 91 80 74 71 71 72 75 89 89 84 79 74 70 70 69 71 73 72 71 69 69 72 75 78 78 79 79 79 76 70 68 65 61 57 54 49 41 39 38 40 42 39
91 94 91 84 83 79 78 89 78 74 70 69 71 73 79 88 89 84 77 72 69 71 74 75 75 72 69 68 67 65 68 71 73 74 74 71 67 63 63 60 56 52 47 39 41 40 41 39 37

GFSSGP_prec_cthk_114.txt.gz
RH
18 18 21 31 34 33 31 28 33 31 32 35 42 54 63 71 68 60 54 59 59 59 56 49 39 33 28 27 25 22 20 20 22 20 27 40 38 46 56 57 34 23 22 19 22 20 24 23 20
22 20 22 34 35 30 27 28 36 33 32 33 36 49 62 71 73 70 61 56 61 65 61 53 42 36 30 26 25 22 20 19 20 23 24 41 35 51 55 38 25 28 29 22 17 17 19 18 17
24 24 27 30 32 26 24 34 35 39 33 31 36 44 61 67 77 74 69 62 64 69 65 56 45 39 34 26 24 22 20 20 20 26 32 42 41 52 47 27 22 21 20 21 17 15 14 14 14
29 31 31 36 24 24 27 32 49 39 31 31 38 44 55 70 74 77 74 68 68 71 71 59 48 42 37 27 23 22 25 25 33 39 48 47 53 52 23 21 22 21 19 18 15 14 14 14 15
29 36 35 30 23 22 25 32 45 42 32 34 39 41 46 58 65 72 73 76 73 74 70 61 52 44 36 28 26 29 29 35 45 50 54 49 53 27 13 22 21 20 19 15 15 14 15 17 19
37 34 36 31 30 26 27 30 53 46 36 37 44 42 46 55 60 67 75 83 80 78 69 61 54 46 36 29 32 37 39 42 46 52 46 47 33 13 14 22 21 20 16 15 15 18 19 20 20
35 38 33 34 32 31 34 33 49 47 38 36 53 47 48 55 63 66 71 84 87 85 72 60 57 46 37 35 38 41 44 46 48 44 41 36 19 14 16 22 21 18 16 17 19 21 21 21 21
40 46 44 41 37 35 44 37 30 38 36 45 57 58 51 62 62 62 64 83 90 88 81 63 60 47 40 39 41 44 47 46 45 41 35 25 16 16 21 23 20 18 19 21 21 21 22 22 22
39 48 45 37 34 34 42 44 41 35 43 54 69 77 62 65 69 70 67 78 94 89 83 68 61 53 45 41 43 45 47 45 39 38 29 19 16 19 24 24 20 21 22 22 23 23 24 24 23
52 49 38 35 36 43 52 53 58 49 41 52 73 74 72 63 72 81 66 64 84 97 91 74 64 56 47 46 42 47 44 41 37 34 25 21 24 28 27 24 24 23 25 26 26 26 25 26 27
53 49 41 39 43 46 53 55 58 63 53 57 67 77 79 66 75 78 73 73 85 97 94 84 71 57 50 45 46 44 43 41 36 33 26 26 28 27 26 28 30 27 28 28 29 29 28 28 31
52 45 51 46 55 58 53 54 58 64 57 62 64 74 81 67 69 86 93 87 85 98 96 85 75 60 53 44 41 43 41 38 32 29 28 28 28 27 29 31 33 30 33 30 29 31 30 30 30
57 53 55 54 55 55 59 52 54 60 52 60 68 75 88 75 66 81 90 92 72 83 98 89 77 63 53 42 38 35 33 31 29 28 29 28 24 28 31 33 35 36 33 33 34 35 35 35 36
59 61 63 64 60 60 61 56 59 48 55 58 68 69 84 82 71 72 83 99 78 81 98 92 78 65 54 45 41 35 32 30 30 30 31 25 29 32 34 35 36 36 35 36 38 39 39 40 43
57 57 55 51 60 63 68 65 56 36 48 62 64 67 75 76 76 65 78 97 83 84 98 93 76 63 55 48 43 37 29 29 31 30 32 31 33 33 32 34 37 38 39 39 40 41 44 48 46
69 67 59 40 58 65 77 53 51 46 53 51 63 68 70 84 77 67 79 96 89 86 82 92 77 65 61 45 43 34 27 26 28 30 30 32 34 36 38 41 41 41 41 41 43 45 48 52 51
67 68 61 58 63 70 76 63 60 52 51 46 63 74 69 83 81 68 76 88 97 86 85 84 79 71 63 47 45 43 36 30 28 29 29 32 38 42 44 43 43 43 44 45 47 49 52 53 54
63 73 71 69 75 86 77 65 66 58 53 54 64 73 68 81 82 72 80 87 98 90 87 86 68 71 66 54 48 48 46 40 34 31 32 38 43 44 43 44 45 48 50 51 52 55 57 59 58
75 79 74 65 72 77 83 75 67 68 67 62 68 73 71 78 79 80 88 89 99 95 91 90 77 67 65 59 55 50 46 44 44 45 47 48 48 48 48 51 55 57 58 58 60 63 64 64 63
83 86 80 78 74 69 77 75 63 67 68 62 67 74 75 74 76 80 90 96 93 97 94 84 84 71 65 63 58 59 53 50 49 50 50 52 51 53 54 56 59 59 59 62 64 65 68 69 69
88 94 89 86 85 75 76 78 65 74 63 56 63 74 83 74 74 78 85 95 90 96 98 95 90 78 67 60 61 67 61 59 50 52 52 52 52 54 58 60 60 61 63 66 67 70 76 79 75
96 95 96 94 98 91 73 91 80 76 72 61 69 71 77 79 73 78 79 94 96 95 99 98 98 89 75 74 71 71 69 57 51 53 53 54 58 61 63 65 65 68 76 81 82 88 88 83 79
95 98 96 98 97 97 78 92 98 89 77 67 71 72 80 75 69 73 75 92 92 97 96 99 96 90 85 80 84 76 78 68 59 58 58 64 66 71 72 74 75 81 87 92 92 90 82 80 62
97 98 98 99 99 97 87 86 98 96 81 73 72 73 79 73 71 74 78 86 92 98 88 95 98 97 96 91 87 85 87 80 72 64 66 71 76 78 81 85 86 87 92 97 93 77 64 60 62
92 88 88 95 95 96 96 76 90 83 83 81 76 78 82 77 78 72 72 82 91 97 90 89 90 92 94 99 93 90 92 93 87 88 82 82 84 85 89 91 91 96 98 90 86 79 61 62 58
94 95 91 93 94 96 89 92 90 79 74 76 83 85 91 84 76 74 78 81 92 92 93 91 88 92 93 89 96 98 97 95 98 95 91 95 91 91 88 86 94 93 93 97 83 69 59 55 51
89 92 94 90 79 84 95 86 79 78 75 75 86 96 99 88 81 86 80 82 87 92 88 90 89 93 95 94 93 94 90 91 98 96 93 93 98 95 91 87 90 96 94 86 69 57 51 50 49
94 94 90 81 83 92 92 93 93 79 79 82 95 96 97 95 84 79 78 80 87 89 90 89 94 94 96 95 98 91 82 86 90 95 92 96 93 90 91 89 95 90 78 67 59 55 51 47 46
93 91 86 78 78 80 84 96 86 86 83 80 92 96 97 95 87 78 76 82 86 89 87 84 87 90 93 93 90 88 84 83 83 90 94 88 88 89 87 88 83 77 69 63 60 55 50 44 43
88 89 84 83 81 79 77 94 80 81 76 84 84 94 96 94 90 84 78 76 79 82 81 84 86 83 81 78 78 81 84 85 89 87 90 89 88 86 82 79 73 70 70 65 59 52 47 41 40

GFSSGP_prec_cthk_117.txt.gz
RH
14 21 22 30 36 29 27 21 21 26 25 27 31 38 42 51 61 79 63 60 58 57 56 49 42 36 32 29 30 33 32 27 28 34 50 50 45 49 48 48 34 27 19 18 26 32 28 22 17
29 25 23 27 32 31 22 21 22 23 29 31 28 35 34 43 60 59 82 63 63 64 61 56 47 37 33 30 29 30 28 24 23 26 44 44 42 47 51 38 30 23 21 21 27 24 23 18 15
26 27 28 26 35 28 22 23 27 28 35 31 29 28 31 36 57 63 73 67 66 67 66 63 50 41 34 29 26 25 25 24 22 24 29 44 40 51 51 30 35 28 20 17 21 19 17 16 15
34 34 31 31 25 20 25 21 23 32 39 35 30 26 26 33 49 56 67 71 70 66 69 67 57 44 38 30 26 26 24 26 23 28 29 52 39 52 38 32 31 26 20 16 16 16 15 14 16
33 38 36 30 23 22 21 22 20 25 38 40 32 28 28 39 55 60 54 72 72 70 70 70 62 48 42 32 27 26 25 25 28 34 41 53 48 48 29 30 23 22 20 15 14 15 15 17 18
40 34 37 34 29 24 21 20 19 22 32 40 32 36 28 40 55 51 51 65 75 74 74 74 68 53 44 33 27 25 29 28 38 47 56 54 51 38 26 24 23 20 16 15 15 16 19 19 19
37 37 34 30 26 23 25 26 27 21 27 37 43 38 34 39 56 56 53 51 75 77 84 80 74 59 48 34 28 32 32 38 53 59 63 54 47 21 23 25 23 19 16 15 17 20 21 20 21
40 37 33 34 31 30 28 27 29 30 26 36 48 43 42 41 57 56 58 50 62 78 90 89 78 66 50 37 34 40 41 48 62 64 56 53 25 18 27 24 24 18 17 18 21 21 21 22 21
37 41 42 34 31 29 28 27 33 36 33 35 45 46 52 56 53 77 65 63 52 82 85 97 79 70 55 42 43 50 48 52 58 57 52 39 16 24 29 27 21 19 21 22 23 23 22 22 21
45 42 37 33 34 32 31 30 32 39 41 38 40 46 62 72 55 69 75 71 56 72 81 99 82 71 61 49 50 54 55 57 57 51 46 27 23 29 31 26 22 22 24 25 26 26 26 25 24
47 47 40 41 38 39 40 39 40 42 45 50 51 39 53 52 79 64 78 80 61 64 83 95 85 72 66 53 55 61 60 56 53 49 39 26 26 35 35 27 25 25 26 27 28 28 29 33 33
47 47 45 44 44 49 48 47 43 45 43 48 53 52 48 70 69 66 73 91 87 74 74 89 94 73 68 54 59 63 65 57 48 49 34 33 32 35 35 29 28 28 30 31 31 32 34 33 33
48 47 48 47 49 49 51 49 45 48 45 48 54 52 63 65 71 74 71 86 91 76 76 81 98 79 71 61 58 61 60 53 47 46 33 34 37 37 29 31 33 35 36 35 36 37 38 38 38
52 52 51 49 53 55 57 54 58 53 40 44 48 57 52 56 78 85 75 76 96 94 86 84 98 93 77 59 59 59 53 50 46 42 33 32 37 37 31 34 39 38 43 40 39 40 41 42 42
49 49 48 42 46 45 54 60 55 37 54 53 51 51 46 58 76 88 76 78 82 91 94 88 96 94 80 59 55 58 54 55 41 37 30 33 36 37 37 40 44 45 43 42 43 43 43 44 46
63 63 60 39 52 42 55 59 40 51 56 51 42 60 54 56 78 79 76 75 82 91 99 81 98 95 76 60 55 51 47 44 39 33 32 34 37 39 43 45 45 45 46 46 46 45 46 49 51
69 75 60 52 46 54 62 73 46 54 56 47 40 42 48 53 72 73 80 72 78 89 99 93 95 95 76 63 57 50 44 43 36 33 37 35 35 37 40 44 45 47 47 47 47 49 51 53 54
68 74 64 63 58 70 82 69 65 61 59 48 41 46 53 63 67 79 81 71 73 86 96 95 85 94 84 67 55 48 43 39 37 36 35 34 35 39 42 46 49 49 49 50 50 55 54 57 58
68 69 67 56 62 69 68 77 77 63 64 57 53 59 60 65 67 78 76 74 66 85 89 99 97 96 78 70 59 52 45 39 35 35 35 33 37 40 45 49 51 51 51 54 53 54 56 57 58
65 71 69 61 62 65 65 66 69 69 71 71 66 60 62 65 70 73 75 77 66 78 87 99 92 90 82 69 61 62 51 42 36 34 34 31 37 41 45 50 52 54 56 58 58 59 60 61 63
75 84 82 83 81 85 76 63 57 57 67 76 74 61 63 65 69 68 74 72 72 78 83 90 97 95 85 79 72 65 60 51 44 40 39 38 43 47 48 54 56 57 57 60 60 61 61 66 74
94 85 95 90 96 83 70 79 58 55 61 69 70 57 58 69 69 67 70 69 72 73 75 94 92 98 88 86 78 72 61 54 46 41 40 43 51 55 53 56 55 57 58 61 61 67 76 85 87
89 94 97 96 95 98 87 97 77 69 73 66 62 61 64 79 74 71 71 67 79 74 80 91 98 97 89 82 79 75 70 59 50 46 45 51 56 56 54 56 58 62 63 66 75 82 88 87 88
96 98 98 96 93 92 83 93 99 97 89 75 76 78 78 69 75 73 67 67 79 79 79 98 98 99 95 87 79 78 64 61 56 52 56 59 59 56 60 61 63 69 75 82 84 90 91 83 78
91 95 97 97 96 87 96 95 98 96 89 95 89 80 80 80 80 69 68 70 78 80 84 97 98 98 97 86 92 88 81 72 68 61 59 60 59 61 64 68 76 82 85 86 90 90 70 74 68
92 95 98 96 95 86 75 92 98 93 89 91 87 90 84 74 70 66 69 73 76 82 87 90 91 99 98 96 97 96 86 87 83 79 80 68 70 76 77 77 84 87 90 89 89 82 79 79 72
84 87 94 97 95 86 96 98 95 91 93 93 93 93 82 74 71 67 70 74 74 83 90 92 94 97 94 96 93 93 94 88 87 95 90 87 81 85 83 85 87 92 90 89 88 88 82 75 60
88 83 85 92 95 94 94 94 97 96 96 94 96 95 84 77 74 74 79 81 81 84 85 91 94 91 88 91 91 96 94 93 91 92 93 94 89 92 95 93 87 92 87 90 90 89 75 66 53
91 81 77 84 78 95 90 96 98 93 94 97 97 96 87 82 76 78 79 83 83 85 88 90 95 98 98 97 96 95 90 87 83 85 90 98 94 91 94 97 96 93 88 94 93 76 65 59 52
84 82 82 94 82 85 81 97 90 90 93 96 98 98 97 92 85 81 83 88 86 83 82 83 93 95 98 95 95 93 92 89 83 84 92 88 91 93 90 91 93 92 92 91 81 73 67 60 54

GFSSGP_prec_cthk_120.txt.gz
RH
14 19 22 28 38 33 29 22 19 22 23 19 25 26 30 37 54 66 51 67 68 56 60 54 50 44 31 31 32 36 39 33 33 43 49 49 50 50 46 37 35 32 20 29 36 41 19 19 20
21 28 26 32 37 39 25 19 20 20 19 24 25 24 26 32 46 55 55 56 74 67 62 55 53 49 37 32 32 35 37 30 31 39 48 51 46 47 47 32 32 26 24 32 32 26 18 15 15
22 30 34 30 31 32 24 20 25 25 23 24 27 25 25 30 46 46 45 51 64 55 62 57 57 52 43 35 33 34 33 29 29 34 46 47 44 45 42 33 29 23 25 27 23 20 14 14 17
32 36 34 39 29 22 23 20 22 24 24 28 29 28 23 27 33 46 43 46 50 56 59 63 59 57 49 39 34 31 30 28 26 29 40 41 46 46 36 35 30 21 21 21 17 14 14 15 16
36 40 42 39 29 25 23 23 20 20 25 29 34 32 25 26 30 41 48 47 50 58 59 65 62 60 53 44 34 29 25 27 27 30 29 43 48 47 30 37 33 19 17 17 15 14 14 17 19
39 35 44 43 35 28 24 20 21 18 22 25 39 38 28 28 42 44 44 50 45 52 60 64 68 63 59 47 37 30 26 27 29 34 36 52 51 48 32 36 26 19 16 14 14 15 17 19 20
41 44 42 36 32 29 28 26 25 23 19 22 26 39 32 29 41 40 43 50 49 47 60 67 68 69 63 53 40 32 28 28 28 41 48 61 62 41 34 29 22 19 15 15 15 18 20 20 21
42 46 45 42 40 35 29 28 27 26 24 20 25 31 38 35 36 44 63 44 47 42 54 67 74 74 68 58 42 32 31 30 31 49 61 66 57 36 34 27 22 18 16 16 18 20 21 21 21
47 51 49 42 38 34 30 29 27 27 27 26 20 25 33 44 40 40 49 69 58 46 50 63 73 79 72 61 42 35 39 37 45 59 65 66 49 31 29 27 23 18 17 19 21 21 22 22 21
49 49 44 36 37 38 34 32 30 27 26 27 25 24 30 36 44 42 47 52 74 62 55 55 71 82 77 66 45 41 46 46 57 62 67 62 38 26 28 28 24 20 20 22 22 22 23 22 22
57 55 48 45 44 43 41 38 36 32 29 27 29 27 33 36 42 43 45 44 65 76 62 57 73 86 87 74 50 47 55 56 61 64 66 49 26 30 29 28 27 22 24 24 25 25 26 25 25
53 51 48 45 44 44 42 40 41 37 29 28 33 35 36 39 39 44 45 48 58 89 74 64 74 81 95 84 62 54 61 61 62 64 64 41 26 36 30 27 23 23 25 27 27 28 31 32 33
55 50 47 46 44 43 41 38 37 34 30 30 33 35 30 39 38 46 55 51 56 86 86 72 73 79 97 90 68 64 66 68 68 66 55 36 27 37 30 27 25 26 27 29 30 31 34 34 36
50 46 44 42 41 41 44 46 44 40 36 29 33 30 30 37 34 49 50 62 55 74 97 80 77 77 87 97 75 68 75 77 76 65 52 33 29 36 32 29 28 30 33 32 34 37 38 39 40
45 45 41 36 35 38 41 44 36 31 28 37 38 32 29 40 38 44 58 64 66 66 93 92 84 90 83 98 79 70 75 80 80 62 50 37 34 35 32 29 30 34 42 37 39 40 40 41 43
49 49 53 38 44 45 51 54 34 29 31 39 37 34 32 29 34 43 53 61 66 68 85 96 86 87 83 99 83 70 81 84 75 55 45 38 39 39 35 34 38 41 41 42 40 41 42 44 45
56 62 54 46 42 50 48 56 49 38 47 48 42 41 39 34 33 45 58 59 69 69 80 90 93 87 87 96 91 74 76 82 60 50 45 39 38 41 33 36 44 43 43 43 42 42 43 46 48
63 60 51 45 37 44 45 49 44 58 62 65 49 54 48 41 43 48 59 70 71 61 68 84 86 94 90 96 92 77 74 74 56 50 40 35 42 41 41 42 42 43 42 42 42 41 47 51 52
67 71 70 55 46 51 48 46 51 58 63 62 75 61 53 44 45 49 54 53 61 56 70 83 93 98 92 86 84 69 62 60 59 52 41 37 43 37 39 40 40 42 40 42 42 46 51 54 55
59 65 68 65 71 64 64 64 64 63 65 63 62 66 62 48 51 54 67 43 49 52 70 77 89 99 96 92 84 64 53 50 46 42 42 40 39 36 37 38 41 42 44 46 48 52 53 55 55
68 72 74 77 77 81 71 60 62 57 56 65 69 68 69 63 61 65 62 52 53 57 68 76 88 99 99 95 88 65 54 49 46 44 41 43 41 35 38 39 43 46 49 50 52 56 57 57 58
78 73 80 85 90 84 75 81 73 67 52 58 74 88 75 64 63 65 58 62 59 67 69 75 87 96 98 94 89 67 53 48 42 40 40 45 41 38 40 42 48 50 53 54 58 61 60 59 67
79 81 94 94 91 90 78 98 76 56 53 64 65 74 77 68 70 60 62 63 69 72 76 79 83 97 99 95 88 82 65 59 45 42 46 44 41 38 38 46 55 52 57 59 61 62 62 68 75
79 89 95 98 92 94 81 97 97 91 94 86 64 65 73 74 67 64 58 69 69 73 74 79 76 89 92 98 90 80 70 71 66 55 52 49 46 41 45 51 55 58 63 64 64 67 75 80 79
89 97 98 97 94 93 97 97 98 98 95 95 82 80 71 67 68 69 63 65 72 75 78 78 80 85 86 89 98 91 77 80 75 64 52 49 45 43 49 56 59 66 66 68 73 77 82 77 79
95 98 98 97 97 96 99 97 98 97 96 97 91 85 86 74 75 69 66 66 75 77 81 84 85 90 89 91 98 96 93 84 87 74 57 52 47 45 49 54 65 69 71 77 80 86 83 80 71
91 98 98 96 91 90 98 95 96 98 98 97 94 91 88 81 72 69 68 74 79 83 82 79 82 83 94 96 94 98 98 96 90 82 67 60 54 52 56 64 72 75 81 86 84 86 84 81 71
91 96 97 98 96 95 97 97 98 98 99 98 98 93 88 78 72 73 74 83 85 86 82 80 80 87 90 98 98 97 98 98 96 93 90 75 63 61 64 71 81 83 85 85 86 86 86 81 82
85 97 94 95 91 96 96 97 98 99 98 98 98 92 89 86 79 76 82 86 87 83 84 88 83 84 88 93 97 97 93 91 92 97 96 93 85 78 79 87 85 87 85 86 85 83 88 88 83
83 91 84 93 96 96 96 98 97 98 98 97 98 98 99 92 85 89 87 90 92 92 92 89 89 91 91 98 96 95 96 92 94 96 94 93 96 92 89 90 93 95 88 86 87 85 88 88 79